Wetterdaten: aktuell Samstag, 28.01.2023 18:40
Datum Zeit Temp. 2m Temp +5cm LF A. 2m Luftdruck Regen Wind Richtung Richtung Sonnenschein UV Solar Taupunkt Windben
28.01.2023 18:40 -2,0 C -3,1 C 82 % 1030,0 hPa 0,0 l/m 0,0 km/h (0 Bft) O-NO 63 0 min 0,0 UV-I 0 W/m -4,7 C 3,0 km/h (1 Bft)
28.01.2023 18:39 -2,0 C -3,0 C 82 % 1030,0 hPa 0,0 l/m 0,0 km/h (0 Bft) SO 134 0 min 0,0 UV-I 0 W/m -4,7 C 4,0 km/h (1 Bft)
28.01.2023 18:38 -1,9 C -2,9 C 82 % 1029,9 hPa 0,0 l/m 0,0 km/h (0 Bft) SO 125 0 min 0,0 UV-I 0 W/m -4,6 C 5,0 km/h (1 Bft)
28.01.2023 18:37 -1,9 C -3,0 C 82 % 1030,0 hPa 0,0 l/m 1,0 km/h (0 Bft) S-SO 160 0 min 0,0 UV-I 0 W/m -4,6 C 5,0 km/h (1 Bft)
28.01.2023 18:36 -1,9 C -3,0 C 82 % 1030,0 hPa 0,0 l/m 1,0 km/h (0 Bft) SW 233 0 min 0,0 UV-I 0 W/m -4,6 C 5,0 km/h (1 Bft)
28.01.2023 18:35 -1,8 C -3,2 C 82 % 1029,9 hPa 0,0 l/m 1,0 km/h (0 Bft) O-SO 107 0 min 0,0 UV-I 0 W/m -4,5 C 4,0 km/h (1 Bft)
28.01.2023 18:34 -1,8 C -3,2 C 81 % 1029,8 hPa 0,0 l/m 1,0 km/h (0 Bft) W-SW 243 0 min 0,0 UV-I 0 W/m -4,6 C 4,0 km/h (1 Bft)
28.01.2023 18:33 -1,8 C -3,0 C 81 % 1029,9 hPa 0,0 l/m 1,0 km/h (0 Bft) O-SO 118 0 min 0,0 UV-I 0 W/m -4,6 C 4,0 km/h (1 Bft)
28.01.2023 18:32 -1,8 C -3,1 C 81 % 1029,7 hPa 0,0 l/m 1,4 km/h (1 Bft) SW 215 0 min 0,0 UV-I 0 W/m -4,6 C 4,0 km/h (1 Bft)
28.01.2023 18:31 -1,7 C -2,8 C 81 % 1029,8 hPa 0,0 l/m 0,0 km/h (0 Bft) N 6 0 min 0,0 UV-I 0 W/m -4,5 C 5,0 km/h (1 Bft)
28.01.2023 18:30 -1,7 C -2,8 C 81 % 1029,8 hPa 0,0 l/m 0,0 km/h (0 Bft) SW 216 0 min 0,0 UV-I 0 W/m -4,5 C 5,0 km/h (1 Bft)
28.01.2023 18:29 -1,7 C -2,9 C 81 % 1029,8 hPa 0,0 l/m 1,0 km/h (0 Bft) SW 225 0 min 0,0 UV-I 0 W/m -4,5 C 5,0 km/h (1 Bft)
28.01.2023 18:28 -1,7 C -2,9 C 81 % 1029,8 hPa 0,0 l/m 1,0 km/h (0 Bft) S-SW 197 0 min 0,0 UV-I 0 W/m -4,5 C 4,0 km/h (1 Bft)
28.01.2023 18:27 -1,7 C -3,1 C 81 % 1029,9 hPa 0,0 l/m 1,0 km/h (0 Bft) S-SW 195 0 min 0,0 UV-I 0 W/m -4,5 C 4,0 km/h (1 Bft)
28.01.2023 18:26 -1,6 C -2,9 C 81 % 1029,8 hPa 0,0 l/m 1,3 km/h (1 Bft) S-SO 151 0 min 0,0 UV-I 0 W/m -4,4 C 5,0 km/h (1 Bft)
28.01.2023 18:25 -1,6 C -2,8 C 81 % 1030,1 hPa 0,0 l/m 2,9 km/h (1 Bft) SO 146 0 min 0,0 UV-I 0 W/m -4,4 C 5,0 km/h (1 Bft)
28.01.2023 18:24 -1,6 C -2,8 C 81 % 1029,8 hPa 0,0 l/m 1,3 km/h (1 Bft) SO 127 0 min 0,0 UV-I 0 W/m -4,4 C 6,0 km/h (2 Bft)
28.01.2023 18:23 -1,5 C -3,0 C 81 % 1029,9 hPa 0,0 l/m 1,3 km/h (1 Bft) W-SW 247 0 min 0,0 UV-I 0 W/m -4,3 C 6,0 km/h (2 Bft)
28.01.2023 18:22 -1,5 C -2,8 C 81 % 1029,7 hPa 0,0 l/m 2,3 km/h (1 Bft) S 191 0 min 0,0 UV-I 0 W/m -4,3 C 5,0 km/h (1 Bft)
28.01.2023 18:21 -1,5 C -2,8 C 81 % 1029,7 hPa 0,0 l/m 1,0 km/h (0 Bft) O-SO 111 0 min 0,0 UV-I 0 W/m -4,3 C 5,0 km/h (1 Bft)
28.01.2023 18:20 -1,5 C -2,8 C 81 % 1029,7 hPa 0,0 l/m 1,6 km/h (1 Bft) S-SO 160 0 min 0,0 UV-I 0 W/m -4,3 C 5,0 km/h (1 Bft)
28.01.2023 18:19 -1,4 C -2,9 C 81 % 1029,6 hPa 0,0 l/m 0,0 km/h (0 Bft) N 2 0 min 0,0 UV-I 0 W/m -4,2 C 7,0 km/h (2 Bft)
28.01.2023 18:18 -1,4 C -2,5 C 81 % 1029,8 hPa 0,0 l/m 1,6 km/h (1 Bft) W-NW 285 0 min 0,0 UV-I 0 W/m -4,2 C 7,0 km/h (2 Bft)
28.01.2023 18:17 -1,4 C -2,7 C 81 % 1029,8 hPa 0,0 l/m 2,0 km/h (1 Bft) N-NW 348 0 min 0,0 UV-I 0 W/m -4,2 C 5,0 km/h (1 Bft)
28.01.2023 18:16 -1,3 C -2,7 C 80 % 1029,8 hPa 0,0 l/m 0,0 km/h (0 Bft) NO 53 0 min 0,0 UV-I 0 W/m -4,3 C 3,0 km/h (1 Bft)
28.01.2023 18:15 -1,3 C -2,8 C 80 % 1029,6 hPa 0,0 l/m 0,0 km/h (0 Bft) SW 217 0 min 0,0 UV-I 0 W/m -4,3 C 4,0 km/h (1 Bft)
28.01.2023 18:14 -1,3 C -2,8 C 80 % 1029,8 hPa 0,0 l/m 0,0 km/h (0 Bft) S-SW 202 0 min 0,0 UV-I 0 W/m -4,3 C 4,0 km/h (1 Bft)
28.01.2023 18:13 -1,3 C -2,9 C 80 % 1029,8 hPa 0,0 l/m 0,0 km/h (0 Bft) O-SO 104 0 min 0,0 UV-I 0 W/m -4,3 C 4,0 km/h (1 Bft)
28.01.2023 18:12 -1,3 C -2,7 C 80 % 1029,8 hPa 0,0 l/m 0,0 km/h (0 Bft) S 181 0 min 0,0 UV-I 0 W/m -4,3 C 4,0 km/h (1 Bft)
28.01.2023 18:11 -1,3 C -2,5 C 80 % 1029,8 hPa 0,0 l/m 2,1 km/h (1 Bft) S-SO 162 0 min 0,0 UV-I 0 W/m -4,3 C 4,0 km/h (1 Bft)
28.01.2023 18:10 -1,2 C -2,6 C 80 % 1029,5 hPa 0,0 l/m 0,0 km/h (0 Bft) N-NW 336 0 min 0,0 UV-I 0 W/m -4,2 C 3,0 km/h (1 Bft)
28.01.2023 18:09 -1,2 C -2,6 C 80 % 1029,8 hPa 0,0 l/m 0,0 km/h (0 Bft) S-SO 157 0 min 0,0 UV-I 0 W/m -4,2 C 3,0 km/h (1 Bft)
28.01.2023 18:08 -1,2 C -2,5 C 80 % 1029,6 hPa 0,0 l/m 0,0 km/h (0 Bft) SO 134 0 min 0,0 UV-I 0 W/m -4,2 C 3,0 km/h (1 Bft)
28.01.2023 18:07 -1,2 C -2,2 C 80 % 1029,4 hPa 0,0 l/m 0,0 km/h (0 Bft) W-NW 295 0 min 0,0 UV-I 0 W/m -4,2 C 4,0 km/h (1 Bft)
28.01.2023 18:06 -1,2 C -2,5 C 80 % 1029,5 hPa 0,0 l/m 0,0 km/h (0 Bft) W-NW 291 0 min 0,0 UV-I 0 W/m -4,2 C 4,0 km/h (1 Bft)
28.01.2023 18:05 -1,2 C -2,2 C 80 % 1029,2 hPa 0,0 l/m 1,3 km/h (1 Bft) S 180 0 min 0,0 UV-I 0 W/m -4,2 C 4,0 km/h (1 Bft)
28.01.2023 18:04 -1,1 C -2,3 C 80 % 1029,2 hPa 0,0 l/m 0,0 km/h (0 Bft) W-SW 241 0 min 0,0 UV-I 0 W/m -4,1 C 3,0 km/h (1 Bft)
28.01.2023 18:03 -1,2 C -1,9 C 80 % 1029,5 hPa 0,0 l/m 0,0 km/h (0 Bft) N-NO 30 0 min 0,0 UV-I 0 W/m -4,2 C 3,0 km/h (1 Bft)
28.01.2023 18:02 -1,1 C -1,8 C 80 % 1029,6 hPa 0,0 l/m 0,0 km/h (0 Bft) N 351 0 min 0,0 UV-I 0 W/m -4,1 C 5,0 km/h (1 Bft)
28.01.2023 18:01 -1,1 C -1,8 C 80 % 1029,5 hPa 0,0 l/m 1,0 km/h (0 Bft) N-NW 335 0 min 0,0 UV-I 0 W/m -4,1 C 5,0 km/h (1 Bft)
28.01.2023 18:00 -1,1 C -1,6 C 80 % 1029,7 hPa 0,0 l/m 0,0 km/h (0 Bft) N-NO 12 0 min 0,0 UV-I 0 W/m -4,1 C 5,0 km/h (1 Bft)
28.01.2023 17:59 -1,1 C -1,5 C 80 % 1029,6 hPa 0,0 l/m 1,4 km/h (1 Bft) N 359 0 min 0,0 UV-I 0 W/m -4,1 C 5,0 km/h (1 Bft)
28.01.2023 17:58 -1,1 C -1,3 C 80 % 1029,6 hPa 0,0 l/m 0,0 km/h (0 Bft) N-NO 23 0 min 0,0 UV-I 0 W/m -4,1 C 5,0 km/h (1 Bft)
28.01.2023 17:57 -1,1 C -1,1 C 80 % 1029,4 hPa 0,0 l/m 2,3 km/h (1 Bft) N-NO 16 0 min 0,0 UV-I 0 W/m -4,1 C 5,0 km/h (1 Bft)
28.01.2023 17:56 -1,1 C -1,1 C 80 % 1029,4 hPa 0,0 l/m 2,3 km/h (1 Bft) N-NO 18 0 min 0,0 UV-I 0 W/m -4,1 C 5,0 km/h (1 Bft)
28.01.2023 17:55 -1,1 C -1,0 C 80 % 1029,5 hPa 0,0 l/m 0,0 km/h (0 Bft) N-NO 28 0 min 0,0 UV-I 0 W/m -4,1 C 5,0 km/h (1 Bft)
28.01.2023 17:54 -1,1 C -0,9 C 80 % 1029,6 hPa 0,0 l/m 1,6 km/h (1 Bft) O-NO 64 0 min 0,0 UV-I 0 W/m -4,1 C 5,0 km/h (1 Bft)
28.01.2023 17:53 -1,1 C -0,9 C 80 % 1029,3 hPa 0,0 l/m 1,4 km/h (1 Bft) N 8 0 min 0,0 UV-I 0 W/m -4,1 C 5,0 km/h (1 Bft)
28.01.2023 17:52 -1,1 C -0,9 C 80 % 1029,5 hPa 0,0 l/m 0,0 km/h (0 Bft) N-NO 24 0 min 0,0 UV-I 0 W/m -4,1 C 3,0 km/h (1 Bft)
28.01.2023 17:51 -1,1 C -0,8 C 80 % 1029,3 hPa 0,0 l/m 0,0 km/h (0 Bft) O-NO 64 0 min 0,0 UV-I 0 W/m -4,1 C 4,0 km/h (1 Bft)
28.01.2023 17:50 -1,1 C -0,8 C 80 % 1029,2 hPa 0,0 l/m 0,0 km/h (0 Bft) O-SO 103 0 min 0,0 UV-I 0 W/m -4,1 C 5,0 km/h (1 Bft)
28.01.2023 17:49 -1,1 C -0,8 C 80 % 1029,3 hPa 0,0 l/m 0,0 km/h (0 Bft) S-SO 168 0 min 0,0 UV-I 0 W/m -4,1 C 5,0 km/h (1 Bft)
28.01.2023 17:48 -1,0 C -1,0 C 80 % 1029,3 hPa 0,0 l/m 1,0 km/h (0 Bft) S-SW 204 0 min 0,0 UV-I 0 W/m -4,0 C 5,0 km/h (1 Bft)
28.01.2023 17:47 -1,1 C -0,9 C 80 % 1029,4 hPa 0,0 l/m 1,0 km/h (0 Bft) S-SO 153 0 min 0,0 UV-I 0 W/m -4,1 C 4,0 km/h (1 Bft)
28.01.2023 17:46 -1,1 C -0,8 C 79 % 1029,1 hPa 0,0 l/m 0,0 km/h (0 Bft) SW 218 0 min 0,0 UV-I 0 W/m -4,3 C 4,0 km/h (1 Bft)
28.01.2023 17:45 -1,0 C -0,9 C 79 % 1028,9 hPa 0,0 l/m 1,3 km/h (1 Bft) S-SO 168 0 min 0,0 UV-I 0 W/m -4,2 C 5,0 km/h (1 Bft)
28.01.2023 17:44 -1,0 C -1,0 C 79 % 1029,2 hPa 0,0 l/m 1,4 km/h (1 Bft) NW 316 0 min 0,0 UV-I 0 W/m -4,2 C 6,0 km/h (2 Bft)
28.01.2023 17:43 -1,0 C -1,0 C 79 % 1029,1 hPa 0,0 l/m 3,1 km/h (1 Bft) N-NW 344 0 min 0,0 UV-I 0 W/m -4,2 C 6,0 km/h (2 Bft)
28.01.2023 17:42 -1,0 C -1,0 C 79 % 1029,3 hPa 0,0 l/m 0,0 km/h (0 Bft) N 11 0 min 0,0 UV-I 0 W/m -4,2 C 6,0 km/h (2 Bft)
28.01.2023 17:41 -1,1 C -1,0 C 79 % 1029,2 hPa 0,0 l/m 0,0 km/h (0 Bft) W 278 0 min 0,0 UV-I 0 W/m -4,3 C 3,0 km/h (1 Bft)
28.01.2023 17:40 -1,1 C -1,0 C 79 % 1029,2 hPa 0,0 l/m 0,0 km/h (0 Bft) W-SW 243 0 min 0,0 UV-I 0 W/m -4,3 C 3,0 km/h (1 Bft)
28.01.2023 17:39 -1,0 C -1,0 C 79 % 1029,4 hPa 0,0 l/m 2,1 km/h (1 Bft) S-SO 161 0 min 0,0 UV-I 0 W/m -4,2 C 4,0 km/h (1 Bft)
28.01.2023 17:38 -1,0 C -0,9 C 80 % 1029,3 hPa 0,0 l/m 2,6 km/h (1 Bft) S-SO 153 0 min 0,0 UV-I 0 W/m -4,0 C 5,0 km/h (1 Bft)
28.01.2023 17:37 -1,0 C -0,9 C 80 % 1029,4 hPa 0,0 l/m 0,0 km/h (0 Bft) SO 126 0 min 0,0 UV-I 0 W/m -4,0 C 5,0 km/h (1 Bft)
28.01.2023 17:36 -1,0 C -1,0 C 80 % 1029,2 hPa 0,0 l/m 2,7 km/h (1 Bft) S-SO 168 0 min 0,0 UV-I 0 W/m -4,0 C 5,0 km/h (1 Bft)
28.01.2023 17:35 -1,0 C -0,9 C 80 % 1029,1 hPa 0,0 l/m 2,5 km/h (1 Bft) W-NW 284 0 min 0,0 UV-I 0 W/m -4,0 C 5,0 km/h (1 Bft)
28.01.2023 17:34 -1,0 C -1,1 C 80 % 1029,2 hPa 0,0 l/m 0,0 km/h (0 Bft) S 189 0 min 0,0 UV-I 0 W/m -4,0 C 4,0 km/h (1 Bft)
28.01.2023 17:33 -1,0 C -1,1 C 79 % 1029,4 hPa 0,0 l/m 0,0 km/h (0 Bft) N 359 0 min 0,0 UV-I 0 W/m -4,2 C 4,0 km/h (1 Bft)
28.01.2023 17:32 -1,0 C -1,1 C 79 % 1029,4 hPa 0,0 l/m 1,0 km/h (0 Bft) N 351 0 min 0,0 UV-I 0 W/m -4,2 C 4,0 km/h (1 Bft)
28.01.2023 17:31 -1,0 C -1,0 C 79 % 1029,1 hPa 0,0 l/m 1,0 km/h (0 Bft) N 9 0 min 0,0 UV-I 0 W/m -4,2 C 5,0 km/h (1 Bft)
28.01.2023 17:30 -1,0 C -1,0 C 79 % 1029,2 hPa 0,0 l/m 1,6 km/h (1 Bft) N 360 0 min 0,0 UV-I 0 W/m -4,2 C 5,0 km/h (1 Bft)
28.01.2023 17:29 -1,0 C -1,1 C 79 % 1029,1 hPa 0,0 l/m 0,0 km/h (0 Bft) N-NO 17 0 min 0,0 UV-I 0 W/m -4,2 C 5,0 km/h (1 Bft)
28.01.2023 17:28 -1,0 C -1,2 C 79 % 1029,1 hPa 0,0 l/m 2,0 km/h (1 Bft) N-NW 348 0 min 0,0 UV-I 0 W/m -4,2 C 5,0 km/h (1 Bft)
28.01.2023 17:27 -1,0 C -1,1 C 79 % 1029,2 hPa 0,0 l/m 0,0 km/h (0 Bft) N-NW 342 0 min 0,0 UV-I 0 W/m -4,2 C 5,0 km/h (1 Bft)
28.01.2023 17:26 -0,9 C -1,1 C 79 % 1029,0 hPa 0,0 l/m 0,0 km/h (0 Bft) N 355 0 min 0,0 UV-I 0 W/m -4,1 C 5,0 km/h (1 Bft)
28.01.2023 17:25 -0,9 C -1,1 C 79 % 1029,4 hPa 0,0 l/m 0,0 km/h (0 Bft) NW 319 0 min 0,0 UV-I 0 W/m -4,1 C 5,0 km/h (1 Bft)
28.01.2023 17:24 -0,9 C -1,0 C 79 % 1029,4 hPa 0,0 l/m 1,3 km/h (1 Bft) N 6 0 min 0,0 UV-I 0 W/m -4,1 C 4,0 km/h (1 Bft)
28.01.2023 17:23 -0,9 C -0,9 C 79 % 1029,1 hPa 0,0 l/m 1,0 km/h (0 Bft) N-NW 342 0 min 0,0 UV-I 0 W/m -4,1 C 7,0 km/h (2 Bft)
28.01.2023 17:22 -0,9 C -0,8 C 79 % 1029,2 hPa 0,0 l/m 0,0 km/h (0 Bft) O-NO 68 0 min 0,0 UV-I 0 W/m -4,1 C 7,0 km/h (2 Bft)
28.01.2023 17:21 -0,9 C -0,9 C 79 % 1029,0 hPa 0,0 l/m 1,3 km/h (1 Bft) NO 36 0 min 0,0 UV-I 0 W/m -4,1 C 7,0 km/h (2 Bft)
28.01.2023 17:20 -0,9 C -0,9 C 79 % 1029,1 hPa 0,0 l/m 1,0 km/h (0 Bft) NO 54 0 min 0,0 UV-I 0 W/m -4,1 C 6,0 km/h (2 Bft)
28.01.2023 17:19 -0,9 C -0,9 C 79 % 1029,1 hPa 0,0 l/m 1,0 km/h (0 Bft) N-NO 21 0 min 0,0 UV-I 0 W/m -4,1 C 6,0 km/h (2 Bft)
28.01.2023 17:18 -0,9 C -0,9 C 79 % 1029,1 hPa 0,0 l/m 2,7 km/h (1 Bft) N-NW 342 0 min 0,0 UV-I 0 W/m -4,1 C 6,0 km/h (2 Bft)
28.01.2023 17:17 -0,8 C -0,9 C 79 % 1029,0 hPa 0,0 l/m 1,4 km/h (1 Bft) N-NW 332 0 min 0,0 UV-I 0 W/m -4,0 C 5,0 km/h (1 Bft)
28.01.2023 17:16 -0,8 C -0,9 C 79 % 1029,0 hPa 0,0 l/m 1,4 km/h (1 Bft) N-NW 343 0 min 0,0 UV-I 0 W/m -4,0 C 5,0 km/h (1 Bft)
28.01.2023 17:15 -0,8 C -1,0 C 79 % 1028,9 hPa 0,0 l/m 0,0 km/h (0 Bft) N-NO 13 0 min 0,0 UV-I 0 W/m -4,0 C 4,0 km/h (1 Bft)
28.01.2023 17:14 -0,8 C -1,0 C 79 % 1029,1 hPa 0,0 l/m 0,0 km/h (0 Bft) N 8 0 min 0,0 UV-I 0 W/m -4,0 C 5,0 km/h (1 Bft)
28.01.2023 17:13 -0,8 C -0,9 C 79 % 1029,2 hPa 0,0 l/m 1,0 km/h (0 Bft) N 355 0 min 0,0 UV-I 0 W/m -4,0 C 5,0 km/h (1 Bft)
28.01.2023 17:12 -0,8 C -0,8 C 79 % 1029,1 hPa 0,0 l/m 2,1 km/h (1 Bft) N-NW 336 0 min 0,0 UV-I 0 W/m -4,0 C 5,0 km/h (1 Bft)
28.01.2023 17:11 -0,8 C -0,8 C 79 % 1028,9 hPa 0,0 l/m 1,4 km/h (1 Bft) N-NW 335 0 min 0,0 UV-I 0 W/m -4,0 C 5,0 km/h (1 Bft)
28.01.2023 17:10 -0,8 C -0,8 C 79 % 1028,9 hPa 0,0 l/m 2,6 km/h (1 Bft) NW 313 0 min 0,0 UV-I 0 W/m -4,0 C 5,0 km/h (1 Bft)
28.01.2023 17:09 -0,8 C -0,8 C 79 % 1028,8 hPa 0,0 l/m 1,3 km/h (1 Bft) N-NO 20 0 min 0,0 UV-I 0 W/m -4,0 C 6,0 km/h (2 Bft)
28.01.2023 17:08 -0,8 C -0,8 C 79 % 1028,8 hPa 0,0 l/m 0,0 km/h (0 Bft) N-NW 348 0 min 0,0 UV-I 1 W/m -4,0 C 6,0 km/h (2 Bft)
28.01.2023 17:07 -0,8 C -0,7 C 79 % 1029,1 hPa 0,0 l/m 2,1 km/h (1 Bft) S-SW 205 0 min 0,0 UV-I 1 W/m -4,0 C 6,0 km/h (2 Bft)
28.01.2023 17:06 -0,8 C -0,9 C 79 % 1028,8 hPa 0,0 l/m 2,1 km/h (1 Bft) W-SW 241 0 min 0,0 UV-I 0 W/m -4,0 C 4,0 km/h (1 Bft)
28.01.2023 17:05 -0,8 C -1,0 C 79 % 1029,1 hPa 0,0 l/m 1,0 km/h (0 Bft) NW 318 0 min 0,0 UV-I 1 W/m -4,0 C 4,0 km/h (1 Bft)
28.01.2023 17:04 -0,8 C -1,2 C 78 % 1028,7 hPa 0,0 l/m 1,0 km/h (0 Bft) S-SO 153 0 min 0,0 UV-I 1 W/m -4,1 C 4,0 km/h (1 Bft)
28.01.2023 17:03 -0,8 C -1,2 C 78 % 1028,8 hPa 0,0 l/m 2,5 km/h (1 Bft) S 169 0 min 0,0 UV-I 2 W/m -4,1 C 4,0 km/h (1 Bft)
28.01.2023 17:02 -0,7 C -1,2 C 78 % 1028,9 hPa 0,0 l/m 0,0 km/h (0 Bft) S-SO 158 0 min 0,0 UV-I 2 W/m -4,0 C 4,0 km/h (1 Bft)
28.01.2023 17:01 -0,7 C -1,1 C 78 % 1028,8 hPa 0,0 l/m 1,3 km/h (1 Bft) S-SO 154 0 min 0,0 UV-I 2 W/m -4,0 C 5,0 km/h (1 Bft)
28.01.2023 17:00 -0,7 C -1,1 C 78 % 1028,8 hPa 0,0 l/m 1,0 km/h (0 Bft) S-SO 148 0 min 0,0 UV-I 2 W/m -4,0 C 5,0 km/h (1 Bft)
28.01.2023 16:59 -0,7 C -0,9 C 78 % 1028,8 hPa 0,0 l/m 2,9 km/h (1 Bft) S 188 0 min 0,0 UV-I 2 W/m -4,0 C 5,0 km/h (1 Bft)
28.01.2023 16:58 -0,7 C -0,9 C 78 % 1028,7 hPa 0,0 l/m 0,0 km/h (0 Bft) S-SW 194 0 min 0,0 UV-I 3 W/m -4,0 C 3,0 km/h (1 Bft)
28.01.2023 16:57 -0,7 C -0,9 C 78 % 1028,9 hPa 0,0 l/m 2,7 km/h (1 Bft) S-SW 193 0 min 0,0 UV-I 3 W/m -4,0 C 3,0 km/h (1 Bft)
28.01.2023 16:56 -0,7 C -0,9 C 78 % 1028,7 hPa 0,0 l/m 2,3 km/h (1 Bft) S 185 0 min 0,0 UV-I 3 W/m -4,0 C 4,0 km/h (1 Bft)
28.01.2023 16:55 -0,7 C -0,9 C 78 % 1028,6 hPa 0,0 l/m 1,0 km/h (0 Bft) S-SW 212 0 min 0,0 UV-I 4 W/m -4,0 C 4,0 km/h (1 Bft)
28.01.2023 16:54 -0,7 C -0,8 C 78 % 1028,6 hPa 0,0 l/m 1,0 km/h (0 Bft) S-SO 158 0 min 0,0 UV-I 3 W/m -4,0 C 4,0 km/h (1 Bft)
28.01.2023 16:53 -0,7 C -0,8 C 78 % 1028,7 hPa 0,0 l/m 1,3 km/h (1 Bft) S 171 0 min 0,0 UV-I 6 W/m -4,0 C 4,0 km/h (1 Bft)
28.01.2023 16:52 -0,7 C -0,8 C 78 % 1028,7 hPa 0,0 l/m 1,3 km/h (1 Bft) S 181 0 min 0,0 UV-I 4 W/m -4,0 C 4,0 km/h (1 Bft)
28.01.2023 16:51 -0,7 C -0,7 C 78 % 1028,6 hPa 0,0 l/m 2,3 km/h (1 Bft) S 177 0 min 0,0 UV-I 4 W/m -4,0 C 4,0 km/h (1 Bft)
28.01.2023 16:50 -0,7 C -0,6 C 78 % 1028,7 hPa 0,0 l/m 1,0 km/h (0 Bft) SO 141 0 min 0,0 UV-I 4 W/m -4,0 C 4,0 km/h (1 Bft)
28.01.2023 16:49 -0,7 C -0,5 C 78 % 1028,9 hPa 0,0 l/m 0,0 km/h (0 Bft) SO 132 0 min 0,0 UV-I 7 W/m -4,0 C 3,0 km/h (1 Bft)
28.01.2023 16:48 -0,7 C -0,5 C 78 % 1028,9 hPa 0,0 l/m 0,0 km/h (0 Bft) S 178 0 min 0,0 UV-I 4 W/m -4,0 C 4,0 km/h (1 Bft)
28.01.2023 16:47 -0,7 C -0,4 C 78 % 1028,9 hPa 0,0 l/m 1,3 km/h (1 Bft) SO 144 0 min 0,0 UV-I 6 W/m -4,0 C 4,0 km/h (1 Bft)
28.01.2023 16:46 -0,7 C -0,4 C 78 % 1028,9 hPa 0,0 l/m 1,0 km/h (0 Bft) S-SO 154 0 min 0,0 UV-I 4 W/m -4,0 C 4,0 km/h (1 Bft)
28.01.2023 16:45 -0,7 C -0,4 C 78 % 1028,9 hPa 0,0 l/m 1,0 km/h (0 Bft) N-NO 22 0 min 0,0 UV-I 6 W/m -4,0 C 4,0 km/h (1 Bft)
28.01.2023 16:44 -0,6 C -0,3 C 78 % 1028,9 hPa 0,0 l/m 0,0 km/h (0 Bft) NW 306 0 min 0,0 UV-I 7 W/m -3,9 C 4,0 km/h (1 Bft)
28.01.2023 16:43 -0,7 C -0,4 C 78 % 1028,7 hPa 0,0 l/m 1,0 km/h (0 Bft) S-SO 166 0 min 0,0 UV-I 7 W/m -4,0 C 5,0 km/h (1 Bft)
28.01.2023 16:42 -0,7 C -0,3 C 78 % 1028,9 hPa 0,0 l/m 0,0 km/h (0 Bft) W-NW 289 0 min 0,0 UV-I 8 W/m -4,0 C 5,0 km/h (1 Bft)
28.01.2023 16:41 -0,7 C -0,4 C 78 % 1029,0 hPa 0,0 l/m 1,0 km/h (0 Bft) SO 130 0 min 0,0 UV-I 8 W/m -4,0 C 4,0 km/h (1 Bft)
28.01.2023 16:40 -0,7 C -0,3 C 78 % 1029,0 hPa 0,0 l/m 0,0 km/h (0 Bft) N-NW 339 0 min 0,0 UV-I 9 W/m -4,0 C 5,0 km/h (1 Bft)
28.01.2023 16:39 -0,7 C -0,3 C 78 % 1029,2 hPa 0,0 l/m 0,0 km/h (0 Bft) S-SW 192 0 min 0,0 UV-I 8 W/m -4,0 C 5,0 km/h (1 Bft)
28.01.2023 16:38 -0,6 C -0,4 C 78 % 1028,9 hPa 0,0 l/m 0,0 km/h (0 Bft) O 80 0 min 0,0 UV-I 8 W/m -3,9 C 5,0 km/h (1 Bft)
28.01.2023 16:37 -0,7 C -0,4 C 78 % 1029,0 hPa 0,0 l/m 1,3 km/h (1 Bft) N-NW 327 0 min 0,0 UV-I 9 W/m -4,0 C 5,0 km/h (1 Bft)
28.01.2023 16:36 -0,7 C -0,4 C 78 % 1029,0 hPa 0,0 l/m 1,6 km/h (1 Bft) N-NW 335 0 min 0,0 UV-I 9 W/m -4,0 C 5,0 km/h (1 Bft)
28.01.2023 16:35 -0,7 C -0,4 C 78 % 1028,8 hPa 0,0 l/m 0,0 km/h (0 Bft) NO 40 0 min 0,0 UV-I 10 W/m -4,0 C 6,0 km/h (2 Bft)
28.01.2023 16:34 -0,6 C -0,4 C 78 % 1029,0 hPa 0,0 l/m 2,2 km/h (1 Bft) N 5 0 min 0,0 UV-I 9 W/m -3,9 C 6,0 km/h (2 Bft)
28.01.2023 16:33 -0,7 C -0,4 C 78 % 1029,0 hPa 0,0 l/m 2,0 km/h (1 Bft) N 3 0 min 0,0 UV-I 9 W/m -4,0 C 6,0 km/h (2 Bft)
28.01.2023 16:32 -0,6 C -0,4 C 78 % 1029,0 hPa 0,0 l/m 3,5 km/h (1 Bft) N 356 0 min 0,0 UV-I 9 W/m -3,9 C 6,0 km/h (2 Bft)
28.01.2023 16:31 -0,6 C -0,3 C 78 % 1029,2 hPa 0,0 l/m 0,0 km/h (0 Bft) NW 320 0 min 0,0 UV-I 10 W/m -3,9 C 6,0 km/h (2 Bft)
28.01.2023 16:30 -0,6 C -0,4 C 78 % 1028,8 hPa 0,0 l/m 2,9 km/h (1 Bft) N-NW 340 0 min 0,0 UV-I 12 W/m -3,9 C 6,0 km/h (2 Bft)
28.01.2023 16:29 -0,6 C -0,4 C 78 % 1028,9 hPa 0,0 l/m 1,4 km/h (1 Bft) N-NW 346 0 min 0,0 UV-I 12 W/m -3,9 C 6,0 km/h (2 Bft)
28.01.2023 16:28 -0,6 C -0,5 C 78 % 1028,9 hPa 0,0 l/m 1,4 km/h (1 Bft) N-NW 335 0 min 0,0 UV-I 13 W/m -3,9 C 5,0 km/h (1 Bft)
28.01.2023 16:27 -0,6 C -0,6 C 78 % 1028,9 hPa 0,0 l/m 0,0 km/h (0 Bft) O 88 0 min 0,0 UV-I 13 W/m -3,9 C 4,0 km/h (1 Bft)
28.01.2023 16:26 -0,6 C -0,6 C 77 % 1029,0 hPa 0,0 l/m 1,0 km/h (0 Bft) N 349 0 min 0,0 UV-I 14 W/m -4,1 C 4,0 km/h (1 Bft)
28.01.2023 16:25 -0,6 C -0,6 C 77 % 1029,0 hPa 0,0 l/m 0,0 km/h (0 Bft) O-SO 109 0 min 0,0 UV-I 15 W/m -4,1 C 4,0 km/h (1 Bft)
28.01.2023 16:24 -0,6 C -0,6 C 77 % 1029,0 hPa 0,0 l/m 2,5 km/h (1 Bft) S-SO 166 0 min 0,0 UV-I 17 W/m -4,1 C 4,0 km/h (1 Bft)
28.01.2023 16:23 -0,6 C -0,8 C 77 % 1028,7 hPa 0,0 l/m 0,0 km/h (0 Bft) SO 126 0 min 0,0 UV-I 19 W/m -4,1 C 4,0 km/h (1 Bft)
28.01.2023 16:22 -0,6 C -0,9 C 77 % 1028,8 hPa 0,0 l/m 0,0 km/h (0 Bft) O 83 0 min 0,0 UV-I 22 W/m -4,1 C 4,0 km/h (1 Bft)
28.01.2023 16:21 -0,6 C -0,9 C 77 % 1028,8 hPa 0,0 l/m 1,4 km/h (1 Bft) SO 124 0 min 0,0 UV-I 23 W/m -4,1 C 4,0 km/h (1 Bft)
28.01.2023 16:20 -0,6 C -0,7 C 77 % 1028,8 hPa 0,0 l/m 1,4 km/h (1 Bft) S-SO 155 0 min 0,0 UV-I 23 W/m -4,1 C 4,0 km/h (1 Bft)
28.01.2023 16:19 -0,6 C -0,7 C 77 % 1028,8 hPa 0,0 l/m 0,0 km/h (0 Bft) W 264 0 min 0,0 UV-I 24 W/m -4,1 C 4,0 km/h (1 Bft)
28.01.2023 16:18 -0,6 C -0,7 C 77 % 1029,0 hPa 0,0 l/m 0,0 km/h (0 Bft) O-SO 107 0 min 0,0 UV-I 25 W/m -4,1 C 3,0 km/h (1 Bft)
28.01.2023 16:17 -0,6 C -0,8 C 77 % 1028,9 hPa 0,0 l/m 0,0 km/h (0 Bft) W 263 0 min 0,0 UV-I 24 W/m -4,1 C 4,0 km/h (1 Bft)
28.01.2023 16:16 -0,6 C -0,8 C 77 % 1028,9 hPa 0,0 l/m 2,3 km/h (1 Bft) N 358 0 min 0,0 UV-I 25 W/m -4,1 C 4,0 km/h (1 Bft)
28.01.2023 16:15 -0,6 C -1,0 C 77 % 1029,0 hPa 0,0 l/m 1,0 km/h (0 Bft) O-NO 71 0 min 0,0 UV-I 26 W/m -4,1 C 4,0 km/h (1 Bft)
28.01.2023 16:14 -0,6 C -0,8 C 77 % 1029,1 hPa 0,0 l/m 0,0 km/h (0 Bft) O-SO 111 0 min 0,0 UV-I 25 W/m -4,1 C 4,0 km/h (1 Bft)
28.01.2023 16:13 -0,6 C -0,7 C 77 % 1028,9 hPa 0,0 l/m 1,3 km/h (1 Bft) S-SO 152 0 min 0,0 UV-I 26 W/m -4,1 C 3,0 km/h (1 Bft)
28.01.2023 16:12 -0,6 C -0,7 C 77 % 1028,9 hPa 0,0 l/m 0,0 km/h (0 Bft) S 174 0 min 0,0 UV-I 26 W/m -4,1 C 5,0 km/h (1 Bft)
28.01.2023 16:11 -0,6 C -0,9 C 77 % 1029,0 hPa 0,0 l/m 0,0 km/h (0 Bft) N 7 0 min 0,0 UV-I 26 W/m -4,1 C 5,0 km/h (1 Bft)
28.01.2023 16:10 -0,5 C -0,8 C 77 % 1029,0 hPa 0,0 l/m 2,7 km/h (1 Bft) S-SO 152 0 min 0,0 UV-I 28 W/m -4,0 C 5,0 km/h (1 Bft)
28.01.2023 16:09 -0,6 C -0,9 C 77 % 1028,9 hPa 0,0 l/m 0,0 km/h (0 Bft) W-NW 299 0 min 0,0 UV-I 29 W/m -4,1 C 4,0 km/h (1 Bft)
28.01.2023 16:08 -0,5 C -0,9 C 77 % 1028,8 hPa 0,0 l/m 0,0 km/h (0 Bft) O-NO 63 0 min 0,0 UV-I 29 W/m -4,0 C 4,0 km/h (1 Bft)
28.01.2023 16:07 -0,5 C -0,9 C 76 % 1029,0 hPa 0,0 l/m 0,0 km/h (0 Bft) N-NW 347 0 min 0,0 UV-I 31 W/m -4,2 C 4,0 km/h (1 Bft)
28.01.2023 16:06 -0,5 C -0,9 C 76 % 1028,9 hPa 0,0 l/m 0,0 km/h (0 Bft) N 358 0 min 0,0 UV-I 31 W/m -4,2 C 4,0 km/h (1 Bft)
28.01.2023 16:05 -0,5 C -1,0 C 76 % 1028,9 hPa 0,0 l/m 0,0 km/h (0 Bft) N-NW 342 0 min 0,0 UV-I 34 W/m -4,2 C 4,0 km/h (1 Bft)
28.01.2023 16:04 -0,5 C -1,0 C 76 % 1028,9 hPa 0,0 l/m 0,0 km/h (0 Bft) N-NW 329 0 min 0,0 UV-I 34 W/m -4,2 C 7,0 km/h (2 Bft)
28.01.2023 16:03 -0,5 C -1,1 C 76 % 1028,9 hPa 0,0 l/m 1,4 km/h (1 Bft) N-NW 330 0 min 0,0 UV-I 35 W/m -4,2 C 7,0 km/h (2 Bft)
28.01.2023 16:02 -0,5 C -1,1 C 76 % 1028,7 hPa 0,0 l/m 3,3 km/h (1 Bft) N-NW 346 0 min 0,0 UV-I 36 W/m -4,2 C 7,0 km/h (2 Bft)
28.01.2023 16:01 -0,5 C -1,1 C 76 % 1028,8 hPa 0,0 l/m 1,0 km/h (0 Bft) N-NW 347 0 min 0,0 UV-I 37 W/m -4,2 C 4,0 km/h (1 Bft)
28.01.2023 16:00 -0,4 C -1,1 C 76 % 1028,6 hPa 0,0 l/m 1,0 km/h (0 Bft) O 81 0 min 0,0 UV-I 39 W/m -4,1 C 3,0 km/h (1 Bft)
28.01.2023 15:59 -0,4 C -1,0 C 76 % 1028,9 hPa 0,0 l/m 2,1 km/h (1 Bft) O-NO 74 0 min 0,0 UV-I 39 W/m -4,1 C 3,0 km/h (1 Bft)
28.01.2023 15:58 -0,4 C -1,1 C 76 % 1028,7 hPa 0,0 l/m 0,0 km/h (0 Bft) NO 54 0 min 0,0 UV-I 39 W/m -4,1 C 3,0 km/h (1 Bft)
28.01.2023 15:57 -0,4 C -1,1 C 76 % 1028,7 hPa 0,0 l/m 0,0 km/h (0 Bft) W 280 0 min 0,0 UV-I 39 W/m -4,1 C 4,0 km/h (1 Bft)
28.01.2023 15:56 -0,4 C -1,1 C 76 % 1028,7 hPa 0,0 l/m 0,0 km/h (0 Bft) N 360 0 min 0,0 UV-I 39 W/m -4,1 C 4,0 km/h (1 Bft)
28.01.2023 15:55 -0,4 C -1,0 C 76 % 1028,8 hPa 0,0 l/m 0,0 km/h (0 Bft) N-NO 31 0 min 0,0 UV-I 41 W/m -4,1 C 4,0 km/h (1 Bft)
28.01.2023 15:54 -0,3 C -1,0 C 76 % 1028,8 hPa 0,0 l/m 0,0 km/h (0 Bft) O 86 0 min 0,0 UV-I 40 W/m -4,0 C 4,0 km/h (1 Bft)
28.01.2023 15:53 -0,4 C -1,0 C 76 % 1028,7 hPa 0,0 l/m 1,4 km/h (1 Bft) O 93 0 min 0,0 UV-I 42 W/m -4,1 C 5,0 km/h (1 Bft)
28.01.2023 15:52 -0,3 C -1,0 C 76 % 1028,7 hPa 0,0 l/m 1,0 km/h (0 Bft) NO 38 0 min 0,0 UV-I 44 W/m -4,0 C 5,0 km/h (1 Bft)
28.01.2023 15:51 -0,3 C -1,3 C 76 % 1028,7 hPa 0,0 l/m 2,1 km/h (1 Bft) O-NO 62 0 min 0,0 UV-I 44 W/m -4,0 C 5,0 km/h (1 Bft)
28.01.2023 15:50 -0,3 C -1,3 C 76 % 1028,7 hPa 0,0 l/m 1,3 km/h (1 Bft) NO 48 0 min 0,0 UV-I 42 W/m -4,0 C 3,0 km/h (1 Bft)
28.01.2023 15:49 -0,3 C -1,1 C 76 % 1028,6 hPa 0,0 l/m 0,0 km/h (0 Bft) O 98 0 min 0,0 UV-I 42 W/m -4,0 C 3,0 km/h (1 Bft)
28.01.2023 15:48 -0,3 C -1,1 C 76 % 1028,6 hPa 0,0 l/m 0,0 km/h (0 Bft) O-SO 112 0 min 0,0 UV-I 42 W/m -4,0 C 3,0 km/h (1 Bft)
28.01.2023 15:47 -0,3 C -0,9 C 76 % 1028,8 hPa 0,0 l/m 0,0 km/h (0 Bft) O 90 0 min 0,0 UV-I 42 W/m -4,0 C 4,0 km/h (1 Bft)
28.01.2023 15:46 -0,3 C -0,7 C 76 % 1029,0 hPa 0,0 l/m 1,0 km/h (0 Bft) N 11 0 min 0,0 UV-I 41 W/m -4,0 C 8,0 km/h (2 Bft)
28.01.2023 15:45 -0,3 C -0,7 C 76 % 1029,0 hPa 0,0 l/m 2,5 km/h (1 Bft) N 1 0 min 0,0 UV-I 44 W/m -4,0 C 8,0 km/h (2 Bft)
28.01.2023 15:44 -0,3 C -0,8 C 76 % 1028,7 hPa 0,0 l/m 4,1 km/h (1 Bft) N 352 0 min 0,0 UV-I 46 W/m -4,0 C 8,0 km/h (2 Bft)
28.01.2023 15:43 -0,3 C -0,8 C 76 % 1028,9 hPa 0,0 l/m 1,0 km/h (0 Bft) N-NW 346 0 min 0,0 UV-I 47 W/m -4,0 C 6,0 km/h (2 Bft)
28.01.2023 15:42 -0,3 C -0,8 C 76 % 1028,8 hPa 0,0 l/m 0,0 km/h (0 Bft) O 95 0 min 0,0 UV-I 48 W/m -4,0 C 5,0 km/h (1 Bft)
28.01.2023 15:41 -0,2 C -0,8 C 76 % 1028,7 hPa 0,0 l/m 0,0 km/h (0 Bft) O-SO 111 0 min 0,0 UV-I 52 W/m -3,9 C 5,0 km/h (1 Bft)
28.01.2023 15:40 -0,3 C -0,7 C 76 % 1028,7 hPa 0,0 l/m 0,0 km/h (0 Bft) SO 138 0 min 0,0 UV-I 55 W/m -4,0 C 5,0 km/h (1 Bft)
28.01.2023 15:39 -0,2 C -0,7 C 76 % 1028,6 hPa 0,0 l/m 2,3 km/h (1 Bft) O 100 0 min 0,0 UV-I 58 W/m -3,9 C 5,0 km/h (1 Bft)
28.01.2023 15:38 -0,2 C -0,7 C 76 % 1028,6 hPa 0,0 l/m 1,3 km/h (1 Bft) SO 146 1 min 0,0 UV-I 81 W/m -3,9 C 5,0 km/h (1 Bft)
28.01.2023 15:37 -0,2 C -0,9 C 76 % 1028,8 hPa 0,0 l/m 1,0 km/h (0 Bft) O 95 1 min 0,0 UV-I 86 W/m -3,9 C 5,0 km/h (1 Bft)
28.01.2023 15:36 -0,2 C -0,8 C 76 % 1028,8 hPa 0,0 l/m 3,5 km/h (1 Bft) O-SO 102 1 min 0,0 UV-I 69 W/m -3,9 C 5,0 km/h (1 Bft)
28.01.2023 15:35 -0,2 C -0,9 C 76 % 1028,7 hPa 0,0 l/m 2,3 km/h (1 Bft) O-SO 105 1 min 0,0 UV-I 79 W/m -3,9 C 4,0 km/h (1 Bft)
28.01.2023 15:34 -0,2 C -0,8 C 76 % 1028,6 hPa 0,0 l/m 0,0 km/h (0 Bft) O 99 1 min 0,0 UV-I 81 W/m -3,9 C 5,0 km/h (1 Bft)
28.01.2023 15:33 -0,2 C -0,7 C 76 % 1028,6 hPa 0,0 l/m 3,5 km/h (1 Bft) SO 128 0 min 0,0 UV-I 62 W/m -3,9 C 5,0 km/h (1 Bft)
28.01.2023 15:32 -0,2 C -0,7 C 76 % 1028,6 hPa 0,0 l/m 2,6 km/h (1 Bft) SO 125 0 min 0,0 UV-I 57 W/m -3,9 C 5,0 km/h (1 Bft)
28.01.2023 15:31 -0,2 C -0,7 C 76 % 1028,6 hPa 0,0 l/m 2,5 km/h (1 Bft) O 94 0 min 0,0 UV-I 53 W/m -3,9 C 5,0 km/h (1 Bft)
28.01.2023 15:30 -0,1 C -0,7 C 76 % 1028,6 hPa 0,0 l/m 0,0 km/h (0 Bft) O-NO 78 0 min 0,0 UV-I 56 W/m -3,8 C 5,0 km/h (1 Bft)
28.01.2023 15:29 -0,1 C -0,6 C 76 % 1028,7 hPa 0,0 l/m 2,9 km/h (1 Bft) O-SO 109 0 min 0,0 UV-I 56 W/m -3,8 C 5,0 km/h (1 Bft)
28.01.2023 15:28 -0,1 C -0,7 C 76 % 1028,6 hPa 0,0 l/m 1,4 km/h (1 Bft) O 100 0 min 0,0 UV-I 57 W/m -3,8 C 5,0 km/h (1 Bft)
28.01.2023 15:27 -0,1 C -0,6 C 76 % 1028,6 hPa 0,0 l/m 3,5 km/h (1 Bft) NO 55 0 min 0,0 UV-I 58 W/m -3,8 C 5,0 km/h (1 Bft)
28.01.2023 15:26 -0,1 C -0,6 C 76 % 1028,7 hPa 0,0 l/m 0,0 km/h (0 Bft) N 357 0 min 0,0 UV-I 58 W/m -3,8 C 6,0 km/h (2 Bft)
28.01.2023 15:25 0,0 C -0,5 C 76 % 1028,6 hPa 0,0 l/m 2,6 km/h (1 Bft) SO 135 0 min 0,0 UV-I 61 W/m -3,7 C 8,0 km/h (2 Bft)
28.01.2023 15:24 0,0 C -0,4 C 76 % 1028,6 hPa 0,0 l/m 2,9 km/h (1 Bft) SO 141 0 min 0,0 UV-I 61 W/m -3,7 C 9,0 km/h (2 Bft)
28.01.2023 15:23 0,0 C -0,3 C 76 % 1028,3 hPa 0,0 l/m 5,1 km/h (1 Bft) SO 144 0 min 0,0 UV-I 58 W/m -3,7 C 11,0 km/h (2 Bft)
28.01.2023 15:22 0,0 C -0,1 C 76 % 1028,4 hPa 0,0 l/m 6,7 km/h (2 Bft) S-SO 148 0 min 0,0 UV-I 58 W/m -3,7 C 11,0 km/h (2 Bft)
28.01.2023 15:21 0,0 C -0,1 C 76 % 1028,3 hPa 0,0 l/m 7,9 km/h (2 Bft) SO 143 0 min 0,0 UV-I 61 W/m -3,7 C 10,0 km/h (2 Bft)
28.01.2023 15:20 0,0 C 0,0 C 76 % 1028,4 hPa 0,0 l/m 5,2 km/h (1 Bft) SO 143 0 min 0,0 UV-I 61 W/m -3,7 C 7,0 km/h (2 Bft)
28.01.2023 15:19 0,0 C 0,2 C 76 % 1028,5 hPa 0,0 l/m 3,1 km/h (1 Bft) O-SO 117 0 min 0,0 UV-I 62 W/m -3,7 C 5,0 km/h (1 Bft)
28.01.2023 15:18 0,1 C 0,2 C 76 % 1028,6 hPa 0,0 l/m 1,4 km/h (1 Bft) O-SO 114 0 min 0,0 UV-I 63 W/m -3,6 C 5,0 km/h (1 Bft)
28.01.2023 15:17 0,1 C 0,3 C 76 % 1028,4 hPa 0,0 l/m 2,6 km/h (1 Bft) O-SO 111 0 min 0,0 UV-I 63 W/m -3,6 C 4,0 km/h (1 Bft)
28.01.2023 15:16 0,1 C 0,3 C 76 % 1028,4 hPa 0,0 l/m 1,3 km/h (1 Bft) O-SO 118 0 min 0,0 UV-I 63 W/m -3,6 C 4,0 km/h (1 Bft)
28.01.2023 15:15 0,1 C 0,3 C 76 % 1028,7 hPa 0,0 l/m 1,3 km/h (1 Bft) SO 124 0 min 0,0 UV-I 66 W/m -3,6 C 3,0 km/h (1 Bft)
28.01.2023 15:14 0,1 C 0,4 C 76 % 1028,5 hPa 0,0 l/m 1,4 km/h (1 Bft) O-SO 120 0 min 0,0 UV-I 66 W/m -3,6 C 5,0 km/h (1 Bft)
28.01.2023 15:13 0,1 C 0,4 C 76 % 1028,4 hPa 0,0 l/m 1,3 km/h (1 Bft) S-SO 148 0 min 0,0 UV-I 64 W/m -3,6 C 5,0 km/h (1 Bft)
28.01.2023 15:12 0,1 C 0,4 C 76 % 1028,5 hPa 0,0 l/m 3,5 km/h (1 Bft) O-SO 109 0 min 0,0 UV-I 66 W/m -3,6 C 5,0 km/h (1 Bft)
28.01.2023 15:11 0,1 C 0,5 C 76 % 1028,4 hPa 0,0 l/m 1,4 km/h (1 Bft) O-SO 107 0 min 0,0 UV-I 68 W/m -3,6 C 7,0 km/h (2 Bft)
28.01.2023 15:10 0,1 C 0,8 C 76 % 1028,4 hPa 0,0 l/m 2,7 km/h (1 Bft) O-NO 74 0 min 0,0 UV-I 68 W/m -3,6 C 7,0 km/h (2 Bft)
28.01.2023 15:09 0,1 C 0,8 C 76 % 1028,5 hPa 0,0 l/m 3,8 km/h (1 Bft) O-SO 117 0 min 0,0 UV-I 68 W/m -3,6 C 7,0 km/h (2 Bft)
28.01.2023 15:08 0,1 C 0,8 C 77 % 1028,5 hPa 0,0 l/m 5,4 km/h (1 Bft) O-SO 119 0 min 0,0 UV-I 68 W/m -3,4 C 7,0 km/h (2 Bft)
28.01.2023 15:07 0,1 C 0,9 C 76 % 1028,6 hPa 0,0 l/m 2,3 km/h (1 Bft) O-SO 113 0 min 0,0 UV-I 67 W/m -3,6 C 6,0 km/h (2 Bft)
28.01.2023 15:06 0,1 C 1,1 C 76 % 1028,6 hPa 0,0 l/m 3,5 km/h (1 Bft) O-SO 111 0 min 0,0 UV-I 67 W/m -3,6 C 6,0 km/h (2 Bft)
28.01.2023 15:05 0,1 C 1,0 C 76 % 1028,7 hPa 0,0 l/m 1,6 km/h (1 Bft) SO 124 0 min 0,0 UV-I 66 W/m -3,6 C 6,0 km/h (2 Bft)
28.01.2023 15:04 0,1 C 1,2 C 76 % 1028,6 hPa 0,0 l/m 4,0 km/h (1 Bft) SO 128 0 min 0,0 UV-I 66 W/m -3,6 C 6,0 km/h (2 Bft)
28.01.2023 15:03 0,1 C 1,1 C 77 % 1028,6 hPa 0,0 l/m 2,5 km/h (1 Bft) SO 125 0 min 0,0 UV-I 66 W/m -3,4 C 5,0 km/h (1 Bft)
28.01.2023 15:02 0,1 C 1,2 C 76 % 1028,5 hPa 0,0 l/m 0,0 km/h (0 Bft) SO 140 0 min 0,0 UV-I 67 W/m -3,6 C 5,0 km/h (1 Bft)
28.01.2023 15:01 0,1 C 1,3 C 76 % 1028,7 hPa 0,0 l/m 0,0 km/h (0 Bft) SO 138 0 min 0,0 UV-I 68 W/m -3,6 C 5,0 km/h (1 Bft)
28.01.2023 15:00 0,1 C 1,3 C 76 % 1028,7 hPa 0,0 l/m 1,6 km/h (1 Bft) SO 140 0 min 0,0 UV-I 68 W/m -3,6 C 5,0 km/h (1 Bft)
28.01.2023 14:59 0,1 C 1,2 C 76 % 1028,9 hPa 0,0 l/m 1,6 km/h (1 Bft) O-NO 76 0 min 0,0 UV-I 69 W/m -3,6 C 5,0 km/h (1 Bft)
28.01.2023 14:58 0,0 C 1,0 C 76 % 1028,8 hPa 0,0 l/m 1,0 km/h (0 Bft) O-SO 106 0 min 0,0 UV-I 70 W/m -3,7 C 6,0 km/h (2 Bft)
28.01.2023 14:57 0,0 C 1,0 C 76 % 1028,6 hPa 0,0 l/m 0,0 km/h (0 Bft) O-NO 73 0 min 0,0 UV-I 70 W/m -3,7 C 6,0 km/h (2 Bft)
28.01.2023 14:56 0,0 C 1,0 C 76 % 1028,8 hPa 0,0 l/m 3,6 km/h (1 Bft) SO 129 0 min 0,0 UV-I 70 W/m -3,7 C 6,0 km/h (2 Bft)
28.01.2023 14:55 0,0 C 1,0 C 76 % 1028,8 hPa 0,0 l/m 1,0 km/h (0 Bft) O 84 0 min 0,0 UV-I 69 W/m -3,7 C 5,0 km/h (1 Bft)
28.01.2023 14:54 0,0 C 1,0 C 76 % 1028,7 hPa 0,0 l/m 2,3 km/h (1 Bft) SO 126 0 min 0,0 UV-I 67 W/m -3,7 C 5,0 km/h (1 Bft)
28.01.2023 14:53 0,1 C 1,0 C 77 % 1028,9 hPa 0,0 l/m 2,9 km/h (1 Bft) O-SO 119 0 min 0,0 UV-I 66 W/m -3,4 C 5,0 km/h (1 Bft)
28.01.2023 14:52 0,0 C 1,0 C 77 % 1028,9 hPa 0,0 l/m 2,3 km/h (1 Bft) O-NO 75 0 min 0,0 UV-I 64 W/m -3,5 C 5,0 km/h (1 Bft)
28.01.2023 14:51 0,1 C 1,2 C 77 % 1028,9 hPa 0,0 l/m 2,2 km/h (1 Bft) O 98 0 min 0,0 UV-I 64 W/m -3,4 C 5,0 km/h (1 Bft)
28.01.2023 14:50 0,1 C 1,0 C 77 % 1028,9 hPa 0,0 l/m 2,7 km/h (1 Bft) O-NO 77 0 min 0,0 UV-I 64 W/m -3,4 C 5,0 km/h (1 Bft)
28.01.2023 14:49 0,0 C 1,0 C 77 % 1028,7 hPa 0,0 l/m 2,3 km/h (1 Bft) O-SO 103 0 min 0,0 UV-I 66 W/m -3,5 C 5,0 km/h (1 Bft)
28.01.2023 14:48 0,0 C 1,1 C 77 % 1028,9 hPa 0,0 l/m 2,9 km/h (1 Bft) O 89 0 min 0,0 UV-I 64 W/m -3,5 C 5,0 km/h (1 Bft)
28.01.2023 14:47 0,0 C 1,0 C 77 % 1028,9 hPa 0,0 l/m 0,0 km/h (0 Bft) SO 124 0 min 0,0 UV-I 63 W/m -3,5 C 5,0 km/h (1 Bft)
28.01.2023 14:46 0,0 C 1,0 C 77 % 1028,8 hPa 0,0 l/m 1,4 km/h (1 Bft) O 89 0 min 0,0 UV-I 59 W/m -3,5 C 9,0 km/h (2 Bft)
28.01.2023 14:45 0,0 C 1,0 C 77 % 1028,9 hPa 0,0 l/m 2,3 km/h (1 Bft) O 82 0 min 0,0 UV-I 57 W/m -3,5 C 9,0 km/h (2 Bft)
28.01.2023 14:44 0,0 C 1,0 C 77 % 1028,9 hPa 0,0 l/m 3,5 km/h (1 Bft) O-SO 111 0 min 0,0 UV-I 57 W/m -3,5 C 9,0 km/h (2 Bft)
28.01.2023 14:43 0,0 C 0,9 C 76 % 1029,0 hPa 0,0 l/m 4,3 km/h (1 Bft) O-SO 113 0 min 0,0 UV-I 56 W/m -3,7 C 9,0 km/h (2 Bft)
28.01.2023 14:42 0,0 C 0,8 C 76 % 1029,2 hPa 0,0 l/m 3,3 km/h (1 Bft) NO 51 0 min 0,0 UV-I 57 W/m -3,7 C 8,0 km/h (2 Bft)
28.01.2023 14:41 0,0 C 0,8 C 77 % 1029,0 hPa 0,0 l/m 1,4 km/h (1 Bft) O 94 0 min 0,0 UV-I 61 W/m -3,5 C 8,0 km/h (2 Bft)
28.01.2023 14:40 0,0 C 0,8 C 77 % 1029,1 hPa 0,0 l/m 3,1 km/h (1 Bft) O 94 0 min 0,0 UV-I 63 W/m -3,5 C 9,0 km/h (2 Bft)
28.01.2023 14:39 0,0 C 0,9 C 77 % 1029,2 hPa 0,0 l/m 5,4 km/h (1 Bft) NO 49 0 min 0,0 UV-I 66 W/m -3,5 C 9,0 km/h (2 Bft)
28.01.2023 14:38 0,0 C 0,9 C 77 % 1029,2 hPa 0,0 l/m 2,5 km/h (1 Bft) N-NO 14 0 min 0,0 UV-I 66 W/m -3,5 C 7,0 km/h (2 Bft)
28.01.2023 14:37 0,0 C 0,9 C 77 % 1028,8 hPa 0,0 l/m 1,6 km/h (1 Bft) W-NW 297 0 min 0,0 UV-I 66 W/m -3,5 C 7,0 km/h (2 Bft)
28.01.2023 14:36 0,1 C 1,0 C 77 % 1028,8 hPa 0,0 l/m 2,0 km/h (1 Bft) W-NW 293 0 min 0,0 UV-I 64 W/m -3,4 C 6,0 km/h (2 Bft)
28.01.2023 14:35 0,0 C 1,0 C 77 % 1029,0 hPa 0,0 l/m 2,7 km/h (1 Bft) NO 53 0 min 0,0 UV-I 64 W/m -3,5 C 9,0 km/h (2 Bft)
28.01.2023 14:34 0,0 C 1,0 C 77 % 1029,1 hPa 0,0 l/m 4,5 km/h (1 Bft) N 4 0 min 0,0 UV-I 67 W/m -3,5 C 17,0 km/h (3 Bft)
28.01.2023 14:33 0,0 C 0,9 C 77 % 1029,3 hPa 0,0 l/m 2,3 km/h (1 Bft) N-NO 30 0 min 0,0 UV-I 67 W/m -3,5 C 17,0 km/h (3 Bft)
28.01.2023 14:32 0,0 C 0,8 C 77 % 1029,3 hPa 0,0 l/m 3,5 km/h (1 Bft) N-NW 345 0 min 0,0 UV-I 66 W/m -3,5 C 11,0 km/h (2 Bft)
28.01.2023 14:31 0,0 C 0,9 C 77 % 1029,1 hPa 0,0 l/m 5,5 km/h (1 Bft) N-NO 23 0 min 0,0 UV-I 66 W/m -3,5 C 11,0 km/h (2 Bft)
28.01.2023 14:30 0,0 C 1,0 C 77 % 1029,0 hPa 0,0 l/m 5,2 km/h (1 Bft) N-NO 15 0 min 0,0 UV-I 66 W/m -3,5 C 11,0 km/h (2 Bft)
28.01.2023 14:29 0,0 C 1,0 C 78 % 1029,0 hPa 0,0 l/m 4,3 km/h (1 Bft) N 351 0 min 0,0 UV-I 67 W/m -3,4 C 11,0 km/h (2 Bft)
28.01.2023 14:28 0,0 C 1,0 C 78 % 1029,0 hPa 0,0 l/m 3,5 km/h (1 Bft) N 352 0 min 0,0 UV-I 66 W/m -3,4 C 11,0 km/h (2 Bft)
28.01.2023 14:27 0,0 C 1,0 C 78 % 1028,9 hPa 0,0 l/m 4,3 km/h (1 Bft) N-NW 347 0 min 0,0 UV-I 67 W/m -3,4 C 9,0 km/h (2 Bft)
28.01.2023 14:26 0,0 C 1,0 C 78 % 1029,1 hPa 0,0 l/m 1,0 km/h (0 Bft) NO 38 0 min 0,0 UV-I 63 W/m -3,4 C 12,0 km/h (2 Bft)
28.01.2023 14:25 0,0 C 0,9 C 78 % 1028,9 hPa 0,0 l/m 4,2 km/h (1 Bft) O-SO 109 0 min 0,0 UV-I 61 W/m -3,4 C 12,0 km/h (2 Bft)
28.01.2023 14:24 0,0 C 1,0 C 78 % 1028,9 hPa 0,0 l/m 4,3 km/h (1 Bft) NO 38 0 min 0,0 UV-I 59 W/m -3,4 C 12,0 km/h (2 Bft)
28.01.2023 14:23 0,0 C 0,9 C 78 % 1029,1 hPa 0,0 l/m 2,7 km/h (1 Bft) NO 53 0 min 0,0 UV-I 59 W/m -3,4 C 7,0 km/h (2 Bft)
28.01.2023 14:22 0,0 C 0,9 C 78 % 1028,9 hPa 0,0 l/m 3,1 km/h (1 Bft) NO 39 0 min 0,0 UV-I 58 W/m -3,4 C 12,0 km/h (2 Bft)
28.01.2023 14:21 0,0 C 0,8 C 78 % 1029,1 hPa 0,0 l/m 4,1 km/h (1 Bft) N 2 0 min 0,0 UV-I 58 W/m -3,4 C 12,0 km/h (2 Bft)
28.01.2023 14:20 0,0 C 0,8 C 78 % 1029,1 hPa 0,0 l/m 4,1 km/h (1 Bft) N 359 0 min 0,0 UV-I 57 W/m -3,4 C 12,0 km/h (2 Bft)
28.01.2023 14:19 0,0 C 0,9 C 78 % 1029,1 hPa 0,0 l/m 6,0 km/h (2 Bft) N 351 0 min 0,0 UV-I 55 W/m -3,4 C 10,0 km/h (2 Bft)
28.01.2023 14:18 0,0 C 1,0 C 78 % 1029,2 hPa 0,0 l/m 3,5 km/h (1 Bft) N-NW 338 0 min 0,0 UV-I 53 W/m -3,4 C 10,0 km/h (2 Bft)
28.01.2023 14:17 0,0 C 0,9 C 78 % 1029,2 hPa 0,0 l/m 0,0 km/h (0 Bft) S-SW 198 0 min 0,0 UV-I 55 W/m -3,4 C 6,0 km/h (2 Bft)
28.01.2023 14:16 0,0 C 1,0 C 78 % 1029,0 hPa 0,0 l/m 2,7 km/h (1 Bft) NW 316 0 min 0,0 UV-I 53 W/m -3,4 C 8,0 km/h (2 Bft)
28.01.2023 14:15 0,0 C 0,8 C 78 % 1029,0 hPa 0,0 l/m 1,6 km/h (1 Bft) N-NO 28 0 min 0,0 UV-I 55 W/m -3,4 C 10,0 km/h (2 Bft)
28.01.2023 14:14 0,0 C 0,9 C 78 % 1029,0 hPa 0,0 l/m 3,6 km/h (1 Bft) N 1 0 min 0,0 UV-I 55 W/m -3,4 C 10,0 km/h (2 Bft)
28.01.2023 14:13 0,0 C 0,8 C 78 % 1029,3 hPa 0,0 l/m 4,7 km/h (1 Bft) N 354 0 min 0,0 UV-I 51 W/m -3,4 C 9,0 km/h (2 Bft)
28.01.2023 14:12 0,0 C 0,8 C 78 % 1029,3 hPa 0,0 l/m 5,7 km/h (1 Bft) N 1 0 min 0,0 UV-I 50 W/m -3,4 C 9,0 km/h (2 Bft)
28.01.2023 14:11 0,0 C 0,8 C 78 % 1028,9 hPa 0,0 l/m 1,3 km/h (1 Bft) N 4 0 min 0,0 UV-I 50 W/m -3,4 C 8,0 km/h (2 Bft)
28.01.2023 14:10 0,0 C 0,7 C 78 % 1029,0 hPa 0,0 l/m 0,0 km/h (0 Bft) NO 52 0 min 0,0 UV-I 50 W/m -3,4 C 7,0 km/h (2 Bft)
28.01.2023 14:09 0,0 C 0,7 C 78 % 1029,0 hPa 0,0 l/m 0,0 km/h (0 Bft) O-SO 102 0 min 0,0 UV-I 48 W/m -3,4 C 9,0 km/h (2 Bft)
28.01.2023 14:08 0,0 C 0,7 C 78 % 1029,2 hPa 0,0 l/m 4,5 km/h (1 Bft) S 172 0 min 0,0 UV-I 48 W/m -3,4 C 9,0 km/h (2 Bft)
28.01.2023 14:07 0,0 C 0,7 C 78 % 1029,2 hPa 0,0 l/m 3,5 km/h (1 Bft) NW 324 0 min 0,0 UV-I 46 W/m -3,4 C 9,0 km/h (2 Bft)
28.01.2023 14:06 0,0 C 0,6 C 78 % 1029,2 hPa 0,0 l/m 4,3 km/h (1 Bft) N 354 0 min 0,0 UV-I 45 W/m -3,4 C 9,0 km/h (2 Bft)
28.01.2023 14:05 0,0 C 0,6 C 77 % 1029,1 hPa 0,0 l/m 2,6 km/h (1 Bft) NW 319 0 min 0,0 UV-I 45 W/m -3,5 C 9,0 km/h (2 Bft)
28.01.2023 14:04 0,0 C 0,6 C 77 % 1029,1 hPa 0,0 l/m 2,7 km/h (1 Bft) NW 325 0 min 0,0 UV-I 45 W/m -3,5 C 9,0 km/h (2 Bft)
28.01.2023 14:03 0,0 C 0,6 C 77 % 1029,2 hPa 0,0 l/m 3,3 km/h (1 Bft) NW 307 0 min 0,0 UV-I 45 W/m -3,5 C 10,0 km/h (2 Bft)
28.01.2023 14:02 0,0 C 0,5 C 77 % 1029,2 hPa 0,0 l/m 3,1 km/h (1 Bft) W 266 0 min 0,0 UV-I 45 W/m -3,5 C 10,0 km/h (2 Bft)
28.01.2023 14:01 0,0 C 0,6 C 77 % 1029,2 hPa 0,0 l/m 6,0 km/h (2 Bft) W-NW 282 0 min 0,0 UV-I 45 W/m -3,5 C 10,0 km/h (2 Bft)
28.01.2023 14:00 0,0 C 0,6 C 77 % 1029,2 hPa 0,0 l/m 4,1 km/h (1 Bft) N 355 0 min 0,0 UV-I 45 W/m -3,5 C 7,0 km/h (2 Bft)
28.01.2023 13:59 0,0 C 0,7 C 77 % 1029,2 hPa 0,0 l/m 3,2 km/h (1 Bft) NO 54 0 min 0,0 UV-I 45 W/m -3,5 C 10,0 km/h (2 Bft)
28.01.2023 13:58 0,1 C 0,7 C 77 % 1029,5 hPa 0,0 l/m 1,6 km/h (1 Bft) N 4 0 min 0,0 UV-I 47 W/m -3,4 C 11,0 km/h (2 Bft)
28.01.2023 13:57 0,1 C 0,7 C 76 % 1029,3 hPa 0,0 l/m 5,5 km/h (1 Bft) N 353 0 min 0,0 UV-I 48 W/m -3,6 C 13,0 km/h (3 Bft)
28.01.2023 13:56 0,1 C 0,6 C 76 % 1029,3 hPa 0,0 l/m 4,3 km/h (1 Bft) N-NW 337 0 min 0,0 UV-I 48 W/m -3,6 C 15,0 km/h (3 Bft)
28.01.2023 13:55 0,1 C 0,6 C 76 % 1029,5 hPa 0,0 l/m 8,1 km/h (2 Bft) N-NW 331 0 min 0,0 UV-I 47 W/m -3,6 C 15,0 km/h (3 Bft)
28.01.2023 13:54 0,1 C 0,7 C 77 % 1029,4 hPa 0,0 l/m 11,2 km/h (2 Bft) NW 316 0 min 0,0 UV-I 47 W/m -3,4 C 15,0 km/h (3 Bft)
28.01.2023 13:53 0,1 C 0,7 C 77 % 1029,3 hPa 0,0 l/m 8,0 km/h (2 Bft) NW 318 0 min 0,0 UV-I 50 W/m -3,4 C 15,0 km/h (3 Bft)
28.01.2023 13:52 0,1 C 0,7 C 77 % 1029,4 hPa 0,0 l/m 6,5 km/h (2 Bft) N-NW 337 0 min 0,0 UV-I 50 W/m -3,4 C 17,0 km/h (3 Bft)
28.01.2023 13:51 0,1 C 0,7 C 77 % 1029,4 hPa 0,0 l/m 5,5 km/h (1 Bft) N 352 0 min 0,0 UV-I 47 W/m -3,4 C 17,0 km/h (3 Bft)
28.01.2023 13:50 0,1 C 0,7 C 77 % 1029,4 hPa 0,0 l/m 6,8 km/h (2 Bft) N-NW 334 0 min 0,0 UV-I 47 W/m -3,4 C 15,0 km/h (3 Bft)
28.01.2023 13:49 0,1 C 0,8 C 78 % 1029,2 hPa 0,0 l/m 8,3 km/h (2 Bft) N-NW 347 0 min 0,0 UV-I 48 W/m -3,3 C 15,0 km/h (3 Bft)
28.01.2023 13:48 0,1 C 0,8 C 78 % 1029,2 hPa 0,0 l/m 9,5 km/h (2 Bft) N-NW 344 0 min 0,0 UV-I 51 W/m -3,3 C 15,0 km/h (3 Bft)
28.01.2023 13:47 0,1 C 0,8 C 78 % 1029,2 hPa 0,0 l/m 5,8 km/h (2 Bft) N 349 0 min 0,0 UV-I 51 W/m -3,3 C 10,0 km/h (2 Bft)
28.01.2023 13:46 0,1 C 0,9 C 78 % 1029,4 hPa 0,0 l/m 3,8 km/h (1 Bft) N-NW 347 0 min 0,0 UV-I 51 W/m -3,3 C 8,0 km/h (2 Bft)
28.01.2023 13:45 0,1 C 0,8 C 78 % 1029,2 hPa 0,0 l/m 1,3 km/h (1 Bft) W 276 0 min 0,0 UV-I 50 W/m -3,3 C 9,0 km/h (2 Bft)
28.01.2023 13:44 0,1 C 0,8 C 78 % 1029,3 hPa 0,0 l/m 4,3 km/h (1 Bft) N-NO 25 0 min 0,0 UV-I 47 W/m -3,3 C 9,0 km/h (2 Bft)
28.01.2023 13:43 0,1 C 0,8 C 78 % 1029,3 hPa 0,0 l/m 6,1 km/h (2 Bft) N-NW 348 0 min 0,0 UV-I 47 W/m -3,3 C 12,0 km/h (2 Bft)
28.01.2023 13:42 0,1 C 0,8 C 77 % 1029,2 hPa 0,0 l/m 3,9 km/h (1 Bft) N-NW 343 0 min 0,0 UV-I 48 W/m -3,4 C 12,0 km/h (2 Bft)
28.01.2023 13:41 0,1 C 0,9 C 77 % 1029,4 hPa 0,0 l/m 8,4 km/h (2 Bft) N-NW 341 0 min 0,0 UV-I 51 W/m -3,4 C 12,0 km/h (2 Bft)
28.01.2023 13:40 0,1 C 0,9 C 77 % 1029,4 hPa 0,0 l/m 7,4 km/h (2 Bft) N-NW 335 0 min 0,0 UV-I 52 W/m -3,4 C 11,0 km/h (2 Bft)
28.01.2023 13:39 0,2 C 0,9 C 77 % 1029,2 hPa 0,0 l/m 3,9 km/h (1 Bft) N 355 0 min 0,0 UV-I 53 W/m -3,3 C 10,0 km/h (2 Bft)
28.01.2023 13:38 0,2 C 0,9 C 77 % 1029,1 hPa 0,0 l/m 2,7 km/h (1 Bft) NW 305 0 min 0,0 UV-I 56 W/m -3,3 C 7,0 km/h (2 Bft)
28.01.2023 13:37 0,2 C 0,9 C 77 % 1029,3 hPa 0,0 l/m 4,3 km/h (1 Bft) N 5 0 min 0,0 UV-I 58 W/m -3,3 C 7,0 km/h (2 Bft)
28.01.2023 13:36 0,2 C 1,0 C 77 % 1029,3 hPa 0,0 l/m 4,3 km/h (1 Bft) N-NW 343 0 min 0,0 UV-I 59 W/m -3,3 C 12,0 km/h (2 Bft)
28.01.2023 13:35 0,2 C 0,9 C 77 % 1029,1 hPa 0,0 l/m 6,1 km/h (2 Bft) N 350 0 min 0,0 UV-I 61 W/m -3,3 C 12,0 km/h (2 Bft)
28.01.2023 13:34 0,2 C 0,9 C 77 % 1029,3 hPa 0,0 l/m 2,9 km/h (1 Bft) N-NW 345 0 min 0,0 UV-I 62 W/m -3,3 C 9,0 km/h (2 Bft)
28.01.2023 13:33 0,2 C 0,9 C 77 % 1029,3 hPa 0,0 l/m 1,4 km/h (1 Bft) N 6 0 min 0,0 UV-I 61 W/m -3,3 C 10,0 km/h (2 Bft)
28.01.2023 13:32 0,2 C 0,9 C 77 % 1029,3 hPa 0,0 l/m 5,4 km/h (1 Bft) N 352 0 min 0,0 UV-I 61 W/m -3,3 C 14,0 km/h (3 Bft)
28.01.2023 13:31 0,2 C 0,9 C 77 % 1029,3 hPa 0,0 l/m 5,2 km/h (1 Bft) N 350 0 min 0,0 UV-I 61 W/m -3,3 C 14,0 km/h (3 Bft)
28.01.2023 13:30 0,2 C 0,8 C 76 % 1029,3 hPa 0,0 l/m 9,0 km/h (2 Bft) N 355 0 min 0,0 UV-I 62 W/m -3,5 C 14,0 km/h (3 Bft)
28.01.2023 13:29 0,3 C 0,9 C 76 % 1029,3 hPa 0,0 l/m 8,1 km/h (2 Bft) N 357 0 min 0,0 UV-I 62 W/m -3,4 C 13,0 km/h (3 Bft)
28.01.2023 13:28 0,3 C 0,9 C 76 % 1029,6 hPa 0,0 l/m 6,7 km/h (2 Bft) N-NW 346 0 min 0,0 UV-I 63 W/m -3,4 C 19,0 km/h (3 Bft)
28.01.2023 13:27 0,3 C 1,0 C 77 % 1029,6 hPa 0,0 l/m 7,7 km/h (2 Bft) N-NW 327 0 min 0,0 UV-I 62 W/m -3,2 C 19,0 km/h (3 Bft)
28.01.2023 13:26 0,3 C 1,1 C 77 % 1029,5 hPa 0,0 l/m 8,3 km/h (2 Bft) N-NW 347 0 min 0,0 UV-I 63 W/m -3,2 C 16,0 km/h (3 Bft)
28.01.2023 13:25 0,3 C 1,0 C 77 % 1029,4 hPa 0,0 l/m 6,0 km/h (2 Bft) N-NW 345 0 min 0,0 UV-I 63 W/m -3,2 C 10,0 km/h (2 Bft)
28.01.2023 13:24 0,3 C 1,0 C 77 % 1029,4 hPa 0,0 l/m 6,0 km/h (2 Bft) N 360 0 min 0,0 UV-I 63 W/m -3,2 C 10,0 km/h (2 Bft)
28.01.2023 13:23 0,3 C 1,0 C 76 % 1029,4 hPa 0,0 l/m 6,0 km/h (2 Bft) N-NW 345 0 min 0,0 UV-I 62 W/m -3,4 C 13,0 km/h (3 Bft)
28.01.2023 13:22 0,3 C 1,1 C 77 % 1029,4 hPa 0,0 l/m 6,1 km/h (2 Bft) W-NW 289 0 min 0,0 UV-I 63 W/m -3,2 C 13,0 km/h (3 Bft)
28.01.2023 13:21 0,3 C 1,2 C 77 % 1029,3 hPa 0,0 l/m 4,5 km/h (1 Bft) NW 322 0 min 0,0 UV-I 64 W/m -3,2 C 13,0 km/h (3 Bft)
28.01.2023 13:20 0,3 C 1,1 C 77 % 1029,4 hPa 0,0 l/m 4,7 km/h (1 Bft) N-NW 340 0 min 0,0 UV-I 66 W/m -3,2 C 13,0 km/h (3 Bft)
28.01.2023 13:19 0,3 C 1,1 C 77 % 1029,3 hPa 0,0 l/m 3,3 km/h (1 Bft) N-NW 336 0 min 0,0 UV-I 66 W/m -3,2 C 13,0 km/h (3 Bft)
28.01.2023 13:18 0,3 C 1,2 C 77 % 1029,2 hPa 0,0 l/m 6,5 km/h (2 Bft) N-NW 337 0 min 0,0 UV-I 67 W/m -3,2 C 12,0 km/h (2 Bft)
28.01.2023 13:17 0,3 C 1,1 C 77 % 1029,3 hPa 0,0 l/m 3,8 km/h (1 Bft) N 1 0 min 0,0 UV-I 69 W/m -3,2 C 12,0 km/h (2 Bft)
28.01.2023 13:16 0,3 C 1,1 C 77 % 1029,3 hPa 0,0 l/m 6,1 km/h (2 Bft) N-NW 345 0 min 0,0 UV-I 69 W/m -3,2 C 12,0 km/h (2 Bft)
28.01.2023 13:15 0,3 C 1,2 C 78 % 1029,4 hPa 0,0 l/m 8,1 km/h (2 Bft) N-NW 341 0 min 0,0 UV-I 70 W/m -3,1 C 16,0 km/h (3 Bft)
28.01.2023 13:14 0,3 C 1,2 C 78 % 1029,2 hPa 0,0 l/m 7,4 km/h (2 Bft) N-NW 336 0 min 0,0 UV-I 72 W/m -3,1 C 16,0 km/h (3 Bft)
28.01.2023 13:13 0,3 C 1,2 C 77 % 1029,2 hPa 0,0 l/m 4,3 km/h (1 Bft) N-NW 334 0 min 0,0 UV-I 72 W/m -3,2 C 16,0 km/h (3 Bft)
28.01.2023 13:12 0,3 C 1,3 C 78 % 1029,1 hPa 0,0 l/m 5,2 km/h (1 Bft) N 351 0 min 0,0 UV-I 73 W/m -3,1 C 13,0 km/h (3 Bft)
28.01.2023 13:11 0,3 C 1,2 C 78 % 1029,1 hPa 0,0 l/m 4,7 km/h (1 Bft) N-NW 343 0 min 0,0 UV-I 73 W/m -3,1 C 13,0 km/h (3 Bft)
28.01.2023 13:10 0,3 C 1,4 C 78 % 1029,2 hPa 0,0 l/m 6,3 km/h (2 Bft) N 349 0 min 0,0 UV-I 73 W/m -3,1 C 13,0 km/h (3 Bft)
28.01.2023 13:09 0,3 C 1,3 C 78 % 1029,1 hPa 0,0 l/m 3,5 km/h (1 Bft) N 352 0 min 0,0 UV-I 72 W/m -3,1 C 8,0 km/h (2 Bft)
28.01.2023 13:08 0,3 C 1,3 C 78 % 1029,2 hPa 0,0 l/m 2,5 km/h (1 Bft) SW 227 0 min 0,0 UV-I 70 W/m -3,1 C 8,0 km/h (2 Bft)
28.01.2023 13:07 0,3 C 1,2 C 78 % 1029,3 hPa 0,0 l/m 3,8 km/h (1 Bft) N 358 0 min 0,0 UV-I 75 W/m -3,1 C 10,0 km/h (2 Bft)
28.01.2023 13:06 0,3 C 1,2 C 77 % 1029,3 hPa 0,0 l/m 2,0 km/h (1 Bft) W-NW 290 0 min 0,0 UV-I 84 W/m -3,2 C 10,0 km/h (2 Bft)
28.01.2023 13:05 0,3 C 1,3 C 78 % 1029,3 hPa 0,0 l/m 5,5 km/h (1 Bft) W-NW 295 0 min 0,0 UV-I 84 W/m -3,1 C 10,0 km/h (2 Bft)
28.01.2023 13:04 0,3 C 1,3 C 78 % 1029,3 hPa 0,0 l/m 2,0 km/h (1 Bft) N-NW 339 0 min 0,0 UV-I 83 W/m -3,1 C 8,0 km/h (2 Bft)
28.01.2023 13:03 0,3 C 1,2 C 78 % 1029,2 hPa 0,0 l/m 2,9 km/h (1 Bft) N-NO 12 0 min 0,0 UV-I 81 W/m -3,1 C 11,0 km/h (2 Bft)
28.01.2023 13:02 0,3 C 1,2 C 78 % 1029,2 hPa 0,0 l/m 4,7 km/h (1 Bft) N 351 0 min 0,0 UV-I 77 W/m -3,1 C 12,0 km/h (2 Bft)
28.01.2023 13:01 0,3 C 1,2 C 78 % 1029,3 hPa 0,0 l/m 4,9 km/h (1 Bft) N 354 0 min 0,0 UV-I 72 W/m -3,1 C 12,0 km/h (2 Bft)
28.01.2023 13:00 0,3 C 1,2 C 78 % 1029,3 hPa 0,0 l/m 4,7 km/h (1 Bft) N-NW 344 0 min 0,0 UV-I 68 W/m -3,1 C 9,0 km/h (2 Bft)
28.01.2023 12:59 0,3 C 1,2 C 78 % 1029,3 hPa 0,0 l/m 2,7 km/h (1 Bft) NW 322 0 min 0,0 UV-I 67 W/m -3,1 C 9,0 km/h (2 Bft)
28.01.2023 12:58 0,3 C 1,2 C 78 % 1029,4 hPa 0,0 l/m 3,8 km/h (1 Bft) N 356 0 min 0,0 UV-I 63 W/m -3,1 C 9,0 km/h (2 Bft)
28.01.2023 12:57 0,3 C 1,1 C 78 % 1029,3 hPa 0,0 l/m 5,1 km/h (1 Bft) N 353 0 min 0,0 UV-I 62 W/m -3,1 C 9,0 km/h (2 Bft)
28.01.2023 12:56 0,3 C 1,1 C 78 % 1029,3 hPa 0,0 l/m 4,2 km/h (1 Bft) N-NW 327 0 min 0,0 UV-I 61 W/m -3,1 C 9,0 km/h (2 Bft)
28.01.2023 12:55 0,3 C 1,2 C 78 % 1029,3 hPa 0,0 l/m 3,5 km/h (1 Bft) N-NW 329 0 min 0,0 UV-I 58 W/m -3,1 C 9,0 km/h (2 Bft)
28.01.2023 12:54 0,3 C 1,1 C 78 % 1029,4 hPa 0,0 l/m 3,6 km/h (1 Bft) N 354 0 min 0,0 UV-I 57 W/m -3,1 C 9,0 km/h (2 Bft)
28.01.2023 12:53 0,3 C 1,1 C 78 % 1029,3 hPa 0,0 l/m 2,7 km/h (1 Bft) N 6 0 min 0,0 UV-I 58 W/m -3,1 C 9,0 km/h (2 Bft)
28.01.2023 12:52 0,3 C 1,2 C 78 % 1029,1 hPa 0,0 l/m 3,8 km/h (1 Bft) S-SW 203 0 min 0,0 UV-I 58 W/m -3,1 C 9,0 km/h (2 Bft)
28.01.2023 12:51 0,3 C 1,3 C 78 % 1029,3 hPa 0,0 l/m 3,5 km/h (1 Bft) S 181 0 min 0,0 UV-I 61 W/m -3,1 C 7,0 km/h (2 Bft)
28.01.2023 12:50 0,3 C 1,3 C 78 % 1029,2 hPa 0,0 l/m 4,3 km/h (1 Bft) S 184 0 min 0,0 UV-I 63 W/m -3,1 C 9,0 km/h (2 Bft)
28.01.2023 12:49 0,3 C 1,3 C 78 % 1029,2 hPa 0,0 l/m 0,0 km/h (0 Bft) O 83 0 min 0,0 UV-I 66 W/m -3,1 C 9,0 km/h (2 Bft)
28.01.2023 12:48 0,3 C 1,3 C 78 % 1029,2 hPa 0,0 l/m 1,3 km/h (1 Bft) O 89 0 min 0,0 UV-I 68 W/m -3,1 C 9,0 km/h (2 Bft)
28.01.2023 12:47 0,3 C 1,5 C 78 % 1029,3 hPa 0,0 l/m 1,4 km/h (1 Bft) NW 324 0 min 0,0 UV-I 69 W/m -3,1 C 8,0 km/h (2 Bft)
28.01.2023 12:46 0,3 C 1,4 C 78 % 1029,3 hPa 0,0 l/m 2,3 km/h (1 Bft) N 3 0 min 0,0 UV-I 72 W/m -3,1 C 8,0 km/h (2 Bft)
28.01.2023 12:45 0,3 C 1,4 C 78 % 1029,2 hPa 0,0 l/m 2,0 km/h (1 Bft) NW 310 0 min 0,0 UV-I 78 W/m -3,1 C 7,0 km/h (2 Bft)
28.01.2023 12:44 0,3 C 1,4 C 78 % 1029,5 hPa 0,0 l/m 2,3 km/h (1 Bft) N 353 0 min 0,0 UV-I 81 W/m -3,1 C 9,0 km/h (2 Bft)
28.01.2023 12:43 0,3 C 1,3 C 78 % 1029,3 hPa 0,0 l/m 5,2 km/h (1 Bft) N 360 0 min 0,0 UV-I 83 W/m -3,1 C 9,0 km/h (2 Bft)
28.01.2023 12:42 0,3 C 1,2 C 78 % 1029,5 hPa 0,0 l/m 4,5 km/h (1 Bft) N 350 0 min 0,0 UV-I 80 W/m -3,1 C 13,0 km/h (3 Bft)
28.01.2023 12:41 0,3 C 1,1 C 78 % 1029,3 hPa 0,0 l/m 5,1 km/h (1 Bft) N-NW 342 0 min 0,0 UV-I 78 W/m -3,1 C 13,0 km/h (3 Bft)
28.01.2023 12:40 0,3 C 1,1 C 78 % 1029,3 hPa 0,0 l/m 6,0 km/h (2 Bft) N-NW 339 0 min 0,0 UV-I 77 W/m -3,1 C 13,0 km/h (3 Bft)
28.01.2023 12:39 0,3 C 1,2 C 78 % 1029,4 hPa 0,0 l/m 6,4 km/h (2 Bft) N-NW 335 0 min 0,0 UV-I 72 W/m -3,1 C 12,0 km/h (2 Bft)
28.01.2023 12:38 0,3 C 1,3 C 78 % 1029,6 hPa 0,0 l/m 5,4 km/h (1 Bft) N 7 0 min 0,0 UV-I 70 W/m -3,1 C 12,0 km/h (2 Bft)
28.01.2023 12:37 0,3 C 1,3 C 78 % 1029,4 hPa 0,0 l/m 3,5 km/h (1 Bft) N 352 0 min 0,0 UV-I 70 W/m -3,1 C 12,0 km/h (2 Bft)
28.01.2023 12:36 0,3 C 1,2 C 78 % 1029,6 hPa 0,0 l/m 3,5 km/h (1 Bft) N-NW 331 0 min 0,0 UV-I 72 W/m -3,1 C 7,0 km/h (2 Bft)
28.01.2023 12:35 0,3 C 1,1 C 78 % 1029,4 hPa 0,0 l/m 3,4 km/h (1 Bft) N 360 0 min 0,0 UV-I 70 W/m -3,1 C 10,0 km/h (2 Bft)
28.01.2023 12:34 0,3 C 1,2 C 78 % 1029,4 hPa 0,0 l/m 5,1 km/h (1 Bft) N-NW 342 0 min 0,0 UV-I 69 W/m -3,1 C 10,0 km/h (2 Bft)
28.01.2023 12:33 0,3 C 1,2 C 78 % 1029,4 hPa 0,0 l/m 1,9 km/h (1 Bft) NW 323 0 min 0,0 UV-I 68 W/m -3,1 C 9,0 km/h (2 Bft)
28.01.2023 12:32 0,4 C 1,1 C 78 % 1029,4 hPa 0,0 l/m 1,4 km/h (1 Bft) W-NW 291 0 min 0,0 UV-I 67 W/m -3,0 C 9,0 km/h (2 Bft)
28.01.2023 12:31 0,3 C 1,1 C 78 % 1029,5 hPa 0,0 l/m 5,6 km/h (1 Bft) N 353 0 min 0,0 UV-I 66 W/m -3,1 C 11,0 km/h (2 Bft)
28.01.2023 12:30 0,3 C 1,1 C 78 % 1029,7 hPa 0,0 l/m 5,1 km/h (1 Bft) N-NW 344 0 min 0,0 UV-I 67 W/m -3,1 C 11,0 km/h (2 Bft)
28.01.2023 12:29 0,3 C 1,3 C 78 % 1029,4 hPa 0,0 l/m 5,6 km/h (1 Bft) N-NW 346 0 min 0,0 UV-I 66 W/m -3,1 C 9,0 km/h (2 Bft)
28.01.2023 12:28 0,4 C 1,2 C 78 % 1029,5 hPa 0,0 l/m 4,8 km/h (1 Bft) N-NW 346 0 min 0,0 UV-I 67 W/m -3,0 C 8,0 km/h (2 Bft)
28.01.2023 12:27 0,3 C 1,3 C 78 % 1029,4 hPa 0,0 l/m 3,9 km/h (1 Bft) N-NW 348 0 min 0,0 UV-I 64 W/m -3,1 C 7,0 km/h (2 Bft)
28.01.2023 12:26 0,3 C 1,2 C 78 % 1029,3 hPa 0,0 l/m 3,1 km/h (1 Bft) N 356 0 min 0,0 UV-I 63 W/m -3,1 C 5,0 km/h (1 Bft)
28.01.2023 12:25 0,3 C 1,1 C 78 % 1029,5 hPa 0,0 l/m 1,0 km/h (0 Bft) N 9 0 min 0,0 UV-I 62 W/m -3,1 C 7,0 km/h (2 Bft)
28.01.2023 12:24 0,3 C 1,1 C 78 % 1029,5 hPa 0,0 l/m 1,0 km/h (0 Bft) N 4 0 min 0,0 UV-I 63 W/m -3,1 C 7,0 km/h (2 Bft)
28.01.2023 12:23 0,3 C 1,1 C 78 % 1029,6 hPa 0,0 l/m 3,4 km/h (1 Bft) N 355 0 min 0,0 UV-I 62 W/m -3,1 C 7,0 km/h (2 Bft)
28.01.2023 12:22 0,3 C 1,2 C 78 % 1029,5 hPa 0,0 l/m 3,2 km/h (1 Bft) N 354 0 min 0,0 UV-I 62 W/m -3,1 C 9,0 km/h (2 Bft)
28.01.2023 12:21 0,3 C 1,2 C 78 % 1029,7 hPa 0,0 l/m 3,1 km/h (1 Bft) N-NO 15 0 min 0,0 UV-I 59 W/m -3,1 C 10,0 km/h (2 Bft)
28.01.2023 12:20 0,3 C 1,1 C 78 % 1029,7 hPa 0,0 l/m 3,5 km/h (1 Bft) W 273 0 min 0,0 UV-I 58 W/m -3,1 C 10,0 km/h (2 Bft)
28.01.2023 12:19 0,3 C 1,2 C 78 % 1029,5 hPa 0,0 l/m 2,7 km/h (1 Bft) N 354 0 min 0,0 UV-I 57 W/m -3,1 C 10,0 km/h (2 Bft)
28.01.2023 12:18 0,4 C 1,2 C 77 % 1029,4 hPa 0,0 l/m 1,0 km/h (0 Bft) NO 35 0 min 0,0 UV-I 56 W/m -3,1 C 5,0 km/h (1 Bft)
28.01.2023 12:17 0,4 C 1,1 C 77 % 1029,6 hPa 0,0 l/m 1,3 km/h (1 Bft) W-SW 247 0 min 0,0 UV-I 57 W/m -3,1 C 5,0 km/h (1 Bft)
28.01.2023 12:16 0,4 C 1,2 C 77 % 1029,6 hPa 0,0 l/m 1,3 km/h (1 Bft) N-NW 337 0 min 0,0 UV-I 57 W/m -3,1 C 5,0 km/h (1 Bft)
28.01.2023 12:15 0,3 C 1,2 C 77 % 1029,4 hPa 0,0 l/m 1,3 km/h (1 Bft) O-NO 76 0 min 0,0 UV-I 58 W/m -3,2 C 4,0 km/h (1 Bft)
28.01.2023 12:14 0,4 C 1,1 C 77 % 1029,8 hPa 0,0 l/m 2,5 km/h (1 Bft) N 352 0 min 0,0 UV-I 58 W/m -3,1 C 5,0 km/h (1 Bft)
28.01.2023 12:13 0,3 C 1,1 C 77 % 1029,5 hPa 0,0 l/m 2,3 km/h (1 Bft) N-NW 337 0 min 0,0 UV-I 58 W/m -3,2 C 12,0 km/h (2 Bft)
28.01.2023 12:12 0,4 C 1,2 C 77 % 1029,6 hPa 0,0 l/m 3,8 km/h (1 Bft) N-NW 344 0 min 0,0 UV-I 58 W/m -3,1 C 12,0 km/h (2 Bft)
28.01.2023 12:11 0,4 C 1,2 C 78 % 1029,6 hPa 0,0 l/m 4,3 km/h (1 Bft) N-NW 342 0 min 0,0 UV-I 59 W/m -3,0 C 9,0 km/h (2 Bft)
28.01.2023 12:10 0,4 C 1,3 C 78 % 1029,6 hPa 0,0 l/m 2,7 km/h (1 Bft) N 10 0 min 0,0 UV-I 63 W/m -3,0 C 9,0 km/h (2 Bft)
28.01.2023 12:09 0,3 C 1,3 C 78 % 1029,4 hPa 0,0 l/m 3,5 km/h (1 Bft) NO 49 0 min 0,0 UV-I 66 W/m -3,1 C 9,0 km/h (2 Bft)
28.01.2023 12:08 0,3 C 1,5 C 78 % 1029,4 hPa 0,0 l/m 3,3 km/h (1 Bft) O-NO 64 0 min 0,0 UV-I 69 W/m -3,1 C 9,0 km/h (2 Bft)
28.01.2023 12:07 0,3 C 1,7 C 78 % 1029,5 hPa 0,0 l/m 3,2 km/h (1 Bft) NO 39 0 min 0,0 UV-I 78 W/m -3,1 C 7,0 km/h (2 Bft)
28.01.2023 12:06 0,3 C 1,8 C 78 % 1029,6 hPa 0,0 l/m 2,7 km/h (1 Bft) O-NO 66 0 min 0,0 UV-I 86 W/m -3,1 C 6,0 km/h (2 Bft)
28.01.2023 12:05 0,3 C 1,8 C 78 % 1029,5 hPa 0,0 l/m 0,0 km/h (0 Bft) N-NO 14 0 min 0,0 UV-I 95 W/m -3,1 C 8,0 km/h (2 Bft)
28.01.2023 12:04 0,3 C 1,7 C 78 % 1029,5 hPa 0,0 l/m 1,0 km/h (0 Bft) NO 35 0 min 0,0 UV-I 102 W/m -3,1 C 11,0 km/h (2 Bft)
28.01.2023 12:03 0,3 C 1,7 C 78 % 1029,8 hPa 0,0 l/m 5,4 km/h (1 Bft) N 354 0 min 0,0 UV-I 106 W/m -3,1 C 11,0 km/h (2 Bft)
28.01.2023 12:02 0,2 C 1,8 C 78 % 1029,6 hPa 0,0 l/m 7,1 km/h (2 Bft) N 355 0 min 0,0 UV-I 107 W/m -3,2 C 11,0 km/h (2 Bft)
28.01.2023 12:01 0,2 C 1,6 C 78 % 1029,4 hPa 0,0 l/m 5,4 km/h (1 Bft) N-NW 335 0 min 0,0 UV-I 108 W/m -3,2 C 8,0 km/h (2 Bft)
28.01.2023 12:00 0,2 C 1,6 C 78 % 1029,4 hPa 0,0 l/m 3,6 km/h (1 Bft) N 7 0 min 0,0 UV-I 108 W/m -3,2 C 8,0 km/h (2 Bft)
28.01.2023 11:59 0,2 C 1,7 C 78 % 1029,6 hPa 0,0 l/m 4,5 km/h (1 Bft) N-NO 28 0 min 0,0 UV-I 107 W/m -3,2 C 8,0 km/h (2 Bft)
28.01.2023 11:58 0,2 C 1,8 C 78 % 1029,5 hPa 0,0 l/m 3,5 km/h (1 Bft) N-NO 21 0 min 0,0 UV-I 108 W/m -3,2 C 8,0 km/h (2 Bft)
28.01.2023 11:57 0,2 C 1,9 C 78 % 1029,6 hPa 0,0 l/m 1,3 km/h (1 Bft) O-NO 57 0 min 0,0 UV-I 110 W/m -3,2 C 8,0 km/h (2 Bft)
28.01.2023 11:56 0,2 C 1,9 C 78 % 1029,6 hPa 0,0 l/m 0,0 km/h (0 Bft) O 93 0 min 0,0 UV-I 111 W/m -3,2 C 8,0 km/h (2 Bft)
28.01.2023 11:55 0,1 C 1,9 C 78 % 1029,5 hPa 0,0 l/m 3,3 km/h (1 Bft) N 356 0 min 0,0 UV-I 116 W/m -3,3 C 8,0 km/h (2 Bft)
28.01.2023 11:54 0,1 C 1,7 C 78 % 1029,7 hPa 0,0 l/m 3,1 km/h (1 Bft) N 357 0 min 0,0 UV-I 119 W/m -3,3 C 15,0 km/h (3 Bft)
28.01.2023 11:53 0,1 C 1,6 C 78 % 1029,7 hPa 0,0 l/m 3,2 km/h (1 Bft) N 349 0 min 0,0 UV-I 119 W/m -3,3 C 15,0 km/h (3 Bft)
28.01.2023 11:52 0,1 C 1,5 C 78 % 1029,6 hPa 0,0 l/m 7,9 km/h (2 Bft) N 356 0 min 0,0 UV-I 117 W/m -3,3 C 11,0 km/h (2 Bft)
28.01.2023 11:51 0,1 C 1,4 C 78 % 1029,5 hPa 0,0 l/m 6,5 km/h (2 Bft) N-NW 347 0 min 0,0 UV-I 112 W/m -3,3 C 11,0 km/h (2 Bft)
28.01.2023 11:50 0,1 C 1,2 C 78 % 1029,4 hPa 0,0 l/m 4,8 km/h (1 Bft) N 356 0 min 0,0 UV-I 106 W/m -3,3 C 12,0 km/h (2 Bft)
28.01.2023 11:49 0,1 C 1,2 C 78 % 1029,5 hPa 0,0 l/m 7,0 km/h (2 Bft) N-NW 337 0 min 0,0 UV-I 99 W/m -3,3 C 18,0 km/h (3 Bft)
28.01.2023 11:48 0,1 C 1,1 C 78 % 1029,5 hPa 0,0 l/m 7,4 km/h (2 Bft) N-NW 335 0 min 0,0 UV-I 95 W/m -3,3 C 18,0 km/h (3 Bft)
28.01.2023 11:47 0,1 C 1,1 C 78 % 1029,8 hPa 0,0 l/m 8,0 km/h (2 Bft) N-NW 344 0 min 0,0 UV-I 89 W/m -3,3 C 18,0 km/h (3 Bft)
28.01.2023 11:46 0,1 C 1,0 C 78 % 1029,7 hPa 0,0 l/m 6,3 km/h (2 Bft) N-NW 338 0 min 0,0 UV-I 83 W/m -3,3 C 12,0 km/h (2 Bft)
28.01.2023 11:45 0,1 C 1,0 C 78 % 1029,6 hPa 0,0 l/m 3,5 km/h (1 Bft) NW 312 0 min 0,0 UV-I 75 W/m -3,3 C 10,0 km/h (2 Bft)
28.01.2023 11:44 0,1 C 1,0 C 78 % 1029,6 hPa 0,0 l/m 1,4 km/h (1 Bft) N-NW 329 0 min 0,0 UV-I 69 W/m -3,3 C 9,0 km/h (2 Bft)
28.01.2023 11:43 0,1 C 1,0 C 78 % 1029,8 hPa 0,0 l/m 3,1 km/h (1 Bft) N 6 0 min 0,0 UV-I 64 W/m -3,3 C 7,0 km/h (2 Bft)
28.01.2023 11:42 0,1 C 0,9 C 78 % 1029,6 hPa 0,0 l/m 2,7 km/h (1 Bft) N-NW 337 0 min 0,0 UV-I 62 W/m -3,3 C 7,0 km/h (2 Bft)
28.01.2023 11:41 0,1 C 0,9 C 78 % 1029,7 hPa 0,0 l/m 2,2 km/h (1 Bft) NW 319 0 min 0,0 UV-I 58 W/m -3,3 C 7,0 km/h (2 Bft)
28.01.2023 11:40 0,1 C 0,9 C 78 % 1029,7 hPa 0,0 l/m 0,0 km/h (0 Bft) S 187 0 min 0,0 UV-I 57 W/m -3,3 C 4,0 km/h (1 Bft)
28.01.2023 11:39 0,1 C 0,9 C 79 % 1029,8 hPa 0,0 l/m 0,0 km/h (0 Bft) S-SO 155 0 min 0,0 UV-I 53 W/m -3,1 C 6,0 km/h (2 Bft)
28.01.2023 11:38 0,1 C 0,9 C 79 % 1029,7 hPa 0,0 l/m 0,0 km/h (0 Bft) NO 37 0 min 0,0 UV-I 51 W/m -3,1 C 9,0 km/h (2 Bft)
28.01.2023 11:37 0,1 C 0,9 C 79 % 1029,4 hPa 0,0 l/m 3,5 km/h (1 Bft) N 4 0 min 0,0 UV-I 51 W/m -3,1 C 9,0 km/h (2 Bft)
28.01.2023 11:36 0,1 C 0,9 C 79 % 1029,7 hPa 0,0 l/m 2,5 km/h (1 Bft) N-NW 344 0 min 0,0 UV-I 52 W/m -3,1 C 9,0 km/h (2 Bft)
28.01.2023 11:35 0,1 C 0,8 C 79 % 1029,6 hPa 0,0 l/m 3,6 km/h (1 Bft) N-NW 346 0 min 0,0 UV-I 56 W/m -3,1 C 9,0 km/h (2 Bft)
28.01.2023 11:34 0,1 C 1,0 C 79 % 1029,7 hPa 0,0 l/m 2,0 km/h (1 Bft) N 355 0 min 0,0 UV-I 57 W/m -3,1 C 9,0 km/h (2 Bft)
28.01.2023 11:33 0,1 C 0,9 C 79 % 1029,7 hPa 0,0 l/m 6,7 km/h (2 Bft) N-NW 345 0 min 0,0 UV-I 58 W/m -3,1 C 9,0 km/h (2 Bft)
28.01.2023 11:32 0,1 C 0,8 C 79 % 1029,7 hPa 0,0 l/m 5,2 km/h (1 Bft) N-NW 347 0 min 0,0 UV-I 57 W/m -3,1 C 10,0 km/h (2 Bft)
28.01.2023 11:31 0,1 C 0,9 C 78 % 1029,6 hPa 0,0 l/m 5,6 km/h (1 Bft) N-NO 14 0 min 0,0 UV-I 56 W/m -3,3 C 10,0 km/h (2 Bft)
28.01.2023 11:30 0,1 C 0,8 C 79 % 1029,8 hPa 0,0 l/m 3,2 km/h (1 Bft) N-NW 338 0 min 0,0 UV-I 55 W/m -3,1 C 10,0 km/h (2 Bft)
28.01.2023 11:29 0,1 C 0,8 C 78 % 1029,6 hPa 0,0 l/m 2,3 km/h (1 Bft) N-NO 14 0 min 0,0 UV-I 52 W/m -3,3 C 10,0 km/h (2 Bft)
28.01.2023 11:28 0,1 C 0,9 C 78 % 1029,6 hPa 0,0 l/m 4,1 km/h (1 Bft) N-NO 13 0 min 0,0 UV-I 50 W/m -3,3 C 10,0 km/h (2 Bft)
28.01.2023 11:27 0,1 C 0,9 C 79 % 1029,5 hPa 0,0 l/m 8,4 km/h (2 Bft) N-NW 342 0 min 0,0 UV-I 47 W/m -3,1 C 11,0 km/h (2 Bft)
28.01.2023 11:26 0,1 C 0,8 C 79 % 1029,6 hPa 0,0 l/m 5,6 km/h (1 Bft) N 356 0 min 0,0 UV-I 47 W/m -3,1 C 11,0 km/h (2 Bft)
28.01.2023 11:25 0,1 C 0,8 C 79 % 1029,5 hPa 0,0 l/m 4,5 km/h (1 Bft) N-NW 329 0 min 0,0 UV-I 48 W/m -3,1 C 11,0 km/h (2 Bft)
28.01.2023 11:24 0,1 C 0,8 C 79 % 1029,5 hPa 0,0 l/m 2,6 km/h (1 Bft) W-NW 298 0 min 0,0 UV-I 47 W/m -3,1 C 11,0 km/h (2 Bft)
28.01.2023 11:23 0,1 C 0,7 C 79 % 1029,6 hPa 0,0 l/m 3,5 km/h (1 Bft) N 360 0 min 0,0 UV-I 47 W/m -3,1 C 11,0 km/h (2 Bft)
28.01.2023 11:22 0,2 C 0,8 C 79 % 1029,6 hPa 0,0 l/m 4,8 km/h (1 Bft) N-NO 23 0 min 0,0 UV-I 47 W/m -3,0 C 10,0 km/h (2 Bft)
28.01.2023 11:21 0,2 C 0,9 C 79 % 1029,7 hPa 0,0 l/m 5,8 km/h (2 Bft) N 356 0 min 0,0 UV-I 42 W/m -3,0 C 10,0 km/h (2 Bft)
28.01.2023 11:20 0,2 C 0,9 C 79 % 1029,5 hPa 0,0 l/m 2,3 km/h (1 Bft) N 6 0 min 0,0 UV-I 44 W/m -3,0 C 8,0 km/h (2 Bft)
28.01.2023 11:19 0,2 C 0,9 C 79 % 1029,7 hPa 0,0 l/m 2,5 km/h (1 Bft) N-NO 19 0 min 0,0 UV-I 40 W/m -3,0 C 6,0 km/h (2 Bft)
28.01.2023 11:18 0,2 C 0,9 C 79 % 1029,7 hPa 0,0 l/m 1,0 km/h (0 Bft) O 87 0 min 0,0 UV-I 41 W/m -3,0 C 6,0 km/h (2 Bft)
28.01.2023 11:17 0,2 C 0,9 C 79 % 1029,6 hPa 0,0 l/m 4,0 km/h (1 Bft) N 354 0 min 0,0 UV-I 42 W/m -3,0 C 8,0 km/h (2 Bft)
28.01.2023 11:16 0,2 C 0,9 C 79 % 1029,6 hPa 0,0 l/m 2,3 km/h (1 Bft) N 6 0 min 0,0 UV-I 44 W/m -3,0 C 9,0 km/h (2 Bft)
28.01.2023 11:15 0,2 C 1,0 C 79 % 1029,7 hPa 0,0 l/m 2,7 km/h (1 Bft) N 358 0 min 0,0 UV-I 46 W/m -3,0 C 9,0 km/h (2 Bft)
28.01.2023 11:14 0,2 C 1,1 C 79 % 1029,7 hPa 0,0 l/m 6,3 km/h (2 Bft) N 358 0 min 0,0 UV-I 47 W/m -3,0 C 9,0 km/h (2 Bft)
28.01.2023 11:13 0,2 C 1,1 C 79 % 1029,7 hPa 0,0 l/m 3,5 km/h (1 Bft) N-NW 342 0 min 0,0 UV-I 50 W/m -3,0 C 6,0 km/h (2 Bft)
28.01.2023 11:12 0,2 C 1,0 C 79 % 1029,6 hPa 0,0 l/m 3,2 km/h (1 Bft) N 352 0 min 0,0 UV-I 50 W/m -3,0 C 6,0 km/h (2 Bft)
28.01.2023 11:11 0,1 C 1,1 C 79 % 1029,4 hPa 0,0 l/m 2,9 km/h (1 Bft) N 355 0 min 0,0 UV-I 52 W/m -3,1 C 7,0 km/h (2 Bft)
28.01.2023 11:10 0,2 C 1,0 C 79 % 1029,5 hPa 0,0 l/m 0,0 km/h (0 Bft) W-NW 290 0 min 0,0 UV-I 55 W/m -3,0 C 8,0 km/h (2 Bft)
28.01.2023 11:09 0,1 C 1,0 C 79 % 1029,5 hPa 0,0 l/m 1,0 km/h (0 Bft) N-NW 332 0 min 0,0 UV-I 57 W/m -3,1 C 9,0 km/h (2 Bft)
28.01.2023 11:08 0,2 C 1,1 C 79 % 1029,5 hPa 0,0 l/m 3,5 km/h (1 Bft) N-NO 17 0 min 0,0 UV-I 57 W/m -3,0 C 9,0 km/h (2 Bft)
28.01.2023 11:07 0,2 C 1,0 C 80 % 1029,6 hPa 0,0 l/m 4,2 km/h (1 Bft) N-NO 24 0 min 0,0 UV-I 59 W/m -2,8 C 9,0 km/h (2 Bft)
28.01.2023 11:06 0,1 C 1,0 C 80 % 1029,5 hPa 0,0 l/m 3,5 km/h (1 Bft) N-NO 13 0 min 0,0 UV-I 61 W/m -2,9 C 8,0 km/h (2 Bft)
28.01.2023 11:05 0,1 C 1,1 C 80 % 1029,5 hPa 0,0 l/m 3,3 km/h (1 Bft) NO 36 0 min 0,0 UV-I 59 W/m -2,9 C 9,0 km/h (2 Bft)
28.01.2023 11:04 0,1 C 1,1 C 80 % 1029,6 hPa 0,0 l/m 4,2 km/h (1 Bft) O-NO 70 0 min 0,0 UV-I 58 W/m -2,9 C 9,0 km/h (2 Bft)
28.01.2023 11:03 0,1 C 1,2 C 80 % 1029,4 hPa 0,0 l/m 3,1 km/h (1 Bft) NO 52 0 min 0,0 UV-I 58 W/m -2,9 C 9,0 km/h (2 Bft)
28.01.2023 11:02 0,1 C 1,1 C 80 % 1029,4 hPa 0,0 l/m 2,2 km/h (1 Bft) NO 49 0 min 0,0 UV-I 62 W/m -2,9 C 9,0 km/h (2 Bft)
28.01.2023 11:01 0,1 C 1,2 C 80 % 1029,5 hPa 0,0 l/m 2,0 km/h (1 Bft) N 8 0 min 0,0 UV-I 64 W/m -2,9 C 9,0 km/h (2 Bft)
28.01.2023 11:00 0,1 C 1,2 C 80 % 1029,5 hPa 0,0 l/m 3,3 km/h (1 Bft) N 349 0 min 0,0 UV-I 64 W/m -2,9 C 8,0 km/h (2 Bft)
28.01.2023 10:59 0,1 C 1,1 C 80 % 1029,5 hPa 0,0 l/m 2,9 km/h (1 Bft) N-NW 328 0 min 0,0 UV-I 66 W/m -2,9 C 9,0 km/h (2 Bft)
28.01.2023 10:58 0,1 C 1,2 C 80 % 1029,6 hPa 0,0 l/m 4,7 km/h (1 Bft) NO 35 0 min 0,0 UV-I 66 W/m -2,9 C 11,0 km/h (2 Bft)
28.01.2023 10:57 0,1 C 1,1 C 80 % 1029,5 hPa 0,0 l/m 6,4 km/h (2 Bft) N-NW 344 0 min 0,0 UV-I 67 W/m -2,9 C 11,0 km/h (2 Bft)
28.01.2023 10:56 0,1 C 1,2 C 80 % 1029,4 hPa 0,0 l/m 3,2 km/h (1 Bft) NW 322 0 min 0,0 UV-I 67 W/m -2,9 C 12,0 km/h (2 Bft)
28.01.2023 10:55 0,1 C 1,2 C 80 % 1029,5 hPa 0,0 l/m 2,0 km/h (1 Bft) N 349 0 min 0,0 UV-I 67 W/m -2,9 C 12,0 km/h (2 Bft)
28.01.2023 10:54 0,1 C 1,1 C 80 % 1029,7 hPa 0,0 l/m 4,7 km/h (1 Bft) N 4 0 min 0,0 UV-I 66 W/m -2,9 C 10,0 km/h (2 Bft)
28.01.2023 10:53 0,1 C 1,1 C 80 % 1029,6 hPa 0,0 l/m 2,9 km/h (1 Bft) N-NO 22 0 min 0,0 UV-I 66 W/m -2,9 C 10,0 km/h (2 Bft)
28.01.2023 10:52 0,1 C 1,1 C 80 % 1029,6 hPa 0,0 l/m 3,9 km/h (1 Bft) N-NO 20 0 min 0,0 UV-I 64 W/m -2,9 C 10,0 km/h (2 Bft)
28.01.2023 10:51 0,1 C 1,1 C 80 % 1029,5 hPa 0,0 l/m 5,1 km/h (1 Bft) NO 40 0 min 0,0 UV-I 63 W/m -2,9 C 9,0 km/h (2 Bft)
28.01.2023 10:50 0,0 C 1,1 C 80 % 1029,5 hPa 0,0 l/m 2,7 km/h (1 Bft) N-NW 348 0 min 0,0 UV-I 61 W/m -3,0 C 7,0 km/h (2 Bft)
28.01.2023 10:49 0,0 C 1,1 C 80 % 1029,6 hPa 0,0 l/m 1,3 km/h (1 Bft) N-NW 343 0 min 0,0 UV-I 61 W/m -3,0 C 7,0 km/h (2 Bft)
28.01.2023 10:48 0,0 C 1,0 C 80 % 1029,7 hPa 0,0 l/m 3,2 km/h (1 Bft) NW 311 0 min 0,0 UV-I 59 W/m -3,0 C 8,0 km/h (2 Bft)
28.01.2023 10:47 0,0 C 1,0 C 80 % 1029,6 hPa 0,0 l/m 2,7 km/h (1 Bft) NW 319 0 min 0,0 UV-I 58 W/m -3,0 C 8,0 km/h (2 Bft)
28.01.2023 10:46 0,0 C 1,0 C 80 % 1029,5 hPa 0,0 l/m 2,7 km/h (1 Bft) N-NO 32 0 min 0,0 UV-I 57 W/m -3,0 C 8,0 km/h (2 Bft)
28.01.2023 10:45 0,0 C 0,9 C 80 % 1029,5 hPa 0,0 l/m 3,5 km/h (1 Bft) N-NO 25 0 min 0,0 UV-I 55 W/m -3,0 C 6,0 km/h (2 Bft)
28.01.2023 10:44 0,0 C 1,0 C 80 % 1029,5 hPa 0,0 l/m 2,7 km/h (1 Bft) N 357 0 min 0,0 UV-I 55 W/m -3,0 C 6,0 km/h (2 Bft)
28.01.2023 10:43 0,0 C 0,9 C 80 % 1029,8 hPa 0,0 l/m 2,5 km/h (1 Bft) O-NO 77 0 min 0,0 UV-I 55 W/m -3,0 C 7,0 km/h (2 Bft)
28.01.2023 10:42 0,0 C 1,0 C 80 % 1029,6 hPa 0,0 l/m 2,7 km/h (1 Bft) O-NO 60 0 min 0,0 UV-I 56 W/m -3,0 C 7,0 km/h (2 Bft)
28.01.2023 10:41 0,0 C 1,0 C 80 % 1029,6 hPa 0,0 l/m 3,2 km/h (1 Bft) NO 56 0 min 0,0 UV-I 56 W/m -3,0 C 7,0 km/h (2 Bft)
28.01.2023 10:40 0,0 C 0,9 C 80 % 1029,4 hPa 0,0 l/m 1,4 km/h (1 Bft) SO 133 0 min 0,0 UV-I 56 W/m -3,0 C 6,0 km/h (2 Bft)
28.01.2023 10:39 -0,1 C 1,0 C 80 % 1029,4 hPa 0,0 l/m 4,5 km/h (1 Bft) O-SO 103 0 min 0,0 UV-I 55 W/m -3,1 C 6,0 km/h (2 Bft)
28.01.2023 10:38 0,0 C 1,0 C 80 % 1029,3 hPa 0,0 l/m 3,5 km/h (1 Bft) O-SO 115 0 min 0,0 UV-I 52 W/m -3,0 C 6,0 km/h (2 Bft)
28.01.2023 10:37 -0,1 C 0,9 C 80 % 1029,4 hPa 0,0 l/m 3,5 km/h (1 Bft) O-SO 123 0 min 0,0 UV-I 51 W/m -3,1 C 6,0 km/h (2 Bft)
28.01.2023 10:36 -0,1 C 0,9 C 80 % 1029,4 hPa 0,0 l/m 4,2 km/h (1 Bft) O-SO 103 0 min 0,0 UV-I 52 W/m -3,1 C 6,0 km/h (2 Bft)
28.01.2023 10:35 -0,1 C 0,9 C 80 % 1029,4 hPa 0,0 l/m 3,3 km/h (1 Bft) O-SO 119 0 min 0,0 UV-I 52 W/m -3,1 C 6,0 km/h (2 Bft)
28.01.2023 10:34 -0,1 C 0,9 C 80 % 1029,4 hPa 0,0 l/m 2,7 km/h (1 Bft) O-SO 123 0 min 0,0 UV-I 52 W/m -3,1 C 6,0 km/h (2 Bft)
28.01.2023 10:33 0,0 C 0,8 C 80 % 1029,4 hPa 0,0 l/m 3,3 km/h (1 Bft) O-SO 115 0 min 0,0 UV-I 51 W/m -3,0 C 6,0 km/h (2 Bft)
28.01.2023 10:32 -0,1 C 0,8 C 80 % 1029,4 hPa 0,0 l/m 3,1 km/h (1 Bft) O-SO 102 0 min 0,0 UV-I 48 W/m -3,1 C 9,0 km/h (2 Bft)
28.01.2023 10:31 -0,1 C 0,8 C 80 % 1029,4 hPa 0,0 l/m 4,5 km/h (1 Bft) O-SO 104 0 min 0,0 UV-I 46 W/m -3,1 C 9,0 km/h (2 Bft)
28.01.2023 10:30 -0,1 C 0,7 C 81 % 1029,3 hPa 0,0 l/m 4,3 km/h (1 Bft) O-NO 65 0 min 0,0 UV-I 46 W/m -3,0 C 8,0 km/h (2 Bft)
28.01.2023 10:29 -0,1 C 0,8 C 81 % 1029,4 hPa 0,0 l/m 4,0 km/h (1 Bft) N-NO 20 0 min 0,0 UV-I 47 W/m -3,0 C 7,0 km/h (2 Bft)
28.01.2023 10:28 -0,1 C 0,9 C 81 % 1029,4 hPa 0,0 l/m 2,6 km/h (1 Bft) N-NO 33 0 min 0,0 UV-I 48 W/m -3,0 C 5,0 km/h (1 Bft)
28.01.2023 10:27 -0,1 C 0,8 C 80 % 1029,4 hPa 0,0 l/m 2,7 km/h (1 Bft) NO 36 0 min 0,0 UV-I 47 W/m -3,1 C 6,0 km/h (2 Bft)
28.01.2023 10:26 -0,1 C 0,9 C 80 % 1029,2 hPa 0,0 l/m 2,3 km/h (1 Bft) N-NO 29 0 min 0,0 UV-I 47 W/m -3,1 C 6,0 km/h (2 Bft)
28.01.2023 10:25 -0,1 C 0,7 C 80 % 1029,3 hPa 0,0 l/m 0,0 km/h (0 Bft) O 88 0 min 0,0 UV-I 46 W/m -3,1 C 7,0 km/h (2 Bft)
28.01.2023 10:24 -0,1 C 0,9 C 80 % 1029,2 hPa 0,0 l/m 4,8 km/h (1 Bft) O 81 0 min 0,0 UV-I 47 W/m -3,1 C 7,0 km/h (2 Bft)
28.01.2023 10:23 -0,1 C 0,9 C 80 % 1029,4 hPa 0,0 l/m 2,0 km/h (1 Bft) NO 44 0 min 0,0 UV-I 48 W/m -3,1 C 7,0 km/h (2 Bft)
28.01.2023 10:22 -0,1 C 0,8 C 80 % 1029,2 hPa 0,0 l/m 0,0 km/h (0 Bft) O-NO 72 0 min 0,0 UV-I 48 W/m -3,1 C 5,0 km/h (1 Bft)
28.01.2023 10:21 -0,2 C 0,8 C 80 % 1029,0 hPa 0,0 l/m 1,3 km/h (1 Bft) N-NO 30 0 min 0,0 UV-I 48 W/m -3,2 C 6,0 km/h (2 Bft)
28.01.2023 10:20 -0,2 C 0,8 C 80 % 1029,0 hPa 0,0 l/m 2,9 km/h (1 Bft) O-NO 64 0 min 0,0 UV-I 50 W/m -3,2 C 6,0 km/h (2 Bft)
28.01.2023 10:19 -0,1 C 0,8 C 80 % 1028,9 hPa 0,0 l/m 2,2 km/h (1 Bft) O 89 0 min 0,0 UV-I 50 W/m -3,1 C 6,0 km/h (2 Bft)
28.01.2023 10:18 -0,2 C 0,7 C 81 % 1029,1 hPa 0,0 l/m 3,8 km/h (1 Bft) N-NO 18 0 min 0,0 UV-I 48 W/m -3,1 C 7,0 km/h (2 Bft)
28.01.2023 10:17 -0,2 C 0,6 C 81 % 1029,1 hPa 0,0 l/m 2,3 km/h (1 Bft) NO 34 0 min 0,0 UV-I 46 W/m -3,1 C 7,0 km/h (2 Bft)
28.01.2023 10:16 -0,2 C 0,7 C 81 % 1029,2 hPa 0,0 l/m 2,9 km/h (1 Bft) N-NO 18 0 min 0,0 UV-I 45 W/m -3,1 C 7,0 km/h (2 Bft)
28.01.2023 10:15 -0,2 C 0,7 C 81 % 1029,2 hPa 0,0 l/m 2,7 km/h (1 Bft) N-NW 337 0 min 0,0 UV-I 42 W/m -3,1 C 12,0 km/h (2 Bft)
28.01.2023 10:14 -0,2 C 0,6 C 81 % 1029,2 hPa 0,0 l/m 3,8 km/h (1 Bft) N 4 0 min 0,0 UV-I 41 W/m -3,1 C 12,0 km/h (2 Bft)
28.01.2023 10:13 -0,2 C 0,8 C 81 % 1029,2 hPa 0,0 l/m 5,8 km/h (2 Bft) N 349 0 min 0,0 UV-I 40 W/m -3,1 C 12,0 km/h (2 Bft)
28.01.2023 10:12 -0,2 C 0,7 C 81 % 1029,1 hPa 0,0 l/m 4,3 km/h (1 Bft) N 354 0 min 0,0 UV-I 39 W/m -3,1 C 9,0 km/h (2 Bft)
28.01.2023 10:11 -0,2 C 0,7 C 81 % 1029,1 hPa 0,0 l/m 2,0 km/h (1 Bft) N 4 0 min 0,0 UV-I 39 W/m -3,1 C 6,0 km/h (2 Bft)
28.01.2023 10:10 -0,2 C 0,8 C 81 % 1028,8 hPa 0,0 l/m 2,2 km/h (1 Bft) N-NW 340 0 min 0,0 UV-I 44 W/m -3,1 C 5,0 km/h (1 Bft)
28.01.2023 10:09 -0,2 C 0,8 C 81 % 1028,8 hPa 0,0 l/m 1,0 km/h (0 Bft) O-NO 68 0 min 0,0 UV-I 46 W/m -3,1 C 4,0 km/h (1 Bft)
28.01.2023 10:08 -0,2 C 0,6 C 81 % 1028,9 hPa 0,0 l/m 1,0 km/h (0 Bft) NO 35 0 min 0,0 UV-I 45 W/m -3,1 C 3,0 km/h (1 Bft)
28.01.2023 10:07 -0,2 C 0,7 C 81 % 1028,6 hPa 0,0 l/m 0,0 km/h (0 Bft) N-NO 24 0 min 0,0 UV-I 42 W/m -3,1 C 3,0 km/h (1 Bft)
28.01.2023 10:06 -0,3 C 0,6 C 81 % 1028,8 hPa 0,0 l/m 0,0 km/h (0 Bft) O-NO 69 0 min 0,0 UV-I 36 W/m -3,2 C 4,0 km/h (1 Bft)
28.01.2023 10:05 -0,2 C 0,6 C 81 % 1028,7 hPa 0,0 l/m 0,0 km/h (0 Bft) W-SW 246 0 min 0,0 UV-I 36 W/m -3,1 C 4,0 km/h (1 Bft)
28.01.2023 10:04 -0,3 C 0,5 C 81 % 1028,8 hPa 0,0 l/m 0,0 km/h (0 Bft) SO 131 0 min 0,0 UV-I 35 W/m -3,2 C 4,0 km/h (1 Bft)
28.01.2023 10:03 -0,2 C 0,5 C 81 % 1028,8 hPa 0,0 l/m 0,0 km/h (0 Bft) O 101 0 min 0,0 UV-I 36 W/m -3,1 C 5,0 km/h (1 Bft)
28.01.2023 10:02 -0,2 C 0,5 C 81 % 1028,7 hPa 0,0 l/m 0,0 km/h (0 Bft) O-NO 78 0 min 0,0 UV-I 37 W/m -3,1 C 5,0 km/h (1 Bft)
28.01.2023 10:01 -0,3 C 0,5 C 81 % 1029,0 hPa 0,0 l/m 3,1 km/h (1 Bft) SO 132 0 min 0,0 UV-I 39 W/m -3,2 C 5,0 km/h (1 Bft)
28.01.2023 10:00 -0,3 C 0,5 C 81 % 1028,7 hPa 0,0 l/m 1,3 km/h (1 Bft) O-SO 110 0 min 0,0 UV-I 40 W/m -3,2 C 5,0 km/h (1 Bft)
28.01.2023 09:59 -0,3 C 0,4 C 81 % 1028,8 hPa 0,0 l/m 3,8 km/h (1 Bft) O 94 0 min 0,0 UV-I 39 W/m -3,2 C 5,0 km/h (1 Bft)
28.01.2023 09:58 -0,3 C 0,5 C 81 % 1028,7 hPa 0,0 l/m 2,3 km/h (1 Bft) O 98 0 min 0,0 UV-I 36 W/m -3,2 C 4,0 km/h (1 Bft)
28.01.2023 09:57 -0,3 C 0,5 C 81 % 1028,7 hPa 0,0 l/m 1,0 km/h (0 Bft) O-NO 78 0 min 0,0 UV-I 35 W/m -3,2 C 4,0 km/h (1 Bft)
28.01.2023 09:56 -0,3 C 0,4 C 81 % 1028,8 hPa 0,0 l/m 0,0 km/h (0 Bft) O-NO 66 0 min 0,0 UV-I 35 W/m -3,2 C 4,0 km/h (1 Bft)
28.01.2023 09:55 -0,3 C 0,4 C 81 % 1028,8 hPa 0,0 l/m 0,0 km/h (0 Bft) NO 49 0 min 0,0 UV-I 36 W/m -3,2 C 4,0 km/h (1 Bft)
28.01.2023 09:54 -0,3 C 0,4 C 81 % 1028,9 hPa 0,0 l/m 0,0 km/h (0 Bft) O 96 0 min 0,0 UV-I 12 W/m -3,2 C 6,0 km/h (2 Bft)
28.01.2023 09:53 -0,3 C 0,5 C 81 % 1028,7 hPa 0,0 l/m 1,3 km/h (1 Bft) NO 40 0 min 0,0 UV-I 39 W/m -3,2 C 12,0 km/h (2 Bft)
28.01.2023 09:52 -0,3 C 0,4 C 81 % 1028,9 hPa 0,0 l/m 5,6 km/h (1 Bft) N 8 0 min 0,0 UV-I 40 W/m -3,2 C 12,0 km/h (2 Bft)
28.01.2023 09:51 -0,3 C 0,5 C 81 % 1028,8 hPa 0,0 l/m 5,2 km/h (1 Bft) N-NW 336 0 min 0,0 UV-I 41 W/m -3,2 C 12,0 km/h (2 Bft)
28.01.2023 09:50 -0,3 C 0,5 C 81 % 1028,8 hPa 0,0 l/m 1,4 km/h (1 Bft) O-NO 74 0 min 0,0 UV-I 42 W/m -3,2 C 8,0 km/h (2 Bft)
28.01.2023 09:49 -0,3 C 0,5 C 81 % 1028,9 hPa 0,0 l/m 2,6 km/h (1 Bft) SO 130 0 min 0,0 UV-I 41 W/m -3,2 C 6,0 km/h (2 Bft)
28.01.2023 09:48 -0,3 C 0,5 C 82 % 1028,9 hPa 0,0 l/m 2,9 km/h (1 Bft) O 88 0 min 0,0 UV-I 40 W/m -3,0 C 6,0 km/h (2 Bft)
28.01.2023 09:47 -0,3 C 0,5 C 82 % 1028,9 hPa 0,0 l/m 3,1 km/h (1 Bft) O-SO 110 0 min 0,0 UV-I 40 W/m -3,0 C 6,0 km/h (2 Bft)
28.01.2023 09:46 -0,3 C 0,5 C 82 % 1028,8 hPa 0,0 l/m 3,1 km/h (1 Bft) O-SO 115 0 min 0,0 UV-I 40 W/m -3,0 C 8,0 km/h (2 Bft)
28.01.2023 09:45 -0,3 C 0,5 C 82 % 1028,9 hPa 0,0 l/m 4,7 km/h (1 Bft) O 100 0 min 0,0 UV-I 41 W/m -3,0 C 9,0 km/h (2 Bft)
28.01.2023 09:44 -0,3 C 0,5 C 82 % 1028,8 hPa 0,0 l/m 3,5 km/h (1 Bft) O-SO 104 0 min 0,0 UV-I 41 W/m -3,0 C 9,0 km/h (2 Bft)
28.01.2023 09:43 -0,4 C 0,5 C 82 % 1028,8 hPa 0,0 l/m 3,9 km/h (1 Bft) SO 125 0 min 0,0 UV-I 39 W/m -3,1 C 9,0 km/h (2 Bft)
28.01.2023 09:42 -0,4 C 0,5 C 82 % 1028,7 hPa 0,0 l/m 2,1 km/h (1 Bft) O-SO 106 0 min 0,0 UV-I 37 W/m -3,1 C 4,0 km/h (1 Bft)
28.01.2023 09:41 -0,4 C 0,5 C 82 % 1028,8 hPa 0,0 l/m 2,3 km/h (1 Bft) O-NO 74 0 min 0,0 UV-I 37 W/m -3,1 C 4,0 km/h (1 Bft)
28.01.2023 09:40 -0,4 C 0,5 C 82 % 1028,7 hPa 0,0 l/m 0,0 km/h (0 Bft) O 79 0 min 0,0 UV-I 37 W/m -3,1 C 4,0 km/h (1 Bft)
28.01.2023 09:39 -0,4 C 0,4 C 82 % 1028,7 hPa 0,0 l/m 1,3 km/h (1 Bft) O-NO 63 0 min 0,0 UV-I 36 W/m -3,1 C 4,0 km/h (1 Bft)
28.01.2023 09:38 -0,4 C 0,3 C 82 % 1028,7 hPa 0,0 l/m 2,3 km/h (1 Bft) NO 55 0 min 0,0 UV-I 34 W/m -3,1 C 5,0 km/h (1 Bft)
28.01.2023 09:37 -0,4 C 0,3 C 82 % 1028,9 hPa 0,0 l/m 0,0 km/h (0 Bft) S 173 0 min 0,0 UV-I 31 W/m -3,1 C 6,0 km/h (2 Bft)
28.01.2023 09:36 -0,4 C 0,3 C 82 % 1028,8 hPa 0,0 l/m 2,3 km/h (1 Bft) O 86 0 min 0,0 UV-I 30 W/m -3,1 C 6,0 km/h (2 Bft)
28.01.2023 09:35 -0,4 C 0,3 C 82 % 1028,6 hPa 0,0 l/m 1,6 km/h (1 Bft) O-NO 61 0 min 0,0 UV-I 29 W/m -3,1 C 5,0 km/h (1 Bft)
28.01.2023 09:34 -0,4 C 0,3 C 82 % 1028,7 hPa 0,0 l/m 1,3 km/h (1 Bft) S 191 0 min 0,0 UV-I 29 W/m -3,1 C 5,0 km/h (1 Bft)
28.01.2023 09:33 -0,4 C 0,3 C 82 % 1028,5 hPa 0,0 l/m 0,0 km/h (0 Bft) O-SO 122 0 min 0,0 UV-I 28 W/m -3,1 C 5,0 km/h (1 Bft)
28.01.2023 09:32 -0,4 C 0,3 C 82 % 1028,9 hPa 0,0 l/m 2,9 km/h (1 Bft) O-SO 112 0 min 0,0 UV-I 26 W/m -3,1 C 5,0 km/h (1 Bft)
28.01.2023 09:31 -0,4 C 0,3 C 82 % 1028,9 hPa 0,0 l/m 2,9 km/h (1 Bft) O-SO 118 0 min 0,0 UV-I 26 W/m -3,1 C 5,0 km/h (1 Bft)
28.01.2023 09:30 -0,4 C 0,2 C 82 % 1028,7 hPa 0,0 l/m 2,3 km/h (1 Bft) O-SO 119 0 min 0,0 UV-I 24 W/m -3,1 C 5,0 km/h (1 Bft)
28.01.2023 09:29 -0,4 C 0,2 C 82 % 1028,7 hPa 0,0 l/m 2,5 km/h (1 Bft) O-SO 122 0 min 0,0 UV-I 23 W/m -3,1 C 5,0 km/h (1 Bft)
28.01.2023 09:28 -0,4 C 0,1 C 82 % 1028,7 hPa 0,0 l/m 1,4 km/h (1 Bft) SO 135 0 min 0,0 UV-I 22 W/m -3,1 C 5,0 km/h (1 Bft)
28.01.2023 09:27 -0,4 C 0,2 C 82 % 1028,6 hPa 0,0 l/m 2,9 km/h (1 Bft) O-SO 110 0 min 0,0 UV-I 22 W/m -3,1 C 5,0 km/h (1 Bft)
28.01.2023 09:26 -0,4 C 0,2 C 82 % 1028,7 hPa 0,0 l/m 3,2 km/h (1 Bft) O-SO 117 0 min 0,0 UV-I 19 W/m -3,1 C 5,0 km/h (1 Bft)
28.01.2023 09:25 -0,4 C 0,1 C 82 % 1028,7 hPa 0,0 l/m 3,6 km/h (1 Bft) O 101 0 min 0,0 UV-I 18 W/m -3,1 C 5,0 km/h (1 Bft)
28.01.2023 09:24 -0,4 C 0,1 C 82 % 1028,6 hPa 0,0 l/m 2,5 km/h (1 Bft) O 100 0 min 0,0 UV-I 18 W/m -3,1 C 5,0 km/h (1 Bft)
28.01.2023 09:23 -0,4 C 0,1 C 82 % 1028,8 hPa 0,0 l/m 2,3 km/h (1 Bft) O 96 0 min 0,0 UV-I 18 W/m -3,1 C 6,0 km/h (2 Bft)
28.01.2023 09:22 -0,4 C 0,1 C 82 % 1028,9 hPa 0,0 l/m 1,4 km/h (1 Bft) NO 34 0 min 0,0 UV-I 15 W/m -3,1 C 6,0 km/h (2 Bft)
28.01.2023 09:21 -0,4 C 0,0 C 82 % 1028,8 hPa 0,0 l/m 2,2 km/h (1 Bft) NO 54 0 min 0,0 UV-I 14 W/m -3,1 C 5,0 km/h (1 Bft)
28.01.2023 09:20 -0,4 C 0,0 C 82 % 1028,6 hPa 0,0 l/m 1,4 km/h (1 Bft) O 93 0 min 0,0 UV-I 14 W/m -3,1 C 5,0 km/h (1 Bft)
28.01.2023 09:19 -0,4 C 0,0 C 82 % 1028,7 hPa 0,0 l/m 2,1 km/h (1 Bft) SO 140 0 min 0,0 UV-I 13 W/m -3,1 C 6,0 km/h (2 Bft)
28.01.2023 09:18 -0,4 C 0,1 C 82 % 1028,7 hPa 0,0 l/m 4,3 km/h (1 Bft) SO 129 0 min 0,0 UV-I 12 W/m -3,1 C 8,0 km/h (2 Bft)
28.01.2023 09:17 -0,4 C 0,1 C 82 % 1028,7 hPa 0,0 l/m 3,6 km/h (1 Bft) NO 35 0 min 0,0 UV-I 12 W/m -3,1 C 8,0 km/h (2 Bft)
28.01.2023 09:16 -0,4 C 0,1 C 82 % 1028,5 hPa 0,0 l/m 3,5 km/h (1 Bft) N-NO 29 0 min 0,0 UV-I 12 W/m -3,1 C 6,0 km/h (2 Bft)
28.01.2023 09:15 -0,4 C 0,0 C 82 % 1028,6 hPa 0,0 l/m 0,0 km/h (0 Bft) O 81 0 min 0,0 UV-I 12 W/m -3,1 C 5,0 km/h (1 Bft)
28.01.2023 09:14 -0,4 C 0,0 C 82 % 1028,7 hPa 0,0 l/m 0,0 km/h (0 Bft) O-SO 105 0 min 0,0 UV-I 12 W/m -3,1 C 5,0 km/h (1 Bft)
28.01.2023 09:13 -0,5 C 0,1 C 82 % 1028,5 hPa 0,0 l/m 0,0 km/h (0 Bft) O 92 0 min 0,0 UV-I 12 W/m -3,2 C 4,0 km/h (1 Bft)
28.01.2023 09:12 -0,5 C 0,1 C 82 % 1028,7 hPa 0,0 l/m 0,0 km/h (0 Bft) O-SO 114 0 min 0,0 UV-I 12 W/m -3,2 C 4,0 km/h (1 Bft)
28.01.2023 09:11 -0,5 C 0,0 C 82 % 1028,6 hPa 0,0 l/m 0,0 km/h (0 Bft) O-NO 62 0 min 0,0 UV-I 12 W/m -3,2 C 5,0 km/h (1 Bft)
28.01.2023 09:10 -0,5 C 0,0 C 82 % 1028,5 hPa 0,0 l/m 1,3 km/h (1 Bft) SO 131 0 min 0,0 UV-I 12 W/m -3,2 C 5,0 km/h (1 Bft)
28.01.2023 09:09 -0,5 C 0,0 C 82 % 1028,6 hPa 0,0 l/m 2,3 km/h (1 Bft) O 79 0 min 0,0 UV-I 12 W/m -3,2 C 5,0 km/h (1 Bft)
28.01.2023 09:08 -0,5 C 0,1 C 82 % 1028,6 hPa 0,0 l/m 2,6 km/h (1 Bft) NO 48 0 min 0,0 UV-I 12 W/m -3,2 C 7,0 km/h (2 Bft)
28.01.2023 09:07 -0,5 C 0,1 C 82 % 1028,6 hPa 0,0 l/m 2,3 km/h (1 Bft) O-NO 63 0 min 0,0 UV-I 12 W/m -3,2 C 7,0 km/h (2 Bft)
28.01.2023 09:06 -0,5 C 0,0 C 82 % 1028,5 hPa 0,0 l/m 2,9 km/h (1 Bft) O-SO 108 0 min 0,0 UV-I 12 W/m -3,2 C 7,0 km/h (2 Bft)
28.01.2023 09:05 -0,5 C 0,1 C 82 % 1028,7 hPa 0,0 l/m 0,0 km/h (0 Bft) N-NO 33 0 min 0,0 UV-I 12 W/m -3,2 C 5,0 km/h (1 Bft)
28.01.2023 09:04 -0,5 C 0,1 C 82 % 1028,5 hPa 0,0 l/m 3,1 km/h (1 Bft) O-NO 67 0 min 0,0 UV-I 12 W/m -3,2 C 5,0 km/h (1 Bft)
28.01.2023 09:03 -0,5 C 0,0 C 82 % 1028,7 hPa 0,0 l/m 2,0 km/h (1 Bft) SO 131 0 min 0,0 UV-I 13 W/m -3,2 C 5,0 km/h (1 Bft)
28.01.2023 09:02 -0,5 C 0,0 C 82 % 1028,6 hPa 0,0 l/m 0,0 km/h (0 Bft) O-SO 114 0 min 0,0 UV-I 12 W/m -3,2 C 4,0 km/h (1 Bft)
28.01.2023 09:01 -0,5 C 0,0 C 82 % 1028,4 hPa 0,0 l/m 0,0 km/h (0 Bft) O-NO 66 0 min 0,0 UV-I 12 W/m -3,2 C 4,0 km/h (1 Bft)
28.01.2023 09:00 -0,5 C 0,0 C 82 % 1028,4 hPa 0,0 l/m 0,0 km/h (0 Bft) S-SO 157 0 min 0,0 UV-I 10 W/m -3,2 C 5,0 km/h (1 Bft)
28.01.2023 08:59 -0,5 C 0,0 C 82 % 1028,4 hPa 0,0 l/m 0,0 km/h (0 Bft) NO 40 0 min 0,0 UV-I 12 W/m -3,2 C 6,0 km/h (2 Bft)
28.01.2023 08:58 -0,5 C 0,0 C 82 % 1028,6 hPa 0,0 l/m 1,4 km/h (1 Bft) O-NO 60 0 min 0,0 UV-I 10 W/m -3,2 C 8,0 km/h (2 Bft)
28.01.2023 08:57 -0,5 C 0,0 C 82 % 1028,4 hPa 0,0 l/m 5,4 km/h (1 Bft) O 95 0 min 0,0 UV-I 12 W/m -3,2 C 8,0 km/h (2 Bft)
28.01.2023 08:56 -0,5 C 0,0 C 82 % 1028,8 hPa 0,0 l/m 2,7 km/h (1 Bft) O-SO 118 0 min 0,0 UV-I 12 W/m -3,2 C 9,0 km/h (2 Bft)
28.01.2023 08:55 -0,5 C 0,0 C 82 % 1028,6 hPa 0,0 l/m 2,5 km/h (1 Bft) O-SO 122 0 min 0,0 UV-I 10 W/m -3,2 C 9,0 km/h (2 Bft)
28.01.2023 08:54 -0,5 C 0,0 C 82 % 1028,5 hPa 0,0 l/m 3,1 km/h (1 Bft) O 99 0 min 0,0 UV-I 10 W/m -3,2 C 6,0 km/h (2 Bft)
28.01.2023 08:53 -0,5 C 0,0 C 82 % 1028,6 hPa 0,0 l/m 3,5 km/h (1 Bft) O-SO 116 0 min 0,0 UV-I 10 W/m -3,2 C 9,0 km/h (2 Bft)
28.01.2023 08:52 -0,5 C 0,0 C 82 % 1028,4 hPa 0,0 l/m 2,2 km/h (1 Bft) SO 141 0 min 0,0 UV-I 9 W/m -3,2 C 9,0 km/h (2 Bft)
28.01.2023 08:51 -0,5 C 0,0 C 82 % 1028,4 hPa 0,0 l/m 1,6 km/h (1 Bft) S-SO 162 0 min 0,0 UV-I 10 W/m -3,2 C 9,0 km/h (2 Bft)
28.01.2023 08:50 -0,5 C 0,0 C 82 % 1028,4 hPa 0,0 l/m 3,6 km/h (1 Bft) O 101 0 min 0,0 UV-I 10 W/m -3,2 C 7,0 km/h (2 Bft)
28.01.2023 08:49 -0,5 C 0,0 C 82 % 1028,6 hPa 0,0 l/m 2,7 km/h (1 Bft) O-NO 57 0 min 0,0 UV-I 10 W/m -3,2 C 7,0 km/h (2 Bft)
28.01.2023 08:48 -0,5 C 0,0 C 82 % 1028,5 hPa 0,0 l/m 2,7 km/h (1 Bft) O-SO 108 0 min 0,0 UV-I 9 W/m -3,2 C 7,0 km/h (2 Bft)
28.01.2023 08:47 -0,5 C 0,0 C 82 % 1028,4 hPa 0,0 l/m 3,9 km/h (1 Bft) O-NO 65 0 min 0,0 UV-I 9 W/m -3,2 C 7,0 km/h (2 Bft)
28.01.2023 08:46 -0,5 C -0,1 C 82 % 1028,4 hPa 0,0 l/m 0,0 km/h (0 Bft) O-NO 76 0 min 0,0 UV-I 9 W/m -3,2 C 9,0 km/h (2 Bft)
28.01.2023 08:45 -0,5 C 0,0 C 82 % 1028,5 hPa 0,0 l/m 3,9 km/h (1 Bft) N-NO 30 0 min 0,0 UV-I 8 W/m -3,2 C 9,0 km/h (2 Bft)
28.01.2023 08:44 -0,5 C 0,0 C 82 % 1028,5 hPa 0,0 l/m 6,4 km/h (2 Bft) N-NO 29 0 min 0,0 UV-I 8 W/m -3,2 C 9,0 km/h (2 Bft)
28.01.2023 08:43 -0,5 C -0,1 C 82 % 1028,5 hPa 0,0 l/m 4,9 km/h (1 Bft) O-NO 58 0 min 0,0 UV-I 8 W/m -3,2 C 9,0 km/h (2 Bft)
28.01.2023 08:42 -0,5 C -0,1 C 82 % 1028,6 hPa 0,0 l/m 2,7 km/h (1 Bft) N-NO 30 0 min 0,0 UV-I 8 W/m -3,2 C 5,0 km/h (1 Bft)
28.01.2023 08:41 -0,5 C -0,1 C 82 % 1028,5 hPa 0,0 l/m 2,9 km/h (1 Bft) O 98 0 min 0,0 UV-I 7 W/m -3,2 C 8,0 km/h (2 Bft)
28.01.2023 08:40 -0,5 C -0,1 C 82 % 1028,5 hPa 0,0 l/m 2,1 km/h (1 Bft) O-SO 107 0 min 0,0 UV-I 7 W/m -3,2 C 8,0 km/h (2 Bft)
28.01.2023 08:39 -0,5 C -0,1 C 82 % 1028,6 hPa 0,0 l/m 4,3 km/h (1 Bft) O 94 0 min 0,0 UV-I 6 W/m -3,2 C 8,0 km/h (2 Bft)
28.01.2023 08:38 -0,5 C -0,1 C 82 % 1028,6 hPa 0,0 l/m 3,8 km/h (1 Bft) O-SO 105 0 min 0,0 UV-I 6 W/m -3,2 C 8,0 km/h (2 Bft)
28.01.2023 08:37 -0,5 C -0,1 C 82 % 1028,7 hPa 0,0 l/m 5,2 km/h (1 Bft) O 100 0 min 0,0 UV-I 6 W/m -3,2 C 8,0 km/h (2 Bft)
28.01.2023 08:36 -0,5 C -0,1 C 82 % 1028,5 hPa 0,0 l/m 6,7 km/h (2 Bft) O-SO 116 0 min 0,0 UV-I 4 W/m -3,2 C 8,0 km/h (2 Bft)
28.01.2023 08:35 -0,5 C -0,1 C 82 % 1028,5 hPa 0,0 l/m 5,1 km/h (1 Bft) O 101 0 min 0,0 UV-I 4 W/m -3,2 C 8,0 km/h (2 Bft)
28.01.2023 08:34 -0,5 C -0,2 C 82 % 1028,6 hPa 0,0 l/m 4,8 km/h (1 Bft) O-SO 110 0 min 0,0 UV-I 3 W/m -3,2 C 8,0 km/h (2 Bft)
28.01.2023 08:33 -0,5 C -0,1 C 82 % 1028,7 hPa 0,0 l/m 1,6 km/h (1 Bft) O-NO 71 0 min 0,0 UV-I 3 W/m -3,2 C 6,0 km/h (2 Bft)
28.01.2023 08:32 -0,5 C -0,1 C 82 % 1028,8 hPa 0,0 l/m 4,5 km/h (1 Bft) O 85 0 min 0,0 UV-I 3 W/m -3,2 C 7,0 km/h (2 Bft)
28.01.2023 08:31 -0,5 C -0,1 C 82 % 1028,6 hPa 0,0 l/m 2,9 km/h (1 Bft) O 92 0 min 0,0 UV-I 3 W/m -3,2 C 7,0 km/h (2 Bft)
28.01.2023 08:30 -0,5 C -0,1 C 82 % 1028,8 hPa 0,0 l/m 2,7 km/h (1 Bft) N-NO 17 0 min 0,0 UV-I 2 W/m -3,2 C 7,0 km/h (2 Bft)
28.01.2023 08:29 -0,5 C -0,1 C 82 % 1028,5 hPa 0,0 l/m 2,3 km/h (1 Bft) O-NO 67 0 min 0,0 UV-I 2 W/m -3,2 C 10,0 km/h (2 Bft)
28.01.2023 08:28 -0,5 C -0,1 C 82 % 1028,8 hPa 0,0 l/m 4,3 km/h (1 Bft) N-NO 16 0 min 0,0 UV-I 2 W/m -3,2 C 10,0 km/h (2 Bft)
28.01.2023 08:27 -0,5 C -0,1 C 82 % 1028,8 hPa 0,0 l/m 3,6 km/h (1 Bft) N 3 0 min 0,0 UV-I 2 W/m -3,2 C 10,0 km/h (2 Bft)
28.01.2023 08:26 -0,5 C -0,1 C 82 % 1028,7 hPa 0,0 l/m 3,1 km/h (1 Bft) N-NO 22 0 min 0,0 UV-I 2 W/m -3,2 C 6,0 km/h (2 Bft)
28.01.2023 08:25 -0,5 C -0,1 C 82 % 1028,7 hPa 0,0 l/m 3,2 km/h (1 Bft) N-NO 33 0 min 0,0 UV-I 1 W/m -3,2 C 9,0 km/h (2 Bft)
28.01.2023 08:24 -0,4 C -0,1 C 82 % 1028,6 hPa 0,0 l/m 3,8 km/h (1 Bft) N-NO 28 0 min 0,0 UV-I 2 W/m -3,1 C 9,0 km/h (2 Bft)
28.01.2023 08:23 -0,4 C -0,1 C 82 % 1028,6 hPa 0,0 l/m 4,9 km/h (1 Bft) O-NO 67 0 min 0,0 UV-I 1 W/m -3,1 C 9,0 km/h (2 Bft)
28.01.2023 08:22 -0,4 C -0,1 C 82 % 1028,6 hPa 0,0 l/m 4,1 km/h (1 Bft) O-SO 116 0 min 0,0 UV-I 0 W/m -3,1 C 8,0 km/h (2 Bft)
28.01.2023 08:21 -0,4 C -0,1 C 82 % 1028,5 hPa 0,0 l/m 3,1 km/h (1 Bft) O-SO 105 0 min 0,0 UV-I 1 W/m -3,1 C 9,0 km/h (2 Bft)
28.01.2023 08:20 -0,5 C -0,1 C 82 % 1028,5 hPa 0,0 l/m 5,4 km/h (1 Bft) N-NO 23 0 min 0,0 UV-I 0 W/m -3,2 C 14,0 km/h (3 Bft)
28.01.2023 08:19 -0,5 C -0,1 C 83 % 1028,7 hPa 0,0 l/m 7,6 km/h (2 Bft) N-NO 24 0 min 0,0 UV-I 0 W/m -3,0 C 14,0 km/h (3 Bft)
28.01.2023 08:18 -0,4 C -0,1 C 83 % 1028,6 hPa 0,0 l/m 4,0 km/h (1 Bft) N 351 0 min 0,0 UV-I 0 W/m -2,9 C 10,0 km/h (2 Bft)
28.01.2023 08:17 -0,5 C -0,1 C 83 % 1028,7 hPa 0,0 l/m 3,2 km/h (1 Bft) N 353 0 min 0,0 UV-I 0 W/m -3,0 C 10,0 km/h (2 Bft)
28.01.2023 08:16 -0,4 C -0,1 C 83 % 1028,7 hPa 0,0 l/m 3,2 km/h (1 Bft) N-NO 22 0 min 0,0 UV-I 1 W/m -2,9 C 6,0 km/h (2 Bft)
28.01.2023 08:15 -0,4 C -0,1 C 83 % 1028,7 hPa 0,0 l/m 3,5 km/h (1 Bft) NO 43 0 min 0,0 UV-I 1 W/m -2,9 C 9,0 km/h (2 Bft)
28.01.2023 08:14 -0,5 C -0,1 C 82 % 1028,5 hPa 0,0 l/m 1,4 km/h (1 Bft) N-NO 19 0 min 0,0 UV-I 0 W/m -3,2 C 15,0 km/h (3 Bft)
28.01.2023 08:13 -0,4 C -0,1 C 82 % 1028,7 hPa 0,0 l/m 4,7 km/h (1 Bft) N-NW 339 0 min 0,0 UV-I 0 W/m -3,1 C 15,0 km/h (3 Bft)
28.01.2023 08:12 -0,4 C -0,1 C 83 % 1028,6 hPa 0,0 l/m 7,7 km/h (2 Bft) N-NW 336 0 min 0,0 UV-I 0 W/m -2,9 C 15,0 km/h (3 Bft)
28.01.2023 08:11 -0,4 C 0,0 C 83 % 1028,6 hPa 0,0 l/m 1,0 km/h (0 Bft) N-NO 18 0 min 0,0 UV-I 0 W/m -2,9 C 10,0 km/h (2 Bft)
28.01.2023 08:10 -0,4 C -0,1 C 83 % 1028,5 hPa 0,0 l/m 1,3 km/h (1 Bft) N-NW 334 0 min 0,0 UV-I 0 W/m -2,9 C 10,0 km/h (2 Bft)
28.01.2023 08:09 -0,4 C -0,1 C 83 % 1028,6 hPa 0,0 l/m 6,3 km/h (2 Bft) N 354 0 min 0,0 UV-I 0 W/m -2,9 C 10,0 km/h (2 Bft)
28.01.2023 08:08 -0,4 C -0,1 C 83 % 1028,4 hPa 0,0 l/m 0,0 km/h (0 Bft) O 96 0 min 0,0 UV-I 0 W/m -2,9 C 9,0 km/h (2 Bft)
28.01.2023 08:07 -0,4 C -0,1 C 83 % 1028,4 hPa 0,0 l/m 1,3 km/h (1 Bft) O-SO 115 0 min 0,0 UV-I 0 W/m -2,9 C 9,0 km/h (2 Bft)
28.01.2023 08:06 -0,4 C 0,0 C 83 % 1028,4 hPa 0,0 l/m 3,6 km/h (1 Bft) O 83 0 min 0,0 UV-I 0 W/m -2,9 C 9,0 km/h (2 Bft)
28.01.2023 08:05 -0,4 C -0,1 C 83 % 1028,5 hPa 0,0 l/m 5,2 km/h (1 Bft) O 99 0 min 0,0 UV-I 0 W/m -2,9 C 9,0 km/h (2 Bft)
28.01.2023 08:04 -0,4 C -0,1 C 83 % 1028,4 hPa 0,0 l/m 2,9 km/h (1 Bft) O-NO 57 0 min 0,0 UV-I 0 W/m -2,9 C 7,0 km/h (2 Bft)
28.01.2023 08:03 -0,4 C -0,1 C 83 % 1028,3 hPa 0,0 l/m 3,6 km/h (1 Bft) O-SO 102 0 min 0,0 UV-I 0 W/m -2,9 C 9,0 km/h (2 Bft)
28.01.2023 08:02 -0,4 C -0,1 C 83 % 1028,4 hPa 0,0 l/m 5,5 km/h (1 Bft) NO 43 0 min 0,0 UV-I 0 W/m -2,9 C 9,0 km/h (2 Bft)
28.01.2023 08:01 -0,4 C -0,1 C 83 % 1028,6 hPa 0,0 l/m 4,0 km/h (1 Bft) NO 55 0 min 0,0 UV-I 0 W/m -2,9 C 6,0 km/h (2 Bft)
28.01.2023 08:00 -0,4 C -0,2 C 83 % 1028,5 hPa 0,0 l/m 3,6 km/h (1 Bft) O-NO 63 0 min 0,0 UV-I 0 W/m -2,9 C 5,0 km/h (1 Bft)
28.01.2023 07:59 -0,4 C -0,1 C 83 % 1028,5 hPa 0,0 l/m 2,1 km/h (1 Bft) SO 126 0 min 0,0 UV-I 0 W/m -2,9 C 5,0 km/h (1 Bft)
28.01.2023 07:58 -0,4 C -0,1 C 83 % 1028,6 hPa 0,0 l/m 1,3 km/h (1 Bft) O 99 0 min 0,0 UV-I 0 W/m -2,9 C 7,0 km/h (2 Bft)
28.01.2023 07:57 -0,4 C 0,0 C 83 % 1028,5 hPa 0,0 l/m 2,1 km/h (1 Bft) O 99 0 min 0,0 UV-I 0 W/m -2,9 C 11,0 km/h (2 Bft)
28.01.2023 07:56 -0,4 C 0,0 C 83 % 1028,7 hPa 0,0 l/m 4,5 km/h (1 Bft) O-NO 57 0 min 0,0 UV-I 0 W/m -2,9 C 11,0 km/h (2 Bft)
28.01.2023 07:55 -0,4 C 0,0 C 83 % 1028,7 hPa 0,0 l/m 7,6 km/h (2 Bft) N-NO 21 0 min 0,0 UV-I 0 W/m -2,9 C 11,0 km/h (2 Bft)
28.01.2023 07:54 -0,4 C -0,1 C 83 % 1028,5 hPa 0,0 l/m 2,3 km/h (1 Bft) O-NO 62 0 min 0,0 UV-I 0 W/m -2,9 C 10,0 km/h (2 Bft)
28.01.2023 07:53 -0,4 C 0,0 C 83 % 1028,6 hPa 0,0 l/m 5,2 km/h (1 Bft) NO 44 0 min 0,0 UV-I 0 W/m -2,9 C 10,0 km/h (2 Bft)
28.01.2023 07:52 -0,4 C -0,1 C 83 % 1028,5 hPa 0,0 l/m 4,7 km/h (1 Bft) NO 49 0 min 0,0 UV-I 0 W/m -2,9 C 10,0 km/h (2 Bft)
28.01.2023 07:51 -0,4 C 0,0 C 83 % 1028,4 hPa 0,0 l/m 4,3 km/h (1 Bft) N-NO 22 0 min 0,0 UV-I 0 W/m -2,9 C 12,0 km/h (2 Bft)
28.01.2023 07:50 -0,4 C 0,0 C 83 % 1028,5 hPa 0,0 l/m 5,6 km/h (1 Bft) N-NO 33 0 min 0,0 UV-I 0 W/m -2,9 C 14,0 km/h (3 Bft)
28.01.2023 07:49 -0,4 C 0,0 C 82 % 1028,4 hPa 0,0 l/m 5,2 km/h (1 Bft) N-NW 337 0 min 0,0 UV-I 0 W/m -3,1 C 16,0 km/h (3 Bft)
28.01.2023 07:48 -0,4 C 0,0 C 83 % 1028,3 hPa 0,0 l/m 11,0 km/h (2 Bft) N-NW 330 0 min 0,0 UV-I 0 W/m -2,9 C 16,0 km/h (3 Bft)
28.01.2023 07:47 -0,4 C 0,0 C 83 % 1028,3 hPa 0,0 l/m 9,4 km/h (2 Bft) N-NW 330 0 min 0,0 UV-I 0 W/m -2,9 C 16,0 km/h (3 Bft)
28.01.2023 07:46 -0,4 C -0,1 C 83 % 1028,3 hPa 0,0 l/m 5,4 km/h (1 Bft) N-NW 333 0 min 0,0 UV-I 0 W/m -2,9 C 10,0 km/h (2 Bft)
28.01.2023 07:45 -0,4 C -0,1 C 83 % 1028,5 hPa 0,0 l/m 4,3 km/h (1 Bft) N-NW 342 0 min 0,0 UV-I 0 W/m -2,9 C 8,0 km/h (2 Bft)
28.01.2023 07:44 -0,4 C 0,0 C 83 % 1028,4 hPa 0,0 l/m 3,1 km/h (1 Bft) NO 36 0 min 0,0 UV-I 0 W/m -2,9 C 7,0 km/h (2 Bft)
28.01.2023 07:43 -0,4 C -0,1 C 83 % 1028,3 hPa 0,0 l/m 4,3 km/h (1 Bft) N-NW 344 0 min 0,0 UV-I 0 W/m -2,9 C 9,0 km/h (2 Bft)
28.01.2023 07:42 -0,4 C -0,1 C 83 % 1028,3 hPa 0,0 l/m 2,0 km/h (1 Bft) N-NO 26 0 min 0,0 UV-I 0 W/m -2,9 C 9,0 km/h (2 Bft)
28.01.2023 07:41 -0,4 C 0,0 C 83 % 1028,3 hPa 0,0 l/m 2,3 km/h (1 Bft) N-NW 347 0 min 0,0 UV-I 0 W/m -2,9 C 14,0 km/h (3 Bft)
28.01.2023 07:40 -0,4 C 0,0 C 83 % 1028,1 hPa 0,0 l/m 5,1 km/h (1 Bft) N 353 0 min 0,0 UV-I 0 W/m -2,9 C 14,0 km/h (3 Bft)
28.01.2023 07:39 -0,4 C 0,0 C 83 % 1028,1 hPa 0,0 l/m 9,9 km/h (2 Bft) N 350 0 min 0,0 UV-I 0 W/m -2,9 C 14,0 km/h (3 Bft)
28.01.2023 07:38 -0,4 C -0,1 C 83 % 1028,3 hPa 0,0 l/m 5,8 km/h (2 Bft) N-NW 329 0 min 0,0 UV-I 0 W/m -2,9 C 10,0 km/h (2 Bft)
28.01.2023 07:37 -0,4 C -0,1 C 83 % 1028,2 hPa 0,0 l/m 5,8 km/h (2 Bft) N 356 0 min 0,0 UV-I 0 W/m -2,9 C 9,0 km/h (2 Bft)
28.01.2023 07:36 -0,3 C 0,0 C 83 % 1028,3 hPa 0,0 l/m 3,1 km/h (1 Bft) N-NW 344 0 min 0,0 UV-I 0 W/m -2,8 C 9,0 km/h (2 Bft)
28.01.2023 07:35 -0,4 C 0,0 C 83 % 1028,3 hPa 0,0 l/m 1,4 km/h (1 Bft) N 7 0 min 0,0 UV-I 0 W/m -2,9 C 7,0 km/h (2 Bft)
28.01.2023 07:34 -0,4 C 0,0 C 83 % 1028,2 hPa 0,0 l/m 1,4 km/h (1 Bft) N 360 0 min 0,0 UV-I 0 W/m -2,9 C 8,0 km/h (2 Bft)
28.01.2023 07:33 -0,4 C 0,0 C 83 % 1028,2 hPa 0,0 l/m 3,3 km/h (1 Bft) O 91 0 min 0,0 UV-I 0 W/m -2,9 C 11,0 km/h (2 Bft)
28.01.2023 07:32 -0,4 C 0,0 C 83 % 1028,2 hPa 0,0 l/m 3,9 km/h (1 Bft) O 81 0 min 0,0 UV-I 0 W/m -2,9 C 11,0 km/h (2 Bft)
28.01.2023 07:31 -0,4 C 0,0 C 83 % 1028,2 hPa 0,0 l/m 4,8 km/h (1 Bft) NO 36 0 min 0,0 UV-I 0 W/m -2,9 C 11,0 km/h (2 Bft)
28.01.2023 07:30 -0,4 C 0,0 C 83 % 1028,2 hPa 0,0 l/m 3,1 km/h (1 Bft) N 5 0 min 0,0 UV-I 0 W/m -2,9 C 12,0 km/h (2 Bft)
28.01.2023 07:29 -0,3 C 0,0 C 83 % 1028,3 hPa 0,0 l/m 3,2 km/h (1 Bft) N 11 0 min 0,0 UV-I 0 W/m -2,8 C 12,0 km/h (2 Bft)
28.01.2023 07:28 -0,4 C 0,0 C 83 % 1028,2 hPa 0,0 l/m 4,3 km/h (1 Bft) N-NW 334 0 min 0,0 UV-I 0 W/m -2,9 C 11,0 km/h (2 Bft)
28.01.2023 07:27 -0,4 C 0,0 C 83 % 1028,1 hPa 0,0 l/m 3,5 km/h (1 Bft) N 360 0 min 0,0 UV-I 0 W/m -2,9 C 11,0 km/h (2 Bft)
28.01.2023 07:26 -0,4 C 0,0 C 83 % 1028,2 hPa 0,0 l/m 6,5 km/h (2 Bft) N 350 0 min 0,0 UV-I 0 W/m -2,9 C 9,0 km/h (2 Bft)
28.01.2023 07:25 -0,3 C 0,0 C 83 % 1028,1 hPa 0,0 l/m 0,0 km/h (0 Bft) N-NO 20 0 min 0,0 UV-I 0 W/m -2,8 C 9,0 km/h (2 Bft)
28.01.2023 07:24 -0,3 C 0,0 C 83 % 1028,2 hPa 0,0 l/m 2,2 km/h (1 Bft) N 8 0 min 0,0 UV-I 0 W/m -2,8 C 9,0 km/h (2 Bft)
28.01.2023 07:23 -0,4 C 0,0 C 83 % 1028,2 hPa 0,0 l/m 4,5 km/h (1 Bft) N 357 0 min 0,0 UV-I 0 W/m -2,9 C 9,0 km/h (2 Bft)
28.01.2023 07:22 -0,4 C 0,0 C 83 % 1028,1 hPa 0,0 l/m 1,6 km/h (1 Bft) NO 55 0 min 0,0 UV-I 0 W/m -2,9 C 9,0 km/h (2 Bft)
28.01.2023 07:21 -0,3 C 0,0 C 83 % 1028,1 hPa 0,0 l/m 3,1 km/h (1 Bft) N-NO 22 0 min 0,0 UV-I 0 W/m -2,8 C 9,0 km/h (2 Bft)
28.01.2023 07:20 -0,3 C 0,0 C 83 % 1028,3 hPa 0,0 l/m 3,6 km/h (1 Bft) N 8 0 min 0,0 UV-I 0 W/m -2,8 C 9,0 km/h (2 Bft)
28.01.2023 07:19 -0,3 C 0,1 C 83 % 1028,2 hPa 0,0 l/m 4,9 km/h (1 Bft) N-NO 16 0 min 0,0 UV-I 0 W/m -2,8 C 11,0 km/h (2 Bft)
28.01.2023 07:18 -0,4 C 0,0 C 83 % 1028,2 hPa 0,0 l/m 3,6 km/h (1 Bft) N-NW 339 0 min 0,0 UV-I 0 W/m -2,9 C 11,0 km/h (2 Bft)
28.01.2023 07:17 -0,3 C 0,0 C 83 % 1028,3 hPa 0,0 l/m 3,1 km/h (1 Bft) N-NO 26 0 min 0,0 UV-I 0 W/m -2,8 C 13,0 km/h (3 Bft)
28.01.2023 07:16 -0,3 C 0,0 C 83 % 1028,1 hPa 0,0 l/m 4,5 km/h (1 Bft) N-NO 13 0 min 0,0 UV-I 0 W/m -2,8 C 16,0 km/h (3 Bft)
28.01.2023 07:15 -0,3 C 0,0 C 83 % 1028,1 hPa 0,0 l/m 7,7 km/h (2 Bft) N 356 0 min 0,0 UV-I 0 W/m -2,8 C 16,0 km/h (3 Bft)
28.01.2023 07:14 -0,3 C 0,0 C 83 % 1028,3 hPa 0,0 l/m 10,1 km/h (2 Bft) N-NW 343 0 min 0,0 UV-I 0 W/m -2,8 C 16,0 km/h (3 Bft)
28.01.2023 07:13 -0,3 C 0,0 C 84 % 1028,1 hPa 0,0 l/m 3,8 km/h (1 Bft) N-NW 344 0 min 0,0 UV-I 0 W/m -2,7 C 8,0 km/h (2 Bft)
28.01.2023 07:12 -0,3 C 0,0 C 84 % 1028,2 hPa 0,0 l/m 1,3 km/h (1 Bft) N 4 0 min 0,0 UV-I 0 W/m -2,7 C 9,0 km/h (2 Bft)
28.01.2023 07:11 -0,4 C 0,0 C 84 % 1028,0 hPa 0,0 l/m 3,9 km/h (1 Bft) N 2 0 min 0,0 UV-I 0 W/m -2,8 C 9,0 km/h (2 Bft)
28.01.2023 07:10 -0,3 C -0,1 C 84 % 1028,2 hPa 0,0 l/m 4,5 km/h (1 Bft) N-NO 23 0 min 0,0 UV-I 0 W/m -2,7 C 7,0 km/h (2 Bft)
28.01.2023 07:09 -0,3 C -0,1 C 84 % 1028,1 hPa 0,0 l/m 0,0 km/h (0 Bft) N 355 0 min 0,0 UV-I 0 W/m -2,7 C 5,0 km/h (1 Bft)
28.01.2023 07:08 -0,3 C 0,0 C 84 % 1028,1 hPa 0,0 l/m 0,0 km/h (0 Bft) O 92 0 min 0,0 UV-I 0 W/m -2,7 C 5,0 km/h (1 Bft)
28.01.2023 07:07 -0,3 C 0,0 C 84 % 1028,1 hPa 0,0 l/m 1,0 km/h (0 Bft) O-SO 123 0 min 0,0 UV-I 0 W/m -2,7 C 7,0 km/h (2 Bft)
28.01.2023 07:06 -0,3 C 0,0 C 84 % 1028,0 hPa 0,0 l/m 3,6 km/h (1 Bft) NO 52 0 min 0,0 UV-I 0 W/m -2,7 C 9,0 km/h (2 Bft)
28.01.2023 07:05 -0,3 C 0,0 C 84 % 1028,1 hPa 0,0 l/m 3,3 km/h (1 Bft) N-NO 31 0 min 0,0 UV-I 0 W/m -2,7 C 12,0 km/h (2 Bft)
28.01.2023 07:04 -0,3 C 0,1 C 84 % 1028,1 hPa 0,0 l/m 1,0 km/h (0 Bft) N 353 0 min 0,0 UV-I 0 W/m -2,7 C 12,0 km/h (2 Bft)
28.01.2023 07:03 -0,3 C 0,0 C 84 % 1028,2 hPa 0,0 l/m 6,4 km/h (2 Bft) N 356 0 min 0,0 UV-I 0 W/m -2,7 C 9,0 km/h (2 Bft)
28.01.2023 07:02 -0,3 C 0,0 C 84 % 1028,1 hPa 0,0 l/m 5,6 km/h (1 Bft) N 3 0 min 0,0 UV-I 0 W/m -2,7 C 11,0 km/h (2 Bft)
28.01.2023 07:01 -0,3 C 0,0 C 84 % 1028,1 hPa 0,0 l/m 5,1 km/h (1 Bft) N 6 0 min 0,0 UV-I 0 W/m -2,7 C 13,0 km/h (3 Bft)
28.01.2023 07:00 -0,3 C 0,0 C 84 % 1028,1 hPa 0,0 l/m 4,5 km/h (1 Bft) N-NW 342 0 min 0,0 UV-I 0 W/m -2,7 C 14,0 km/h (3 Bft)
28.01.2023 06:59 -0,3 C 0,0 C 84 % 1028,1 hPa 0,0 l/m 8,4 km/h (2 Bft) N 354 0 min 0,0 UV-I 0 W/m -2,7 C 14,0 km/h (3 Bft)
28.01.2023 06:58 -0,3 C -0,1 C 84 % 1027,9 hPa 0,0 l/m 6,1 km/h (2 Bft) N-NW 345 0 min 0,0 UV-I 0 W/m -2,7 C 14,0 km/h (3 Bft)
28.01.2023 06:57 -0,3 C 0,0 C 84 % 1028,0 hPa 0,0 l/m 1,0 km/h (0 Bft) O-NO 69 0 min 0,0 UV-I 0 W/m -2,7 C 9,0 km/h (2 Bft)
28.01.2023 06:56 -0,3 C 0,0 C 84 % 1028,1 hPa 0,0 l/m 3,3 km/h (1 Bft) NO 43 0 min 0,0 UV-I 0 W/m -2,7 C 9,0 km/h (2 Bft)
28.01.2023 06:55 -0,3 C 0,0 C 84 % 1027,8 hPa 0,0 l/m 2,0 km/h (1 Bft) N-NO 19 0 min 0,0 UV-I 0 W/m -2,7 C 7,0 km/h (2 Bft)
28.01.2023 06:54 -0,3 C 0,1 C 85 % 1028,1 hPa 0,0 l/m 1,4 km/h (1 Bft) NO 39 0 min 0,0 UV-I 0 W/m -2,5 C 9,0 km/h (2 Bft)
28.01.2023 06:53 -0,3 C 0,0 C 85 % 1028,0 hPa 0,0 l/m 5,1 km/h (1 Bft) NO 46 0 min 0,0 UV-I 0 W/m -2,5 C 10,0 km/h (2 Bft)
28.01.2023 06:52 -0,3 C 0,0 C 85 % 1028,1 hPa 0,0 l/m 6,0 km/h (2 Bft) N 353 0 min 0,0 UV-I 0 W/m -2,5 C 10,0 km/h (2 Bft)
28.01.2023 06:51 -0,3 C 0,0 C 85 % 1028,1 hPa 0,0 l/m 5,5 km/h (1 Bft) N 359 0 min 0,0 UV-I 0 W/m -2,5 C 10,0 km/h (2 Bft)
28.01.2023 06:50 -0,3 C 0,0 C 85 % 1027,9 hPa 0,0 l/m 4,2 km/h (1 Bft) N-NO 23 0 min 0,0 UV-I 0 W/m -2,5 C 9,0 km/h (2 Bft)
28.01.2023 06:49 -0,3 C 0,0 C 85 % 1027,9 hPa 0,0 l/m 0,0 km/h (0 Bft) N-NO 28 0 min 0,0 UV-I 0 W/m -2,5 C 6,0 km/h (2 Bft)
28.01.2023 06:48 -0,3 C 0,0 C 85 % 1027,8 hPa 0,0 l/m 2,0 km/h (1 Bft) N 7 0 min 0,0 UV-I 0 W/m -2,5 C 6,0 km/h (2 Bft)
28.01.2023 06:47 -0,3 C 0,0 C 85 % 1027,7 hPa 0,0 l/m 0,0 km/h (0 Bft) O-NO 68 0 min 0,0 UV-I 0 W/m -2,5 C 5,0 km/h (1 Bft)
28.01.2023 06:46 -0,3 C 0,0 C 85 % 1028,0 hPa 0,0 l/m 2,5 km/h (1 Bft) NO 56 0 min 0,0 UV-I 0 W/m -2,5 C 9,0 km/h (2 Bft)
28.01.2023 06:45 -0,3 C 0,0 C 85 % 1027,9 hPa 0,0 l/m 2,7 km/h (1 Bft) O-NO 70 0 min 0,0 UV-I 0 W/m -2,5 C 9,0 km/h (2 Bft)
28.01.2023 06:44 -0,3 C 0,0 C 85 % 1027,9 hPa 0,0 l/m 3,9 km/h (1 Bft) N 354 0 min 0,0 UV-I 0 W/m -2,5 C 9,0 km/h (2 Bft)
28.01.2023 06:43 -0,3 C 0,0 C 85 % 1027,9 hPa 0,0 l/m 3,8 km/h (1 Bft) N 352 0 min 0,0 UV-I 0 W/m -2,5 C 7,0 km/h (2 Bft)
28.01.2023 06:42 -0,3 C 0,0 C 85 % 1027,9 hPa 0,0 l/m 2,6 km/h (1 Bft) N 10 0 min 0,0 UV-I 0 W/m -2,5 C 5,0 km/h (1 Bft)
28.01.2023 06:41 -0,3 C 0,0 C 85 % 1028,0 hPa 0,0 l/m 0,0 km/h (0 Bft) NO 45 0 min 0,0 UV-I 0 W/m -2,5 C 9,0 km/h (2 Bft)
28.01.2023 06:40 -0,3 C 0,0 C 86 % 1028,0 hPa 0,0 l/m 3,5 km/h (1 Bft) N-NO 17 0 min 0,0 UV-I 0 W/m -2,3 C 9,0 km/h (2 Bft)
28.01.2023 06:39 -0,3 C 0,0 C 86 % 1027,9 hPa 0,0 l/m 5,4 km/h (1 Bft) N-NW 337 0 min 0,0 UV-I 0 W/m -2,3 C 9,0 km/h (2 Bft)
28.01.2023 06:38 -0,3 C 0,0 C 86 % 1027,7 hPa 0,0 l/m 0,0 km/h (0 Bft) NO 41 0 min 0,0 UV-I 0 W/m -2,3 C 9,0 km/h (2 Bft)
28.01.2023 06:37 -0,3 C 0,1 C 86 % 1027,9 hPa 0,0 l/m 5,0 km/h (1 Bft) N-NO 20 0 min 0,0 UV-I 0 W/m -2,3 C 9,0 km/h (2 Bft)
28.01.2023 06:36 -0,3 C 0,1 C 86 % 1028,0 hPa 0,0 l/m 3,2 km/h (1 Bft) NO 40 0 min 0,0 UV-I 0 W/m -2,3 C 7,0 km/h (2 Bft)
28.01.2023 06:35 -0,3 C 0,1 C 86 % 1028,0 hPa 0,0 l/m 1,0 km/h (0 Bft) NO 39 0 min 0,0 UV-I 0 W/m -2,3 C 9,0 km/h (2 Bft)
28.01.2023 06:34 -0,3 C 0,0 C 86 % 1027,9 hPa 0,0 l/m 3,5 km/h (1 Bft) N-NO 14 0 min 0,0 UV-I 0 W/m -2,3 C 10,0 km/h (2 Bft)
28.01.2023 06:33 -0,3 C 0,0 C 87 % 1028,0 hPa 0,0 l/m 7,4 km/h (2 Bft) NO 40 0 min 0,0 UV-I 0 W/m -2,2 C 11,0 km/h (2 Bft)
28.01.2023 06:32 -0,3 C 0,0 C 87 % 1027,8 hPa 0,0 l/m 3,5 km/h (1 Bft) N 354 0 min 0,0 UV-I 0 W/m -2,2 C 11,0 km/h (2 Bft)
28.01.2023 06:31 -0,3 C 0,0 C 87 % 1027,9 hPa 0,0 l/m 3,6 km/h (1 Bft) O-NO 76 0 min 0,0 UV-I 0 W/m -2,2 C 5,0 km/h (1 Bft)
28.01.2023 06:30 -0,3 C 0,0 C 87 % 1027,8 hPa 0,0 l/m 0,0 km/h (0 Bft) NO 56 0 min 0,0 UV-I 0 W/m -2,2 C 3,0 km/h (1 Bft)
28.01.2023 06:29 -0,3 C 0,0 C 87 % 1027,7 hPa 0,0 l/m 0,0 km/h (0 Bft) O-NO 75 0 min 0,0 UV-I 0 W/m -2,2 C 5,0 km/h (1 Bft)
28.01.2023 06:28 -0,3 C 0,0 C 87 % 1027,9 hPa 0,0 l/m 0,0 km/h (0 Bft) SO 140 0 min 0,0 UV-I 0 W/m -2,2 C 6,0 km/h (2 Bft)
28.01.2023 06:27 -0,3 C 0,0 C 87 % 1027,9 hPa 0,0 l/m 0,0 km/h (0 Bft) O-SO 109 0 min 0,0 UV-I 0 W/m -2,2 C 6,0 km/h (2 Bft)
28.01.2023 06:26 -0,3 C 0,0 C 87 % 1027,9 hPa 0,0 l/m 1,6 km/h (1 Bft) NO 38 0 min 0,0 UV-I 0 W/m -2,2 C 8,0 km/h (2 Bft)
28.01.2023 06:25 -0,3 C 0,1 C 87 % 1027,8 hPa 0,0 l/m 2,3 km/h (1 Bft) NO 54 0 min 0,0 UV-I 0 W/m -2,2 C 8,0 km/h (2 Bft)
28.01.2023 06:24 -0,3 C 0,1 C 87 % 1027,8 hPa 0,0 l/m 5,2 km/h (1 Bft) N 4 0 min 0,0 UV-I 0 W/m -2,2 C 9,0 km/h (2 Bft)
28.01.2023 06:23 -0,3 C 0,1 C 87 % 1027,8 hPa 0,0 l/m 4,5 km/h (1 Bft) N 4 0 min 0,0 UV-I 0 W/m -2,2 C 9,0 km/h (2 Bft)
28.01.2023 06:22 -0,3 C 0,0 C 87 % 1027,9 hPa 0,0 l/m 4,5 km/h (1 Bft) N 8 0 min 0,0 UV-I 0 W/m -2,2 C 9,0 km/h (2 Bft)
28.01.2023 06:21 -0,3 C 0,1 C 87 % 1027,8 hPa 0,0 l/m 1,3 km/h (1 Bft) N-NO 21 0 min 0,0 UV-I 0 W/m -2,2 C 9,0 km/h (2 Bft)
28.01.2023 06:20 -0,3 C 0,0 C 87 % 1027,7 hPa 0,0 l/m 2,7 km/h (1 Bft) NW 323 0 min 0,0 UV-I 0 W/m -2,2 C 9,0 km/h (2 Bft)
28.01.2023 06:19 -0,3 C 0,0 C 87 % 1027,7 hPa 0,0 l/m 3,4 km/h (1 Bft) NW 326 0 min 0,0 UV-I 0 W/m -2,2 C 8,0 km/h (2 Bft)
28.01.2023 06:18 -0,3 C 0,1 C 87 % 1027,9 hPa 0,0 l/m 1,0 km/h (0 Bft) N-NO 12 0 min 0,0 UV-I 0 W/m -2,2 C 7,0 km/h (2 Bft)
28.01.2023 06:17 -0,3 C 0,0 C 87 % 1028,0 hPa 0,0 l/m 2,7 km/h (1 Bft) N-NO 23 0 min 0,0 UV-I 0 W/m -2,2 C 7,0 km/h (2 Bft)
28.01.2023 06:16 -0,3 C 0,1 C 87 % 1028,0 hPa 0,0 l/m 1,0 km/h (0 Bft) N-NO 17 0 min 0,0 UV-I 0 W/m -2,2 C 7,0 km/h (2 Bft)
28.01.2023 06:15 -0,3 C 0,0 C 87 % 1027,8 hPa 0,0 l/m 2,6 km/h (1 Bft) N-NO 17 0 min 0,0 UV-I 0 W/m -2,2 C 9,0 km/h (2 Bft)
28.01.2023 06:14 -0,3 C 0,1 C 87 % 1027,9 hPa 0,0 l/m 3,4 km/h (1 Bft) N 357 0 min 0,0 UV-I 0 W/m -2,2 C 9,0 km/h (2 Bft)
28.01.2023 06:13 -0,3 C 0,0 C 87 % 1027,9 hPa 0,0 l/m 2,2 km/h (1 Bft) N-NO 21 0 min 0,0 UV-I 0 W/m -2,2 C 5,0 km/h (1 Bft)
28.01.2023 06:12 -0,3 C 0,1 C 87 % 1028,0 hPa 0,0 l/m 1,3 km/h (1 Bft) O 80 0 min 0,0 UV-I 0 W/m -2,2 C 5,0 km/h (1 Bft)
28.01.2023 06:11 -0,3 C 0,1 C 87 % 1028,0 hPa 0,0 l/m 1,3 km/h (1 Bft) NO 42 0 min 0,0 UV-I 0 W/m -2,2 C 5,0 km/h (1 Bft)
28.01.2023 06:10 -0,3 C 0,1 C 87 % 1027,9 hPa 0,0 l/m 2,5 km/h (1 Bft) NW 314 0 min 0,0 UV-I 0 W/m -2,2 C 7,0 km/h (2 Bft)
28.01.2023 06:09 -0,3 C 0,1 C 88 % 1027,9 hPa 0,0 l/m 1,3 km/h (1 Bft) N 3 0 min 0,0 UV-I 0 W/m -2,0 C 9,0 km/h (2 Bft)
28.01.2023 06:08 -0,3 C 0,0 C 88 % 1027,8 hPa 0,0 l/m 4,3 km/h (1 Bft) N-NW 338 0 min 0,0 UV-I 0 W/m -2,0 C 9,0 km/h (2 Bft)
28.01.2023 06:07 -0,3 C 0,0 C 88 % 1027,8 hPa 0,0 l/m 1,6 km/h (1 Bft) N-NO 26 0 min 0,0 UV-I 0 W/m -2,0 C 6,0 km/h (2 Bft)
28.01.2023 06:06 -0,3 C 0,0 C 88 % 1027,7 hPa 0,0 l/m 3,6 km/h (1 Bft) N-NW 346 0 min 0,0 UV-I 0 W/m -2,0 C 7,0 km/h (2 Bft)
28.01.2023 06:05 -0,3 C 0,0 C 88 % 1027,7 hPa 0,0 l/m 1,4 km/h (1 Bft) N 7 0 min 0,0 UV-I 0 W/m -2,0 C 7,0 km/h (2 Bft)
28.01.2023 06:04 -0,3 C 0,0 C 88 % 1027,9 hPa 0,0 l/m 1,7 km/h (1 Bft) N-NO 17 0 min 0,0 UV-I 0 W/m -2,0 C 9,0 km/h (2 Bft)
28.01.2023 06:03 -0,3 C 0,0 C 88 % 1027,9 hPa 0,0 l/m 1,0 km/h (0 Bft) N-NO 19 0 min 0,0 UV-I 0 W/m -2,0 C 9,0 km/h (2 Bft)
28.01.2023 06:02 -0,3 C 0,0 C 88 % 1027,9 hPa 0,0 l/m 3,1 km/h (1 Bft) N-NW 330 0 min 0,0 UV-I 0 W/m -2,0 C 9,0 km/h (2 Bft)
28.01.2023 06:01 -0,3 C 0,1 C 88 % 1027,8 hPa 0,0 l/m 2,0 km/h (1 Bft) N-NW 348 0 min 0,0 UV-I 0 W/m -2,0 C 9,0 km/h (2 Bft)
28.01.2023 06:00 -0,3 C 0,1 C 88 % 1027,7 hPa 0,0 l/m 1,6 km/h (1 Bft) O-NO 70 0 min 0,0 UV-I 0 W/m -2,0 C 7,0 km/h (2 Bft)
28.01.2023 05:59 -0,3 C 0,0 C 88 % 1027,7 hPa 0,0 l/m 2,5 km/h (1 Bft) N 2 0 min 0,0 UV-I 0 W/m -2,0 C 7,0 km/h (2 Bft)
28.01.2023 05:58 -0,3 C 0,0 C 88 % 1027,8 hPa 0,0 l/m 1,6 km/h (1 Bft) NO 35 0 min 0,0 UV-I 0 W/m -2,0 C 7,0 km/h (2 Bft)
28.01.2023 05:57 -0,3 C 0,0 C 88 % 1027,8 hPa 0,0 l/m 2,1 km/h (1 Bft) N 4 0 min 0,0 UV-I 0 W/m -2,0 C 6,0 km/h (2 Bft)
28.01.2023 05:56 -0,3 C 0,0 C 88 % 1027,7 hPa 0,0 l/m 0,0 km/h (0 Bft) N 3 0 min 0,0 UV-I 0 W/m -2,0 C 4,0 km/h (1 Bft)
28.01.2023 05:55 -0,3 C 0,1 C 88 % 1027,7 hPa 0,0 l/m 1,3 km/h (1 Bft) N 6 0 min 0,0 UV-I 0 W/m -2,0 C 4,0 km/h (1 Bft)
28.01.2023 05:54 -0,3 C 0,1 C 88 % 1027,9 hPa 0,0 l/m 1,0 km/h (0 Bft) N 357 0 min 0,0 UV-I 0 W/m -2,0 C 4,0 km/h (1 Bft)
28.01.2023 05:53 -0,3 C 0,1 C 88 % 1027,6 hPa 0,0 l/m 0,0 km/h (0 Bft) N 7 0 min 0,0 UV-I 0 W/m -2,0 C 6,0 km/h (2 Bft)
28.01.2023 05:52 -0,3 C 0,1 C 88 % 1027,7 hPa 0,0 l/m 0,0 km/h (0 Bft) NW 317 0 min 0,0 UV-I 0 W/m -2,0 C 6,0 km/h (2 Bft)
28.01.2023 05:51 -0,3 C 0,0 C 88 % 1027,6 hPa 0,0 l/m 1,4 km/h (1 Bft) N 351 0 min 0,0 UV-I 0 W/m -2,0 C 6,0 km/h (2 Bft)
28.01.2023 05:50 -0,3 C 0,1 C 88 % 1027,8 hPa 0,0 l/m 0,0 km/h (0 Bft) N 6 0 min 0,0 UV-I 0 W/m -2,0 C 5,0 km/h (1 Bft)
28.01.2023 05:49 -0,3 C 0,0 C 88 % 1027,7 hPa 0,0 l/m 0,0 km/h (0 Bft) O-NO 71 0 min 0,0 UV-I 0 W/m -2,0 C 4,0 km/h (1 Bft)
28.01.2023 05:48 -0,3 C 0,1 C 88 % 1027,9 hPa 0,0 l/m 1,3 km/h (1 Bft) N-NO 33 0 min 0,0 UV-I 0 W/m -2,0 C 5,0 km/h (1 Bft)
28.01.2023 05:47 -0,3 C 0,1 C 88 % 1027,9 hPa 0,0 l/m 1,3 km/h (1 Bft) N-NO 28 0 min 0,0 UV-I 0 W/m -2,0 C 5,0 km/h (1 Bft)
28.01.2023 05:46 -0,3 C 0,0 C 88 % 1027,8 hPa 0,0 l/m 2,5 km/h (1 Bft) N-NO 25 0 min 0,0 UV-I 0 W/m -2,0 C 7,0 km/h (2 Bft)
28.01.2023 05:45 -0,3 C 0,0 C 88 % 1027,7 hPa 0,0 l/m 2,3 km/h (1 Bft) N-NW 348 0 min 0,0 UV-I 0 W/m -2,0 C 7,0 km/h (2 Bft)
28.01.2023 05:44 -0,3 C 0,0 C 88 % 1027,8 hPa 0,0 l/m 4,1 km/h (1 Bft) N-NW 342 0 min 0,0 UV-I 0 W/m -2,0 C 7,0 km/h (2 Bft)
28.01.2023 05:43 -0,3 C 0,1 C 88 % 1027,8 hPa 0,0 l/m 1,3 km/h (1 Bft) NO 38 0 min 0,0 UV-I 0 W/m -2,0 C 9,0 km/h (2 Bft)
28.01.2023 05:42 -0,3 C 0,1 C 88 % 1027,9 hPa 0,0 l/m 0,0 km/h (0 Bft) N-NO 12 0 min 0,0 UV-I 0 W/m -2,0 C 9,0 km/h (2 Bft)
28.01.2023 05:41 -0,3 C 0,1 C 88 % 1027,7 hPa 0,0 l/m 2,7 km/h (1 Bft) N 351 0 min 0,0 UV-I 0 W/m -2,0 C 9,0 km/h (2 Bft)
28.01.2023 05:40 -0,3 C 0,0 C 88 % 1027,7 hPa 0,0 l/m 2,3 km/h (1 Bft) N 360 0 min 0,0 UV-I 0 W/m -2,0 C 6,0 km/h (2 Bft)
28.01.2023 05:39 -0,3 C 0,0 C 88 % 1027,7 hPa 0,0 l/m 2,7 km/h (1 Bft) N 360 0 min 0,0 UV-I 0 W/m -2,0 C 6,0 km/h (2 Bft)
28.01.2023 05:38 -0,3 C 0,0 C 88 % 1027,9 hPa 0,0 l/m 3,5 km/h (1 Bft) NW 326 0 min 0,0 UV-I 0 W/m -2,0 C 6,0 km/h (2 Bft)
28.01.2023 05:37 -0,3 C 0,0 C 88 % 1027,8 hPa 0,0 l/m 0,0 km/h (0 Bft) N 9 0 min 0,0 UV-I 0 W/m -2,0 C 3,0 km/h (1 Bft)
28.01.2023 05:36 -0,3 C 0,0 C 88 % 1027,8 hPa 0,0 l/m 0,0 km/h (0 Bft) O-NO 67 0 min 0,0 UV-I 0 W/m -2,0 C 3,0 km/h (1 Bft)
28.01.2023 05:35 -0,3 C 0,0 C 88 % 1027,8 hPa 0,0 l/m 1,0 km/h (0 Bft) NO 37 0 min 0,0 UV-I 0 W/m -2,0 C 8,0 km/h (2 Bft)
28.01.2023 05:34 -0,3 C 0,1 C 88 % 1027,8 hPa 0,0 l/m 1,4 km/h (1 Bft) N-NO 12 0 min 0,0 UV-I 0 W/m -2,0 C 8,0 km/h (2 Bft)
28.01.2023 05:33 -0,3 C 0,1 C 88 % 1027,8 hPa 0,0 l/m 2,7 km/h (1 Bft) N-NO 28 0 min 0,0 UV-I 0 W/m -2,0 C 8,0 km/h (2 Bft)
28.01.2023 05:32 -0,3 C 0,1 C 88 % 1027,6 hPa 0,0 l/m 2,7 km/h (1 Bft) NO 56 0 min 0,0 UV-I 0 W/m -2,0 C 6,0 km/h (2 Bft)
28.01.2023 05:31 -0,3 C 0,1 C 88 % 1027,6 hPa 0,0 l/m 1,4 km/h (1 Bft) N-NW 340 0 min 0,0 UV-I 0 W/m -2,0 C 6,0 km/h (2 Bft)
28.01.2023 05:30 -0,3 C 0,1 C 88 % 1027,6 hPa 0,0 l/m 2,6 km/h (1 Bft) O-NO 59 0 min 0,0 UV-I 0 W/m -2,0 C 5,0 km/h (1 Bft)
28.01.2023 05:29 -0,3 C 0,1 C 88 % 1027,8 hPa 0,0 l/m 1,0 km/h (0 Bft) N 4 0 min 0,0 UV-I 0 W/m -2,0 C 6,0 km/h (2 Bft)
28.01.2023 05:28 -0,3 C 0,1 C 88 % 1027,8 hPa 0,0 l/m 1,6 km/h (1 Bft) N-NO 12 0 min 0,0 UV-I 0 W/m -2,0 C 7,0 km/h (2 Bft)
28.01.2023 05:27 -0,3 C 0,0 C 88 % 1027,9 hPa 0,0 l/m 2,3 km/h (1 Bft) N-NW 340 0 min 0,0 UV-I 0 W/m -2,0 C 7,0 km/h (2 Bft)
28.01.2023 05:26 -0,3 C 0,0 C 88 % 1027,8 hPa 0,0 l/m 3,1 km/h (1 Bft) NW 323 0 min 0,0 UV-I 0 W/m -2,0 C 7,0 km/h (2 Bft)
28.01.2023 05:25 -0,3 C 0,0 C 88 % 1027,7 hPa 0,0 l/m 2,5 km/h (1 Bft) NW 315 0 min 0,0 UV-I 0 W/m -2,0 C 7,0 km/h (2 Bft)
28.01.2023 05:24 -0,3 C 0,0 C 88 % 1028,0 hPa 0,0 l/m 2,3 km/h (1 Bft) N-NO 29 0 min 0,0 UV-I 0 W/m -2,0 C 5,0 km/h (1 Bft)
28.01.2023 05:23 -0,3 C 0,0 C 88 % 1028,0 hPa 0,0 l/m 1,0 km/h (0 Bft) O-NO 75 0 min 0,0 UV-I 0 W/m -2,0 C 5,0 km/h (1 Bft)
28.01.2023 05:22 -0,3 C 0,0 C 88 % 1027,7 hPa 0,0 l/m 0,0 km/h (0 Bft) NW 323 0 min 0,0 UV-I 0 W/m -2,0 C 7,0 km/h (2 Bft)
28.01.2023 05:21 -0,3 C 0,1 C 88 % 1027,9 hPa 0,0 l/m 2,0 km/h (1 Bft) N 8 0 min 0,0 UV-I 0 W/m -2,0 C 10,0 km/h (2 Bft)
28.01.2023 05:20 -0,3 C 0,0 C 88 % 1027,7 hPa 0,0 l/m 3,5 km/h (1 Bft) N-NW 338 0 min 0,0 UV-I 0 W/m -2,0 C 10,0 km/h (2 Bft)
28.01.2023 05:19 -0,3 C 0,0 C 88 % 1027,7 hPa 0,0 l/m 3,1 km/h (1 Bft) N 352 0 min 0,0 UV-I 0 W/m -2,0 C 9,0 km/h (2 Bft)
28.01.2023 05:18 -0,3 C 0,1 C 88 % 1027,7 hPa 0,0 l/m 3,9 km/h (1 Bft) N-NW 338 0 min 0,0 UV-I 0 W/m -2,0 C 7,0 km/h (2 Bft)
28.01.2023 05:17 -0,3 C 0,0 C 88 % 1027,7 hPa 0,0 l/m 1,3 km/h (1 Bft) N 7 0 min 0,0 UV-I 0 W/m -2,0 C 5,0 km/h (1 Bft)
28.01.2023 05:16 -0,3 C 0,0 C 88 % 1027,6 hPa 0,0 l/m 1,0 km/h (0 Bft) N-NW 340 0 min 0,0 UV-I 0 W/m -2,0 C 5,0 km/h (1 Bft)
28.01.2023 05:15 -0,3 C 0,1 C 88 % 1027,6 hPa 0,0 l/m 1,0 km/h (0 Bft) N 4 0 min 0,0 UV-I 0 W/m -2,0 C 5,0 km/h (1 Bft)
28.01.2023 05:14 -0,3 C 0,1 C 88 % 1027,7 hPa 0,0 l/m 1,4 km/h (1 Bft) N 359 0 min 0,0 UV-I 0 W/m -2,0 C 7,0 km/h (2 Bft)
28.01.2023 05:13 -0,3 C 0,1 C 88 % 1027,8 hPa 0,0 l/m 2,3 km/h (1 Bft) N-NO 16 0 min 0,0 UV-I 0 W/m -2,0 C 7,0 km/h (2 Bft)
28.01.2023 05:12 -0,3 C 0,1 C 88 % 1027,7 hPa 0,0 l/m 3,6 km/h (1 Bft) N 358 0 min 0,0 UV-I 0 W/m -2,0 C 7,0 km/h (2 Bft)
28.01.2023 05:11 -0,3 C 0,1 C 88 % 1027,8 hPa 0,0 l/m 3,1 km/h (1 Bft) N 360 0 min 0,0 UV-I 0 W/m -2,0 C 9,0 km/h (2 Bft)
28.01.2023 05:10 -0,3 C 0,1 C 88 % 1027,8 hPa 0,0 l/m 0,0 km/h (0 Bft) N-NW 346 0 min 0,0 UV-I 0 W/m -2,0 C 9,0 km/h (2 Bft)
28.01.2023 05:09 -0,3 C 0,1 C 88 % 1027,8 hPa 0,0 l/m 4,3 km/h (1 Bft) NW 322 0 min 0,0 UV-I 0 W/m -2,0 C 9,0 km/h (2 Bft)
28.01.2023 05:08 -0,3 C 0,0 C 88 % 1027,6 hPa 0,0 l/m 2,3 km/h (1 Bft) N-NW 343 0 min 0,0 UV-I 0 W/m -2,0 C 9,0 km/h (2 Bft)
28.01.2023 05:07 -0,3 C 0,0 C 88 % 1027,6 hPa 0,0 l/m 2,3 km/h (1 Bft) N-NO 31 0 min 0,0 UV-I 0 W/m -2,0 C 8,0 km/h (2 Bft)
28.01.2023 05:06 -0,3 C 0,0 C 88 % 1028,0 hPa 0,0 l/m 5,1 km/h (1 Bft) N-NW 342 0 min 0,0 UV-I 0 W/m -2,0 C 8,0 km/h (2 Bft)
28.01.2023 05:05 -0,3 C 0,0 C 88 % 1027,8 hPa 0,0 l/m 4,1 km/h (1 Bft) N 354 0 min 0,0 UV-I 0 W/m -2,0 C 7,0 km/h (2 Bft)
28.01.2023 05:04 -0,2 C 0,0 C 88 % 1027,7 hPa 0,0 l/m 1,3 km/h (1 Bft) N 356 0 min 0,0 UV-I 0 W/m -1,9 C 5,0 km/h (1 Bft)
28.01.2023 05:03 -0,3 C 0,0 C 88 % 1027,9 hPa 0,0 l/m 1,0 km/h (0 Bft) N-NW 348 0 min 0,0 UV-I 0 W/m -2,0 C 6,0 km/h (2 Bft)
28.01.2023 05:02 -0,3 C 0,1 C 88 % 1027,9 hPa 0,0 l/m 2,0 km/h (1 Bft) N 354 0 min 0,0 UV-I 0 W/m -2,0 C 6,0 km/h (2 Bft)
28.01.2023 05:01 -0,3 C 0,1 C 88 % 1028,0 hPa 0,0 l/m 3,8 km/h (1 Bft) N 360 0 min 0,0 UV-I 0 W/m -2,0 C 7,0 km/h (2 Bft)
28.01.2023 05:00 -0,3 C 0,1 C 88 % 1027,9 hPa 0,0 l/m 3,3 km/h (1 Bft) N 1 0 min 0,0 UV-I 0 W/m -2,0 C 8,0 km/h (2 Bft)
28.01.2023 04:59 -0,3 C 0,1 C 88 % 1027,9 hPa 0,0 l/m 3,6 km/h (1 Bft) N 357 0 min 0,0 UV-I 0 W/m -2,0 C 10,0 km/h (2 Bft)
28.01.2023 04:58 -0,2 C 0,0 C 88 % 1027,6 hPa 0,0 l/m 3,5 km/h (1 Bft) N-NW 344 0 min 0,0 UV-I 0 W/m -1,9 C 10,0 km/h (2 Bft)
28.01.2023 04:57 -0,3 C 0,0 C 88 % 1027,8 hPa 0,0 l/m 5,6 km/h (1 Bft) N 5 0 min 0,0 UV-I 0 W/m -2,0 C 12,0 km/h (2 Bft)
28.01.2023 04:56 -0,3 C 0,0 C 88 % 1027,7 hPa 0,0 l/m 1,3 km/h (1 Bft) N-NO 17 0 min 0,0 UV-I 0 W/m -2,0 C 12,0 km/h (2 Bft)
28.01.2023 04:55 -0,3 C 0,1 C 88 % 1027,8 hPa 0,0 l/m 5,8 km/h (2 Bft) N 350 0 min 0,0 UV-I 0 W/m -2,0 C 12,0 km/h (2 Bft)
28.01.2023 04:54 -0,3 C 0,1 C 88 % 1027,7 hPa 0,0 l/m 6,7 km/h (2 Bft) N 355 0 min 0,0 UV-I 0 W/m -2,0 C 10,0 km/h (2 Bft)
28.01.2023 04:53 -0,3 C 0,2 C 88 % 1027,7 hPa 0,0 l/m 4,9 km/h (1 Bft) N 4 0 min 0,0 UV-I 0 W/m -2,0 C 11,0 km/h (2 Bft)
28.01.2023 04:52 -0,3 C 0,1 C 88 % 1027,7 hPa 0,0 l/m 4,5 km/h (1 Bft) N-NW 336 0 min 0,0 UV-I 0 W/m -2,0 C 11,0 km/h (2 Bft)
28.01.2023 04:51 -0,3 C 0,0 C 88 % 1027,7 hPa 0,0 l/m 4,6 km/h (1 Bft) N-NW 332 0 min 0,0 UV-I 0 W/m -2,0 C 11,0 km/h (2 Bft)
28.01.2023 04:50 -0,3 C 0,0 C 88 % 1027,8 hPa 0,0 l/m 3,8 km/h (1 Bft) N 360 0 min 0,0 UV-I 0 W/m -2,0 C 11,0 km/h (2 Bft)
28.01.2023 04:49 -0,2 C 0,0 C 88 % 1027,6 hPa 0,0 l/m 4,8 km/h (1 Bft) N-NW 337 0 min 0,0 UV-I 0 W/m -1,9 C 11,0 km/h (2 Bft)
28.01.2023 04:48 -0,3 C 0,0 C 88 % 1027,8 hPa 0,0 l/m 2,7 km/h (1 Bft) NW 324 0 min 0,0 UV-I 0 W/m -2,0 C 11,0 km/h (2 Bft)
28.01.2023 04:47 -0,3 C 0,0 C 88 % 1027,6 hPa 0,0 l/m 2,3 km/h (1 Bft) N 3 0 min 0,0 UV-I 0 W/m -2,0 C 9,0 km/h (2 Bft)
28.01.2023 04:46 -0,3 C 0,0 C 88 % 1027,8 hPa 0,0 l/m 2,9 km/h (1 Bft) N 352 0 min 0,0 UV-I 0 W/m -2,0 C 16,0 km/h (3 Bft)
28.01.2023 04:45 -0,3 C 0,1 C 88 % 1027,7 hPa 0,0 l/m 4,3 km/h (1 Bft) N 6 0 min 0,0 UV-I 0 W/m -2,0 C 16,0 km/h (3 Bft)
28.01.2023 04:44 -0,3 C 0,1 C 88 % 1027,8 hPa 0,0 l/m 7,9 km/h (2 Bft) N-NW 348 0 min 0,0 UV-I 0 W/m -2,0 C 16,0 km/h (3 Bft)
28.01.2023 04:43 -0,3 C 0,1 C 88 % 1027,8 hPa 0,0 l/m 9,5 km/h (2 Bft) N-NW 341 0 min 0,0 UV-I 0 W/m -2,0 C 16,0 km/h (3 Bft)
28.01.2023 04:42 -0,3 C 0,1 C 88 % 1027,9 hPa 0,0 l/m 6,0 km/h (2 Bft) N-NW 334 0 min 0,0 UV-I 0 W/m -2,0 C 13,0 km/h (3 Bft)
28.01.2023 04:41 -0,3 C 0,1 C 88 % 1027,6 hPa 0,0 l/m 4,0 km/h (1 Bft) N 351 0 min 0,0 UV-I 0 W/m -2,0 C 13,0 km/h (3 Bft)
28.01.2023 04:40 -0,2 C 0,0 C 88 % 1027,8 hPa 0,0 l/m 4,3 km/h (1 Bft) N 357 0 min 0,0 UV-I 0 W/m -1,9 C 9,0 km/h (2 Bft)
28.01.2023 04:39 -0,3 C 0,1 C 88 % 1027,5 hPa 0,0 l/m 3,8 km/h (1 Bft) N 352 0 min 0,0 UV-I 0 W/m -2,0 C 9,0 km/h (2 Bft)
28.01.2023 04:38 -0,3 C 0,0 C 88 % 1027,8 hPa 0,0 l/m 3,8 km/h (1 Bft) N-NO 16 0 min 0,0 UV-I 0 W/m -2,0 C 8,0 km/h (2 Bft)
28.01.2023 04:37 -0,2 C 0,0 C 88 % 1027,6 hPa 0,0 l/m 1,3 km/h (1 Bft) N-NO 25 0 min 0,0 UV-I 0 W/m -1,9 C 9,0 km/h (2 Bft)
28.01.2023 04:36 -0,2 C 0,0 C 88 % 1027,7 hPa 0,0 l/m 3,9 km/h (1 Bft) NW 306 0 min 0,0 UV-I 0 W/m -1,9 C 9,0 km/h (2 Bft)
28.01.2023 04:35 -0,2 C 0,0 C 88 % 1027,6 hPa 0,0 l/m 3,8 km/h (1 Bft) N 4 0 min 0,0 UV-I 0 W/m -1,9 C 9,0 km/h (2 Bft)
28.01.2023 04:34 -0,3 C 0,1 C 88 % 1027,5 hPa 0,0 l/m 4,2 km/h (1 Bft) N 357 0 min 0,0 UV-I 0 W/m -2,0 C 9,0 km/h (2 Bft)
28.01.2023 04:33 -0,2 C 0,0 C 88 % 1027,7 hPa 0,0 l/m 3,1 km/h (1 Bft) N 10 0 min 0,0 UV-I 0 W/m -1,9 C 7,0 km/h (2 Bft)
28.01.2023 04:32 -0,2 C 0,0 C 88 % 1027,7 hPa 0,0 l/m 2,7 km/h (1 Bft) NO 35 0 min 0,0 UV-I 0 W/m -1,9 C 7,0 km/h (2 Bft)
28.01.2023 04:31 -0,2 C 0,0 C 88 % 1027,7 hPa 0,0 l/m 2,5 km/h (1 Bft) N 351 0 min 0,0 UV-I 0 W/m -1,9 C 6,0 km/h (2 Bft)
28.01.2023 04:30 -0,2 C 0,1 C 88 % 1027,6 hPa 0,0 l/m 2,3 km/h (1 Bft) N 7 0 min 0,0 UV-I 0 W/m -1,9 C 13,0 km/h (3 Bft)
28.01.2023 04:29 -0,2 C 0,1 C 88 % 1027,4 hPa 0,0 l/m 5,2 km/h (1 Bft) O-NO 57 0 min 0,0 UV-I 0 W/m -1,9 C 13,0 km/h (3 Bft)
28.01.2023 04:28 -0,2 C 0,0 C 88 % 1027,6 hPa 0,0 l/m 4,3 km/h (1 Bft) N-NO 30 0 min 0,0 UV-I 0 W/m -1,9 C 10,0 km/h (2 Bft)
28.01.2023 04:27 -0,2 C 0,1 C 88 % 1027,6 hPa 0,0 l/m 2,7 km/h (1 Bft) N-NO 16 0 min 0,0 UV-I 0 W/m -1,9 C 9,0 km/h (2 Bft)
28.01.2023 04:26 -0,2 C 0,1 C 88 % 1027,5 hPa 0,0 l/m 3,1 km/h (1 Bft) NO 36 0 min 0,0 UV-I 0 W/m -1,9 C 9,0 km/h (2 Bft)
28.01.2023 04:25 -0,2 C 0,1 C 88 % 1027,4 hPa 0,0 l/m 4,8 km/h (1 Bft) N-NO 14 0 min 0,0 UV-I 0 W/m -1,9 C 12,0 km/h (2 Bft)
28.01.2023 04:24 -0,3 C 0,0 C 88 % 1027,7 hPa 0,0 l/m 3,6 km/h (1 Bft) N-NO 12 0 min 0,0 UV-I 0 W/m -2,0 C 12,0 km/h (2 Bft)
28.01.2023 04:23 -0,3 C 0,0 C 88 % 1027,7 hPa 0,0 l/m 3,1 km/h (1 Bft) N-NO 33 0 min 0,0 UV-I 0 W/m -2,0 C 12,0 km/h (2 Bft)
28.01.2023 04:22 -0,2 C 0,1 C 88 % 1027,4 hPa 0,0 l/m 2,7 km/h (1 Bft) N 349 0 min 0,0 UV-I 0 W/m -1,9 C 12,0 km/h (2 Bft)
28.01.2023 04:21 -0,2 C 0,2 C 88 % 1027,7 hPa 0,0 l/m 4,7 km/h (1 Bft) NO 34 0 min 0,0 UV-I 0 W/m -1,9 C 13,0 km/h (3 Bft)
28.01.2023 04:20 -0,2 C 0,2 C 88 % 1027,6 hPa 0,0 l/m 6,3 km/h (2 Bft) N-NW 343 0 min 0,0 UV-I 0 W/m -1,9 C 13,0 km/h (3 Bft)
28.01.2023 04:19 -0,2 C 0,1 C 88 % 1027,6 hPa 0,0 l/m 4,8 km/h (1 Bft) N-NO 15 0 min 0,0 UV-I 0 W/m -1,9 C 12,0 km/h (2 Bft)
28.01.2023 04:18 -0,2 C 0,1 C 88 % 1027,6 hPa 0,0 l/m 5,6 km/h (1 Bft) N-NO 26 0 min 0,0 UV-I 0 W/m -1,9 C 12,0 km/h (2 Bft)
28.01.2023 04:17 -0,3 C 0,1 C 88 % 1027,7 hPa 0,0 l/m 4,7 km/h (1 Bft) NO 54 0 min 0,0 UV-I 0 W/m -2,0 C 12,0 km/h (2 Bft)
28.01.2023 04:16 -0,2 C 0,1 C 88 % 1027,6 hPa 0,0 l/m 6,0 km/h (2 Bft) N 5 0 min 0,0 UV-I 0 W/m -1,9 C 9,0 km/h (2 Bft)
28.01.2023 04:15 -0,2 C 0,1 C 88 % 1027,6 hPa 0,0 l/m 5,2 km/h (1 Bft) N 1 0 min 0,0 UV-I 0 W/m -1,9 C 9,0 km/h (2 Bft)
28.01.2023 04:14 -0,2 C 0,1 C 88 % 1027,6 hPa 0,0 l/m 3,1 km/h (1 Bft) N 354 0 min 0,0 UV-I 0 W/m -1,9 C 9,0 km/h (2 Bft)
28.01.2023 04:13 -0,2 C 0,1 C 88 % 1027,6 hPa 0,0 l/m 4,7 km/h (1 Bft) NO 40 0 min 0,0 UV-I 0 W/m -1,9 C 9,0 km/h (2 Bft)
28.01.2023 04:12 -0,2 C 0,1 C 88 % 1027,4 hPa 0,0 l/m 3,6 km/h (1 Bft) N-NO 33 0 min 0,0 UV-I 0 W/m -1,9 C 9,0 km/h (2 Bft)
28.01.2023 04:11 -0,2 C 0,1 C 88 % 1027,5 hPa 0,0 l/m 4,0 km/h (1 Bft) NO 37 0 min 0,0 UV-I 0 W/m -1,9 C 10,0 km/h (2 Bft)
28.01.2023 04:10 -0,3 C 0,1 C 88 % 1027,6 hPa 0,0 l/m 5,8 km/h (2 Bft) N-NO 17 0 min 0,0 UV-I 0 W/m -2,0 C 13,0 km/h (3 Bft)
28.01.2023 04:09 -0,3 C 0,2 C 88 % 1027,8 hPa 0,0 l/m 3,8 km/h (1 Bft) N-NO 26 0 min 0,0 UV-I 0 W/m -2,0 C 13,0 km/h (3 Bft)
28.01.2023 04:08 -0,2 C 0,2 C 89 % 1027,6 hPa 0,0 l/m 4,2 km/h (1 Bft) N-NW 348 0 min 0,0 UV-I 0 W/m -1,8 C 12,0 km/h (2 Bft)
28.01.2023 04:07 -0,2 C 0,2 C 89 % 1027,6 hPa 0,0 l/m 4,0 km/h (1 Bft) N 3 0 min 0,0 UV-I 0 W/m -1,8 C 12,0 km/h (2 Bft)
28.01.2023 04:06 -0,3 C 0,1 C 89 % 1027,7 hPa 0,0 l/m 5,1 km/h (1 Bft) N 358 0 min 0,0 UV-I 0 W/m -1,9 C 12,0 km/h (2 Bft)
28.01.2023 04:05 -0,3 C 0,2 C 89 % 1027,6 hPa 0,0 l/m 4,7 km/h (1 Bft) N-NW 348 0 min 0,0 UV-I 0 W/m -1,9 C 13,0 km/h (3 Bft)
28.01.2023 04:04 -0,3 C 0,2 C 89 % 1027,6 hPa 0,0 l/m 3,8 km/h (1 Bft) N-NO 17 0 min 0,0 UV-I 0 W/m -1,9 C 13,0 km/h (3 Bft)
28.01.2023 04:03 -0,3 C 0,3 C 89 % 1027,5 hPa 0,0 l/m 4,7 km/h (1 Bft) N 3 0 min 0,0 UV-I 0 W/m -1,9 C 13,0 km/h (3 Bft)
28.01.2023 04:02 -0,3 C 0,3 C 89 % 1027,8 hPa 0,0 l/m 4,2 km/h (1 Bft) N-NO 29 0 min 0,0 UV-I 0 W/m -1,9 C 13,0 km/h (3 Bft)
28.01.2023 04:01 -0,3 C 0,2 C 89 % 1027,6 hPa 0,0 l/m 8,3 km/h (2 Bft) N-NO 27 0 min 0,0 UV-I 0 W/m -1,9 C 13,0 km/h (3 Bft)
28.01.2023 04:00 -0,3 C 0,2 C 89 % 1027,4 hPa 0,0 l/m 6,5 km/h (2 Bft) N 6 0 min 0,0 UV-I 0 W/m -1,9 C 14,0 km/h (3 Bft)
28.01.2023 03:59 -0,3 C 0,2 C 89 % 1027,4 hPa 0,0 l/m 8,1 km/h (2 Bft) N-NO 30 0 min 0,0 UV-I 0 W/m -1,9 C 14,0 km/h (3 Bft)
28.01.2023 03:58 -0,3 C 0,2 C 89 % 1027,6 hPa 0,0 l/m 7,0 km/h (2 Bft) N-NO 30 0 min 0,0 UV-I 0 W/m -1,9 C 14,0 km/h (3 Bft)
28.01.2023 03:57 -0,3 C 0,2 C 89 % 1027,3 hPa 0,0 l/m 3,6 km/h (1 Bft) N-NO 26 0 min 0,0 UV-I 0 W/m -1,9 C 13,0 km/h (3 Bft)
28.01.2023 03:56 -0,3 C 0,2 C 89 % 1027,7 hPa 0,0 l/m 1,0 km/h (0 Bft) O-NO 59 0 min 0,0 UV-I 0 W/m -1,9 C 13,0 km/h (3 Bft)
28.01.2023 03:55 -0,3 C 0,2 C 89 % 1027,4 hPa 0,0 l/m 9,7 km/h (2 Bft) NO 40 0 min 0,0 UV-I 0 W/m -1,9 C 13,0 km/h (3 Bft)
28.01.2023 03:54 -0,3 C 0,2 C 89 % 1027,6 hPa 0,0 l/m 7,1 km/h (2 Bft) N 7 0 min 0,0 UV-I 0 W/m -1,9 C 12,0 km/h (2 Bft)
28.01.2023 03:53 -0,3 C 0,1 C 89 % 1027,6 hPa 0,0 l/m 5,1 km/h (1 Bft) N 356 0 min 0,0 UV-I 0 W/m -1,9 C 14,0 km/h (3 Bft)
28.01.2023 03:52 -0,3 C 0,1 C 89 % 1027,4 hPa 0,0 l/m 6,9 km/h (2 Bft) N 2 0 min 0,0 UV-I 0 W/m -1,9 C 14,0 km/h (3 Bft)
28.01.2023 03:51 -0,3 C 0,1 C 89 % 1027,4 hPa 0,0 l/m 6,5 km/h (2 Bft) N 4 0 min 0,0 UV-I 0 W/m -1,9 C 14,0 km/h (3 Bft)
28.01.2023 03:50 -0,4 C 0,1 C 89 % 1027,4 hPa 0,0 l/m 4,3 km/h (1 Bft) N 5 0 min 0,0 UV-I 0 W/m -2,0 C 14,0 km/h (3 Bft)
28.01.2023 03:49 -0,4 C 0,1 C 89 % 1027,3 hPa 0,0 l/m 3,2 km/h (1 Bft) N 9 0 min 0,0 UV-I 0 W/m -2,0 C 14,0 km/h (3 Bft)
28.01.2023 03:48 -0,4 C 0,1 C 89 % 1027,5 hPa 0,0 l/m 4,2 km/h (1 Bft) NO 40 0 min 0,0 UV-I 0 W/m -2,0 C 14,0 km/h (3 Bft)
28.01.2023 03:47 -0,4 C 0,1 C 89 % 1027,3 hPa 0,0 l/m 3,6 km/h (1 Bft) N-NO 32 0 min 0,0 UV-I 0 W/m -2,0 C 9,0 km/h (2 Bft)
28.01.2023 03:46 -0,4 C 0,1 C 89 % 1027,3 hPa 0,0 l/m 2,1 km/h (1 Bft) N 2 0 min 0,0 UV-I 0 W/m -2,0 C 8,0 km/h (2 Bft)
28.01.2023 03:45 -0,4 C 0,1 C 89 % 1027,3 hPa 0,0 l/m 3,8 km/h (1 Bft) NO 40 0 min 0,0 UV-I 0 W/m -2,0 C 15,0 km/h (3 Bft)
28.01.2023 03:44 -0,4 C 0,1 C 89 % 1027,4 hPa 0,0 l/m 4,9 km/h (1 Bft) N-NO 30 0 min 0,0 UV-I 0 W/m -2,0 C 15,0 km/h (3 Bft)
28.01.2023 03:43 -0,4 C 0,1 C 89 % 1027,4 hPa 0,0 l/m 6,4 km/h (2 Bft) NO 38 0 min 0,0 UV-I 0 W/m -2,0 C 15,0 km/h (3 Bft)
28.01.2023 03:42 -0,5 C 0,0 C 89 % 1027,4 hPa 0,0 l/m 8,3 km/h (2 Bft) N-NO 33 0 min 0,0 UV-I 0 W/m -2,1 C 15,0 km/h (3 Bft)
28.01.2023 03:41 -0,5 C -0,1 C 90 % 1027,2 hPa 0,0 l/m 4,8 km/h (1 Bft) N-NO 26 0 min 0,0 UV-I 0 W/m -1,9 C 11,0 km/h (2 Bft)
28.01.2023 03:40 -0,5 C 0,0 C 90 % 1027,3 hPa 0,0 l/m 3,5 km/h (1 Bft) NO 49 0 min 0,0 UV-I 0 W/m -1,9 C 10,0 km/h (2 Bft)
28.01.2023 03:39 -0,5 C 0,0 C 90 % 1027,3 hPa 0,0 l/m 6,1 km/h (2 Bft) NO 35 0 min 0,0 UV-I 0 W/m -1,9 C 15,0 km/h (3 Bft)
28.01.2023 03:38 -0,5 C -0,1 C 90 % 1027,3 hPa 0,0 l/m 8,0 km/h (2 Bft) N-NO 14 0 min 0,0 UV-I 0 W/m -1,9 C 15,0 km/h (3 Bft)
28.01.2023 03:37 -0,5 C -0,1 C 90 % 1027,3 hPa 0,0 l/m 3,5 km/h (1 Bft) N-NO 15 0 min 0,0 UV-I 0 W/m -1,9 C 12,0 km/h (2 Bft)
28.01.2023 03:36 -0,5 C -0,1 C 90 % 1027,4 hPa 0,0 l/m 6,1 km/h (2 Bft) N-NO 12 0 min 0,0 UV-I 0 W/m -1,9 C 12,0 km/h (2 Bft)
28.01.2023 03:35 -0,5 C -0,1 C 90 % 1027,4 hPa 0,0 l/m 6,1 km/h (2 Bft) N 360 0 min 0,0 UV-I 0 W/m -1,9 C 11,0 km/h (2 Bft)
28.01.2023 03:34 -0,5 C -0,2 C 90 % 1027,3 hPa 0,0 l/m 5,2 km/h (1 Bft) N-NW 342 0 min 0,0 UV-I 0 W/m -1,9 C 11,0 km/h (2 Bft)
28.01.2023 03:33 -0,5 C -0,2 C 90 % 1027,2 hPa 0,0 l/m 4,3 km/h (1 Bft) N 7 0 min 0,0 UV-I 0 W/m -1,9 C 8,0 km/h (2 Bft)
28.01.2023 03:32 -0,5 C -0,3 C 90 % 1027,2 hPa 0,0 l/m 3,2 km/h (1 Bft) O-NO 69 0 min 0,0 UV-I 0 W/m -1,9 C 5,0 km/h (1 Bft)
28.01.2023 03:31 -0,5 C -0,3 C 90 % 1027,3 hPa 0,0 l/m 0,0 km/h (0 Bft) NO 45 0 min 0,0 UV-I 0 W/m -1,9 C 6,0 km/h (2 Bft)
28.01.2023 03:30 -0,5 C -0,3 C 90 % 1027,1 hPa 0,0 l/m 3,2 km/h (1 Bft) N-NO 23 0 min 0,0 UV-I 0 W/m -1,9 C 6,0 km/h (2 Bft)
28.01.2023 03:29 -0,5 C -0,3 C 90 % 1027,1 hPa 0,0 l/m 2,7 km/h (1 Bft) O-NO 65 0 min 0,0 UV-I 0 W/m -1,9 C 7,0 km/h (2 Bft)
28.01.2023 03:28 -0,5 C -0,5 C 90 % 1027,2 hPa 0,0 l/m 0,0 km/h (0 Bft) N 2 0 min 0,0 UV-I 0 W/m -1,9 C 7,0 km/h (2 Bft)
28.01.2023 03:27 -0,5 C -0,4 C 90 % 1027,2 hPa 0,0 l/m 1,6 km/h (1 Bft) N-NO 28 0 min 0,0 UV-I 0 W/m -1,9 C 7,0 km/h (2 Bft)
28.01.2023 03:26 -0,5 C -0,5 C 90 % 1027,2 hPa 0,0 l/m 2,2 km/h (1 Bft) O-NO 65 0 min 0,0 UV-I 0 W/m -1,9 C 7,0 km/h (2 Bft)
28.01.2023 03:25 -0,6 C -0,5 C 90 % 1027,4 hPa 0,0 l/m 3,5 km/h (1 Bft) N-NO 33 0 min 0,0 UV-I 0 W/m -2,0 C 8,0 km/h (2 Bft)
28.01.2023 03:24 -0,5 C -0,5 C 90 % 1027,2 hPa 0,0 l/m 1,0 km/h (0 Bft) NO 48 0 min 0,0 UV-I 0 W/m -1,9 C 8,0 km/h (2 Bft)
28.01.2023 03:23 -0,6 C -0,5 C 90 % 1027,3 hPa 0,0 l/m 3,1 km/h (1 Bft) N-NO 15 0 min 0,0 UV-I 0 W/m -2,0 C 7,0 km/h (2 Bft)
28.01.2023 03:22 -0,6 C -0,4 C 90 % 1027,4 hPa 0,0 l/m 1,4 km/h (1 Bft) N 3 0 min 0,0 UV-I 0 W/m -2,0 C 7,0 km/h (2 Bft)
28.01.2023 03:21 -0,6 C -0,4 C 90 % 1027,2 hPa 0,0 l/m 1,3 km/h (1 Bft) N-NO 27 0 min 0,0 UV-I 0 W/m -2,0 C 8,0 km/h (2 Bft)
28.01.2023 03:20 -0,6 C -0,5 C 90 % 1027,2 hPa 0,0 l/m 4,0 km/h (1 Bft) N 353 0 min 0,0 UV-I 0 W/m -2,0 C 10,0 km/h (2 Bft)
28.01.2023 03:19 -0,6 C -0,5 C 90 % 1027,2 hPa 0,0 l/m 2,0 km/h (1 Bft) NW 326 0 min 0,0 UV-I 0 W/m -2,0 C 14,0 km/h (3 Bft)
28.01.2023 03:18 -0,6 C -0,5 C 90 % 1027,3 hPa 0,0 l/m 5,6 km/h (1 Bft) N-NO 19 0 min 0,0 UV-I 0 W/m -2,0 C 14,0 km/h (3 Bft)
28.01.2023 03:17 -0,6 C -0,6 C 90 % 1027,2 hPa 0,0 l/m 4,9 km/h (1 Bft) N 352 0 min 0,0 UV-I 0 W/m -2,0 C 14,0 km/h (3 Bft)
28.01.2023 03:16 -0,6 C -0,7 C 90 % 1027,2 hPa 0,0 l/m 2,7 km/h (1 Bft) N 353 0 min 0,0 UV-I 0 W/m -2,0 C 6,0 km/h (2 Bft)
28.01.2023 03:15 -0,6 C -0,7 C 89 % 1027,1 hPa 0,0 l/m 3,6 km/h (1 Bft) NO 48 0 min 0,0 UV-I 0 W/m -2,2 C 9,0 km/h (2 Bft)
28.01.2023 03:14 -0,6 C -1,0 C 90 % 1027,2 hPa 0,0 l/m 1,4 km/h (1 Bft) N-NO 15 0 min 0,0 UV-I 0 W/m -2,0 C 9,0 km/h (2 Bft)
28.01.2023 03:13 -0,6 C -1,0 C 89 % 1027,2 hPa 0,0 l/m 4,0 km/h (1 Bft) N 6 0 min 0,0 UV-I 0 W/m -2,2 C 9,0 km/h (2 Bft)
28.01.2023 03:12 -0,6 C -0,9 C 89 % 1027,2 hPa 0,0 l/m 2,1 km/h (1 Bft) O-NO 78 0 min 0,0 UV-I 0 W/m -2,2 C 4,0 km/h (1 Bft)
28.01.2023 03:11 -0,6 C -0,9 C 89 % 1027,2 hPa 0,0 l/m 1,0 km/h (0 Bft) NO 38 0 min 0,0 UV-I 0 W/m -2,2 C 4,0 km/h (1 Bft)
28.01.2023 03:10 -0,6 C -0,8 C 89 % 1027,2 hPa 0,0 l/m 2,5 km/h (1 Bft) NO 46 0 min 0,0 UV-I 0 W/m -2,2 C 6,0 km/h (2 Bft)
28.01.2023 03:09 -0,6 C -0,7 C 89 % 1027,3 hPa 0,0 l/m 2,3 km/h (1 Bft) O 86 0 min 0,0 UV-I 0 W/m -2,2 C 6,0 km/h (2 Bft)
28.01.2023 03:08 -0,6 C -0,7 C 89 % 1026,8 hPa 0,0 l/m 1,4 km/h (1 Bft) NO 53 0 min 0,0 UV-I 0 W/m -2,2 C 5,0 km/h (1 Bft)
28.01.2023 03:07 -0,5 C -0,7 C 89 % 1027,2 hPa 0,0 l/m 0,0 km/h (0 Bft) O-NO 74 0 min 0,0 UV-I 0 W/m -2,1 C 5,0 km/h (1 Bft)
28.01.2023 03:06 -0,5 C -0,8 C 89 % 1027,1 hPa 0,0 l/m 2,7 km/h (1 Bft) N 11 0 min 0,0 UV-I 0 W/m -2,1 C 6,0 km/h (2 Bft)
28.01.2023 03:05 -0,5 C -0,8 C 89 % 1027,1 hPa 0,0 l/m 1,3 km/h (1 Bft) NW 308 0 min 0,0 UV-I 0 W/m -2,1 C 6,0 km/h (2 Bft)
28.01.2023 03:04 -0,5 C -0,8 C 89 % 1027,1 hPa 0,0 l/m 3,3 km/h (1 Bft) N-NW 341 0 min 0,0 UV-I 0 W/m -2,1 C 5,0 km/h (1 Bft)
28.01.2023 03:03 -0,5 C -0,8 C 89 % 1027,1 hPa 0,0 l/m 2,0 km/h (1 Bft) N 349 0 min 0,0 UV-I 0 W/m -2,1 C 5,0 km/h (1 Bft)
28.01.2023 03:02 -0,5 C -0,8 C 89 % 1027,1 hPa 0,0 l/m 3,1 km/h (1 Bft) N 353 0 min 0,0 UV-I 0 W/m -2,1 C 5,0 km/h (1 Bft)
28.01.2023 03:01 -0,5 C -0,8 C 89 % 1027,0 hPa 0,0 l/m 1,3 km/h (1 Bft) N 360 0 min 0,0 UV-I 0 W/m -2,1 C 5,0 km/h (1 Bft)
28.01.2023 03:00 -0,5 C -0,7 C 89 % 1027,1 hPa 0,0 l/m 3,1 km/h (1 Bft) N 354 0 min 0,0 UV-I 0 W/m -2,1 C 6,0 km/h (2 Bft)
28.01.2023 02:59 -0,5 C -0,7 C 89 % 1027,2 hPa 0,0 l/m 3,5 km/h (1 Bft) N 357 0 min 0,0 UV-I 0 W/m -2,1 C 7,0 km/h (2 Bft)
28.01.2023 02:58 -0,5 C -0,8 C 89 % 1027,2 hPa 0,0 l/m 1,3 km/h (1 Bft) NO 51 0 min 0,0 UV-I 0 W/m -2,1 C 7,0 km/h (2 Bft)
28.01.2023 02:57 -0,5 C -0,9 C 89 % 1027,2 hPa 0,0 l/m 2,7 km/h (1 Bft) W-NW 289 0 min 0,0 UV-I 0 W/m -2,1 C 7,0 km/h (2 Bft)
28.01.2023 02:56 -0,5 C -1,1 C 89 % 1027,1 hPa 0,0 l/m 3,2 km/h (1 Bft) W-NW 284 0 min 0,0 UV-I 0 W/m -2,1 C 7,0 km/h (2 Bft)
28.01.2023 02:55 -0,5 C -1,1 C 89 % 1027,1 hPa 0,0 l/m 3,9 km/h (1 Bft) NW 316 0 min 0,0 UV-I 0 W/m -2,1 C 7,0 km/h (2 Bft)
28.01.2023 02:54 -0,5 C -1,2 C 89 % 1027,2 hPa 0,0 l/m 1,0 km/h (0 Bft) N-NW 344 0 min 0,0 UV-I 0 W/m -2,1 C 6,0 km/h (2 Bft)
28.01.2023 02:53 -0,5 C -1,0 C 89 % 1027,2 hPa 0,0 l/m 1,0 km/h (0 Bft) N 360 0 min 0,0 UV-I 0 W/m -2,1 C 8,0 km/h (2 Bft)
28.01.2023 02:52 -0,5 C -0,9 C 89 % 1027,0 hPa 0,0 l/m 2,0 km/h (1 Bft) N-NW 339 0 min 0,0 UV-I 0 W/m -2,1 C 11,0 km/h (2 Bft)
28.01.2023 02:51 -0,5 C -0,7 C 89 % 1027,2 hPa 0,0 l/m 6,4 km/h (2 Bft) N-NW 344 0 min 0,0 UV-I 0 W/m -2,1 C 11,0 km/h (2 Bft)
28.01.2023 02:50 -0,5 C -0,8 C 89 % 1027,0 hPa 0,0 l/m 3,8 km/h (1 Bft) N-NW 338 0 min 0,0 UV-I 0 W/m -2,1 C 11,0 km/h (2 Bft)
28.01.2023 02:49 -0,5 C -0,8 C 89 % 1027,1 hPa 0,0 l/m 3,1 km/h (1 Bft) NW 324 0 min 0,0 UV-I 0 W/m -2,1 C 9,0 km/h (2 Bft)
28.01.2023 02:48 -0,5 C -0,8 C 89 % 1027,1 hPa 0,0 l/m 3,9 km/h (1 Bft) N 2 0 min 0,0 UV-I 0 W/m -2,1 C 11,0 km/h (2 Bft)
28.01.2023 02:47 -0,5 C -0,6 C 89 % 1027,1 hPa 0,0 l/m 3,2 km/h (1 Bft) N 6 0 min 0,0 UV-I 0 W/m -2,1 C 11,0 km/h (2 Bft)
28.01.2023 02:46 -0,5 C -0,6 C 89 % 1027,0 hPa 0,0 l/m 4,3 km/h (1 Bft) N 355 0 min 0,0 UV-I 0 W/m -2,1 C 11,0 km/h (2 Bft)
28.01.2023 02:45 -0,5 C -0,7 C 89 % 1027,0 hPa 0,0 l/m 4,3 km/h (1 Bft) N 360 0 min 0,0 UV-I 0 W/m -2,1 C 10,0 km/h (2 Bft)
28.01.2023 02:44 -0,5 C -0,8 C 89 % 1027,1 hPa 0,0 l/m 4,0 km/h (1 Bft) N-NW 341 0 min 0,0 UV-I 0 W/m -2,1 C 9,0 km/h (2 Bft)
28.01.2023 02:43 -0,5 C -0,8 C 89 % 1027,3 hPa 0,0 l/m 4,8 km/h (1 Bft) N-NW 334 0 min 0,0 UV-I 0 W/m -2,1 C 8,0 km/h (2 Bft)
28.01.2023 02:42 -0,5 C -1,0 C 89 % 1027,1 hPa 0,0 l/m 2,5 km/h (1 Bft) N-NW 334 0 min 0,0 UV-I 0 W/m -2,1 C 6,0 km/h (2 Bft)
28.01.2023 02:41 -0,4 C -0,9 C 89 % 1027,1 hPa 0,0 l/m 0,0 km/h (0 Bft) N-NO 20 0 min 0,0 UV-I 0 W/m -2,0 C 6,0 km/h (2 Bft)
28.01.2023 02:40 -0,4 C -1,1 C 89 % 1027,2 hPa 0,0 l/m 3,9 km/h (1 Bft) N-NW 345 0 min 0,0 UV-I 0 W/m -2,0 C 6,0 km/h (2 Bft)
28.01.2023 02:39 -0,4 C -1,0 C 89 % 1027,2 hPa 0,0 l/m 1,4 km/h (1 Bft) N-NO 28 0 min 0,0 UV-I 0 W/m -2,0 C 6,0 km/h (2 Bft)
28.01.2023 02:38 -0,4 C -1,2 C 89 % 1027,1 hPa 0,0 l/m 3,4 km/h (1 Bft) N-NW 344 0 min 0,0 UV-I 0 W/m -2,0 C 6,0 km/h (2 Bft)
28.01.2023 02:37 -0,4 C -1,0 C 89 % 1026,9 hPa 0,0 l/m 1,4 km/h (1 Bft) N-NW 341 0 min 0,0 UV-I 0 W/m -2,0 C 8,0 km/h (2 Bft)
28.01.2023 02:36 -0,4 C -1,2 C 89 % 1027,0 hPa 0,0 l/m 3,4 km/h (1 Bft) N 11 0 min 0,0 UV-I 0 W/m -2,0 C 8,0 km/h (2 Bft)
28.01.2023 02:35 -0,4 C -1,3 C 89 % 1027,0 hPa 0,0 l/m 3,1 km/h (1 Bft) N 360 0 min 0,0 UV-I 0 W/m -2,0 C 6,0 km/h (2 Bft)
28.01.2023 02:34 -0,4 C -1,2 C 89 % 1026,9 hPa 0,0 l/m 0,0 km/h (0 Bft) N 356 0 min 0,0 UV-I 0 W/m -2,0 C 6,0 km/h (2 Bft)
28.01.2023 02:33 -0,3 C -1,0 C 89 % 1026,8 hPa 0,0 l/m 4,0 km/h (1 Bft) N-NW 334 0 min 0,0 UV-I 0 W/m -1,9 C 6,0 km/h (2 Bft)
28.01.2023 02:32 -0,3 C -1,0 C 89 % 1027,1 hPa 0,0 l/m 3,4 km/h (1 Bft) N-NW 333 0 min 0,0 UV-I 0 W/m -1,9 C 7,0 km/h (2 Bft)
28.01.2023 02:31 -0,3 C -1,0 C 89 % 1027,1 hPa 0,0 l/m 2,1 km/h (1 Bft) N 358 0 min 0,0 UV-I 0 W/m -1,9 C 9,0 km/h (2 Bft)
28.01.2023 02:30 -0,3 C -0,9 C 89 % 1026,9 hPa 0,0 l/m 2,7 km/h (1 Bft) N-NW 345 0 min 0,0 UV-I 0 W/m -1,9 C 9,0 km/h (2 Bft)
28.01.2023 02:29 -0,3 C -0,7 C 89 % 1027,2 hPa 0,0 l/m 6,7 km/h (2 Bft) N-NW 337 0 min 0,0 UV-I 0 W/m -1,9 C 9,0 km/h (2 Bft)
28.01.2023 02:28 -0,3 C -0,8 C 89 % 1026,9 hPa 0,0 l/m 3,3 km/h (1 Bft) N-NW 327 0 min 0,0 UV-I 0 W/m -1,9 C 8,0 km/h (2 Bft)
28.01.2023 02:27 -0,3 C -0,9 C 89 % 1026,9 hPa 0,0 l/m 2,7 km/h (1 Bft) NW 325 0 min 0,0 UV-I 0 W/m -1,9 C 14,0 km/h (3 Bft)
28.01.2023 02:26 -0,3 C -0,8 C 89 % 1027,0 hPa 0,0 l/m 5,1 km/h (1 Bft) W-NW 300 0 min 0,0 UV-I 0 W/m -1,9 C 14,0 km/h (3 Bft)
28.01.2023 02:25 -0,3 C -1,1 C 88 % 1027,0 hPa 0,0 l/m 3,3 km/h (1 Bft) NW 321 0 min 0,0 UV-I 0 W/m -2,0 C 8,0 km/h (2 Bft)
28.01.2023 02:24 -0,3 C -1,0 C 88 % 1027,0 hPa 0,0 l/m 3,5 km/h (1 Bft) N 354 0 min 0,0 UV-I 0 W/m -2,0 C 8,0 km/h (2 Bft)
28.01.2023 02:23 -0,3 C -1,0 C 88 % 1027,0 hPa 0,0 l/m 2,9 km/h (1 Bft) N 360 0 min 0,0 UV-I 0 W/m -2,0 C 8,0 km/h (2 Bft)
28.01.2023 02:22 -0,2 C -1,0 C 88 % 1027,0 hPa 0,0 l/m 4,1 km/h (1 Bft) N 1 0 min 0,0 UV-I 0 W/m -1,9 C 8,0 km/h (2 Bft)
28.01.2023 02:21 -0,2 C -1,0 C 88 % 1026,8 hPa 0,0 l/m 5,2 km/h (1 Bft) N-NW 340 0 min 0,0 UV-I 0 W/m -1,9 C 11,0 km/h (2 Bft)
28.01.2023 02:20 -0,2 C -1,0 C 88 % 1026,9 hPa 0,0 l/m 4,7 km/h (1 Bft) N 6 0 min 0,0 UV-I 0 W/m -1,9 C 11,0 km/h (2 Bft)
28.01.2023 02:19 -0,2 C -1,1 C 88 % 1027,1 hPa 0,0 l/m 5,1 km/h (1 Bft) N-NW 334 0 min 0,0 UV-I 0 W/m -1,9 C 11,0 km/h (2 Bft)
28.01.2023 02:18 -0,2 C -1,2 C 88 % 1027,1 hPa 0,0 l/m 5,8 km/h (2 Bft) N 350 0 min 0,0 UV-I 0 W/m -1,9 C 10,0 km/h (2 Bft)
28.01.2023 02:17 -0,2 C -1,2 C 88 % 1026,8 hPa 0,0 l/m 4,2 km/h (1 Bft) N 359 0 min 0,0 UV-I 0 W/m -1,9 C 10,0 km/h (2 Bft)
28.01.2023 02:16 -0,1 C -1,3 C 88 % 1026,9 hPa 0,0 l/m 2,3 km/h (1 Bft) NW 326 0 min 0,0 UV-I 0 W/m -1,8 C 6,0 km/h (2 Bft)
28.01.2023 02:15 -0,1 C -1,3 C 88 % 1026,9 hPa 0,0 l/m 3,4 km/h (1 Bft) N-NW 329 0 min 0,0 UV-I 0 W/m -1,8 C 6,0 km/h (2 Bft)
28.01.2023 02:14 -0,1 C -1,2 C 88 % 1026,9 hPa 0,0 l/m 1,0 km/h (0 Bft) N 8 0 min 0,0 UV-I 0 W/m -1,8 C 6,0 km/h (2 Bft)
28.01.2023 02:13 -0,1 C -0,9 C 88 % 1027,0 hPa 0,0 l/m 2,5 km/h (1 Bft) N 7 0 min 0,0 UV-I 0 W/m -1,8 C 8,0 km/h (2 Bft)
28.01.2023 02:12 -0,1 C -0,8 C 88 % 1026,9 hPa 0,0 l/m 2,9 km/h (1 Bft) N-NO 18 0 min 0,0 UV-I 0 W/m -1,8 C 10,0 km/h (2 Bft)
28.01.2023 02:11 -0,1 C -0,8 C 88 % 1026,9 hPa 0,0 l/m 3,5 km/h (1 Bft) N 351 0 min 0,0 UV-I 0 W/m -1,8 C 13,0 km/h (3 Bft)
28.01.2023 02:10 -0,1 C -0,7 C 88 % 1027,0 hPa 0,0 l/m 6,2 km/h (2 Bft) N 357 0 min 0,0 UV-I 0 W/m -1,8 C 13,0 km/h (3 Bft)
28.01.2023 02:09 0,0 C -0,6 C 88 % 1027,2 hPa 0,0 l/m 5,1 km/h (1 Bft) N 5 0 min 0,0 UV-I 0 W/m -1,7 C 11,0 km/h (2 Bft)
28.01.2023 02:08 0,0 C -0,6 C 88 % 1027,2 hPa 0,0 l/m 6,3 km/h (2 Bft) N-NW 347 0 min 0,0 UV-I 0 W/m -1,7 C 13,0 km/h (3 Bft)
28.01.2023 02:07 0,0 C -0,6 C 88 % 1027,2 hPa 0,0 l/m 7,0 km/h (2 Bft) N-NW 335 0 min 0,0 UV-I 0 W/m -1,7 C 13,0 km/h (3 Bft)
28.01.2023 02:06 0,0 C -0,5 C 88 % 1027,0 hPa 0,0 l/m 7,4 km/h (2 Bft) N-NW 339 0 min 0,0 UV-I 0 W/m -1,7 C 13,0 km/h (3 Bft)
28.01.2023 02:05 0,0 C -0,5 C 88 % 1027,0 hPa 0,0 l/m 3,2 km/h (1 Bft) N-NO 16 0 min 0,0 UV-I 0 W/m -1,7 C 11,0 km/h (2 Bft)
28.01.2023 02:04 0,0 C -0,6 C 88 % 1026,9 hPa 0,0 l/m 1,6 km/h (1 Bft) N-NO 13 0 min 0,0 UV-I 0 W/m -1,7 C 11,0 km/h (2 Bft)
28.01.2023 02:03 0,0 C -0,5 C 88 % 1027,1 hPa 0,0 l/m 1,0 km/h (0 Bft) N-NO 28 0 min 0,0 UV-I 0 W/m -1,7 C 8,0 km/h (2 Bft)
28.01.2023 02:02 0,0 C -0,5 C 88 % 1027,0 hPa 0,0 l/m 2,1 km/h (1 Bft) W 259 0 min 0,0 UV-I 0 W/m -1,7 C 8,0 km/h (2 Bft)
28.01.2023 02:01 0,0 C -0,4 C 88 % 1027,1 hPa 0,0 l/m 2,7 km/h (1 Bft) N-NW 330 0 min 0,0 UV-I 0 W/m -1,7 C 7,0 km/h (2 Bft)
28.01.2023 02:00 0,1 C -0,4 C 88 % 1027,1 hPa 0,0 l/m 2,3 km/h (1 Bft) N-NW 336 0 min 0,0 UV-I 0 W/m -1,6 C 6,0 km/h (2 Bft)
28.01.2023 01:59 0,1 C -0,3 C 88 % 1027,1 hPa 0,0 l/m 2,3 km/h (1 Bft) N 352 0 min 0,0 UV-I 0 W/m -1,6 C 6,0 km/h (2 Bft)
28.01.2023 01:58 0,1 C -0,2 C 88 % 1026,9 hPa 0,0 l/m 3,3 km/h (1 Bft) N-NO 19 0 min 0,0 UV-I 0 W/m -1,6 C 7,0 km/h (2 Bft)
28.01.2023 01:57 0,1 C -0,1 C 88 % 1027,2 hPa 0,0 l/m 2,3 km/h (1 Bft) N-NO 33 0 min 0,0 UV-I 0 W/m -1,6 C 7,0 km/h (2 Bft)
28.01.2023 01:56 0,1 C -0,2 C 88 % 1027,2 hPa 0,0 l/m 2,3 km/h (1 Bft) N-NW 341 0 min 0,0 UV-I 0 W/m -1,6 C 7,0 km/h (2 Bft)
28.01.2023 01:55 0,1 C 0,0 C 88 % 1027,2 hPa 0,0 l/m 3,6 km/h (1 Bft) N-NW 331 0 min 0,0 UV-I 0 W/m -1,6 C 8,0 km/h (2 Bft)
28.01.2023 01:54 0,1 C 0,0 C 88 % 1027,4 hPa 0,0 l/m 4,5 km/h (1 Bft) W 264 0 min 0,0 UV-I 0 W/m -1,6 C 8,0 km/h (2 Bft)
28.01.2023 01:53 0,1 C 0,0 C 88 % 1027,0 hPa 0,0 l/m 2,2 km/h (1 Bft) N-NW 348 0 min 0,0 UV-I 0 W/m -1,6 C 9,0 km/h (2 Bft)
28.01.2023 01:52 0,1 C -0,1 C 88 % 1026,9 hPa 0,0 l/m 4,3 km/h (1 Bft) N 360 0 min 0,0 UV-I 0 W/m -1,6 C 9,0 km/h (2 Bft)
28.01.2023 01:51 0,1 C -0,1 C 88 % 1026,9 hPa 0,0 l/m 3,5 km/h (1 Bft) N 359 0 min 0,0 UV-I 0 W/m -1,6 C 9,0 km/h (2 Bft)
28.01.2023 01:50 0,1 C -0,3 C 88 % 1027,0 hPa 0,0 l/m 1,3 km/h (1 Bft) N-NO 19 0 min 0,0 UV-I 0 W/m -1,6 C 5,0 km/h (1 Bft)
28.01.2023 01:49 0,1 C -0,3 C 88 % 1027,1 hPa 0,0 l/m 0,0 km/h (0 Bft) O-NO 70 0 min 0,0 UV-I 0 W/m -1,6 C 4,0 km/h (1 Bft)
28.01.2023 01:48 0,1 C -0,2 C 88 % 1026,9 hPa 0,0 l/m 0,0 km/h (0 Bft) N 3 0 min 0,0 UV-I 0 W/m -1,6 C 5,0 km/h (1 Bft)
28.01.2023 01:47 0,2 C -0,3 C 88 % 1027,0 hPa 0,0 l/m 0,0 km/h (0 Bft) O-NO 68 0 min 0,0 UV-I 0 W/m -1,5 C 7,0 km/h (2 Bft)
28.01.2023 01:46 0,2 C -0,2 C 88 % 1026,9 hPa 0,0 l/m 1,3 km/h (1 Bft) NO 56 0 min 0,0 UV-I 0 W/m -1,5 C 7,0 km/h (2 Bft)
28.01.2023 01:45 0,2 C -0,2 C 88 % 1027,1 hPa 0,0 l/m 4,7 km/h (1 Bft) N 357 0 min 0,0 UV-I 0 W/m -1,5 C 10,0 km/h (2 Bft)
28.01.2023 01:44 0,2 C -0,1 C 88 % 1027,1 hPa 0,0 l/m 3,5 km/h (1 Bft) N 359 0 min 0,0 UV-I 0 W/m -1,5 C 10,0 km/h (2 Bft)
28.01.2023 01:43 0,2 C -0,1 C 88 % 1027,1 hPa 0,0 l/m 4,7 km/h (1 Bft) N-NW 341 0 min 0,0 UV-I 0 W/m -1,5 C 10,0 km/h (2 Bft)
28.01.2023 01:42 0,2 C -0,2 C 88 % 1027,1 hPa 0,0 l/m 4,3 km/h (1 Bft) N-NW 334 0 min 0,0 UV-I 0 W/m -1,5 C 8,0 km/h (2 Bft)
28.01.2023 01:41 0,2 C -0,3 C 88 % 1027,1 hPa 0,0 l/m 4,5 km/h (1 Bft) NW 320 0 min 0,0 UV-I 0 W/m -1,5 C 8,0 km/h (2 Bft)
28.01.2023 01:40 0,2 C -0,2 C 88 % 1027,0 hPa 0,0 l/m 3,1 km/h (1 Bft) N 349 0 min 0,0 UV-I 0 W/m -1,5 C 7,0 km/h (2 Bft)
28.01.2023 01:39 0,2 C -0,3 C 88 % 1027,1 hPa 0,0 l/m 1,3 km/h (1 Bft) SW 233 0 min 0,0 UV-I 0 W/m -1,5 C 7,0 km/h (2 Bft)
28.01.2023 01:38 0,2 C -0,1 C 88 % 1027,1 hPa 0,0 l/m 0,0 km/h (0 Bft) N 7 0 min 0,0 UV-I 0 W/m -1,5 C 8,0 km/h (2 Bft)
28.01.2023 01:37 0,3 C 0,0 C 88 % 1027,1 hPa 0,0 l/m 2,7 km/h (1 Bft) N-NO 16 0 min 0,0 UV-I 0 W/m -1,4 C 8,0 km/h (2 Bft)
28.01.2023 01:36 0,3 C -0,1 C 88 % 1027,0 hPa 0,0 l/m 2,7 km/h (1 Bft) NW 313 0 min 0,0 UV-I 0 W/m -1,4 C 8,0 km/h (2 Bft)
28.01.2023 01:35 0,3 C -0,1 C 88 % 1027,0 hPa 0,0 l/m 1,6 km/h (1 Bft) W-SW 256 0 min 0,0 UV-I 0 W/m -1,4 C 8,0 km/h (2 Bft)
28.01.2023 01:34 0,3 C -0,2 C 88 % 1027,1 hPa 0,0 l/m 4,5 km/h (1 Bft) W-NW 296 0 min 0,0 UV-I 0 W/m -1,4 C 8,0 km/h (2 Bft)
28.01.2023 01:33 0,3 C -0,1 C 88 % 1027,0 hPa 0,0 l/m 1,0 km/h (0 Bft) N-NW 348 0 min 0,0 UV-I 0 W/m -1,4 C 5,0 km/h (1 Bft)
28.01.2023 01:32 0,3 C -0,1 C 88 % 1027,0 hPa 0,0 l/m 1,0 km/h (0 Bft) NO 50 0 min 0,0 UV-I 0 W/m -1,4 C 8,0 km/h (2 Bft)
28.01.2023 01:31 0,4 C 0,0 C 88 % 1027,1 hPa 0,0 l/m 1,6 km/h (1 Bft) N-NO 31 0 min 0,0 UV-I 0 W/m -1,3 C 8,0 km/h (2 Bft)
28.01.2023 01:30 0,4 C 0,0 C 88 % 1027,0 hPa 0,0 l/m 2,6 km/h (1 Bft) NW 318 0 min 0,0 UV-I 0 W/m -1,3 C 8,0 km/h (2 Bft)
28.01.2023 01:29 0,4 C -0,1 C 88 % 1027,0 hPa 0,0 l/m 2,7 km/h (1 Bft) W-SW 248 0 min 0,0 UV-I 0 W/m -1,3 C 11,0 km/h (2 Bft)
28.01.2023 01:28 0,4 C -0,2 C 88 % 1027,3 hPa 0,0 l/m 6,0 km/h (2 Bft) N 6 0 min 0,0 UV-I 0 W/m -1,3 C 11,0 km/h (2 Bft)
28.01.2023 01:27 0,4 C -0,2 C 88 % 1027,3 hPa 0,0 l/m 5,4 km/h (1 Bft) N-NO 12 0 min 0,0 UV-I 0 W/m -1,3 C 11,0 km/h (2 Bft)
28.01.2023 01:26 0,4 C -0,1 C 88 % 1027,1 hPa 0,0 l/m 2,6 km/h (1 Bft) N 8 0 min 0,0 UV-I 0 W/m -1,3 C 10,0 km/h (2 Bft)
28.01.2023 01:25 0,4 C 0,0 C 88 % 1027,1 hPa 0,0 l/m 5,2 km/h (1 Bft) N-NW 327 0 min 0,0 UV-I 0 W/m -1,3 C 15,0 km/h (3 Bft)
28.01.2023 01:24 0,4 C 0,1 C 88 % 1027,1 hPa 0,0 l/m 3,6 km/h (1 Bft) N-NW 345 0 min 0,0 UV-I 0 W/m -1,3 C 16,0 km/h (3 Bft)
28.01.2023 01:23 0,4 C 0,0 C 88 % 1027,3 hPa 0,0 l/m 7,8 km/h (2 Bft) N-NW 343 0 min 0,0 UV-I 0 W/m -1,3 C 16,0 km/h (3 Bft)
28.01.2023 01:22 0,4 C 0,0 C 88 % 1027,0 hPa 0,0 l/m 2,9 km/h (1 Bft) W-SW 248 0 min 0,0 UV-I 0 W/m -1,3 C 12,0 km/h (2 Bft)
28.01.2023 01:21 0,5 C 0,1 C 88 % 1027,1 hPa 0,0 l/m 0,0 km/h (0 Bft) N-NO 21 0 min 0,0 UV-I 0 W/m -1,3 C 12,0 km/h (2 Bft)
28.01.2023 01:20 0,5 C 0,3 C 88 % 1027,1 hPa 0,0 l/m 6,1 km/h (2 Bft) N 352 0 min 0,0 UV-I 0 W/m -1,3 C 12,0 km/h (2 Bft)
28.01.2023 01:19 0,5 C 0,3 C 88 % 1027,1 hPa 0,0 l/m 4,3 km/h (1 Bft) W 269 0 min 0,0 UV-I 0 W/m -1,3 C 10,0 km/h (2 Bft)
28.01.2023 01:18 0,5 C 0,1 C 88 % 1027,1 hPa 0,0 l/m 5,2 km/h (1 Bft) N-NW 348 0 min 0,0 UV-I 0 W/m -1,3 C 10,0 km/h (2 Bft)
28.01.2023 01:17 0,5 C 0,2 C 88 % 1027,2 hPa 0,0 l/m 2,0 km/h (1 Bft) W 264 0 min 0,0 UV-I 0 W/m -1,3 C 6,0 km/h (2 Bft)
28.01.2023 01:16 0,5 C 0,3 C 88 % 1027,0 hPa 0,0 l/m 1,4 km/h (1 Bft) N-NO 23 0 min 0,0 UV-I 0 W/m -1,3 C 4,0 km/h (1 Bft)
28.01.2023 01:15 0,5 C 0,4 C 88 % 1027,3 hPa 0,0 l/m 1,3 km/h (1 Bft) O 100 0 min 0,0 UV-I 0 W/m -1,3 C 11,0 km/h (2 Bft)
28.01.2023 01:14 0,5 C 0,6 C 88 % 1027,2 hPa 0,0 l/m 1,0 km/h (0 Bft) O 91 0 min 0,0 UV-I 0 W/m -1,3 C 18,0 km/h (3 Bft)
28.01.2023 01:13 0,5 C 0,6 C 88 % 1027,3 hPa 0,0 l/m 2,3 km/h (1 Bft) NO 42 0 min 0,0 UV-I 0 W/m -1,3 C 18,0 km/h (3 Bft)
28.01.2023 01:12 0,5 C 0,6 C 88 % 1027,0 hPa 0,0 l/m 10,1 km/h (2 Bft) N-NO 17 0 min 0,0 UV-I 0 W/m -1,3 C 18,0 km/h (3 Bft)
28.01.2023 01:11 0,5 C 0,6 C 88 % 1027,0 hPa 0,0 l/m 9,9 km/h (2 Bft) N 1 0 min 0,0 UV-I 0 W/m -1,3 C 18,0 km/h (3 Bft)
28.01.2023 01:10 0,5 C 0,7 C 88 % 1027,0 hPa 0,0 l/m 6,2 km/h (2 Bft) N 7 0 min 0,0 UV-I 0 W/m -1,3 C 18,0 km/h (3 Bft)
28.01.2023 01:09 0,5 C 0,6 C 88 % 1027,3 hPa 0,0 l/m 5,2 km/h (1 Bft) N-NO 21 0 min 0,0 UV-I 0 W/m -1,3 C 18,0 km/h (3 Bft)
28.01.2023 01:08 0,5 C 0,7 C 88 % 1027,2 hPa 0,0 l/m 7,4 km/h (2 Bft) N-NW 347 0 min 0,0 UV-I 0 W/m -1,3 C 18,0 km/h (3 Bft)
28.01.2023 01:07 0,5 C 0,7 C 88 % 1027,2 hPa 0,0 l/m 5,7 km/h (1 Bft) N-NW 336 0 min 0,0 UV-I 0 W/m -1,3 C 20,0 km/h (4 Bft)
28.01.2023 01:06 0,5 C 0,7 C 88 % 1027,0 hPa 0,0 l/m 9,3 km/h (2 Bft) N-NO 18 0 min 0,0 UV-I 0 W/m -1,3 C 20,0 km/h (4 Bft)
28.01.2023 01:05 0,5 C 0,7 C 88 % 1027,2 hPa 0,0 l/m 6,8 km/h (2 Bft) N 6 0 min 0,0 UV-I 0 W/m -1,3 C 13,0 km/h (3 Bft)
28.01.2023 01:04 0,6 C 0,6 C 88 % 1027,1 hPa 0,0 l/m 3,6 km/h (1 Bft) N-NO 26 0 min 0,0 UV-I 0 W/m -1,2 C 14,0 km/h (3 Bft)
28.01.2023 01:03 0,6 C 0,6 C 88 % 1027,1 hPa 0,0 l/m 4,7 km/h (1 Bft) NO 35 0 min 0,0 UV-I 0 W/m -1,2 C 14,0 km/h (3 Bft)
28.01.2023 01:02 0,6 C 0,6 C 88 % 1027,2 hPa 0,0 l/m 8,3 km/h (2 Bft) N 351 0 min 0,0 UV-I 0 W/m -1,2 C 14,0 km/h (3 Bft)
28.01.2023 01:01 0,6 C 0,6 C 88 % 1027,4 hPa 0,0 l/m 3,1 km/h (1 Bft) N 352 0 min 0,0 UV-I 0 W/m -1,2 C 16,0 km/h (3 Bft)
28.01.2023 01:00 0,6 C 0,6 C 88 % 1027,2 hPa 0,0 l/m 9,2 km/h (2 Bft) N 350 0 min 0,0 UV-I 0 W/m -1,2 C 16,0 km/h (3 Bft)
28.01.2023 00:59 0,6 C 0,6 C 88 % 1027,1 hPa 0,0 l/m 6,0 km/h (2 Bft) N 5 0 min 0,0 UV-I 0 W/m -1,2 C 12,0 km/h (2 Bft)
28.01.2023 00:58 0,6 C 0,7 C 88 % 1027,0 hPa 0,0 l/m 5,1 km/h (1 Bft) N-NO 27 0 min 0,0 UV-I 0 W/m -1,2 C 10,0 km/h (2 Bft)
28.01.2023 00:57 0,6 C 0,7 C 88 % 1027,1 hPa 0,0 l/m 4,5 km/h (1 Bft) N-NW 335 0 min 0,0 UV-I 0 W/m -1,2 C 10,0 km/h (2 Bft)
28.01.2023 00:56 0,6 C 0,8 C 88 % 1027,2 hPa 0,0 l/m 6,4 km/h (2 Bft) N-NO 21 0 min 0,0 UV-I 0 W/m -1,2 C 10,0 km/h (2 Bft)
28.01.2023 00:55 0,6 C 0,6 C 88 % 1027,2 hPa 0,0 l/m 6,0 km/h (2 Bft) N-NO 18 0 min 0,0 UV-I 0 W/m -1,2 C 10,0 km/h (2 Bft)
28.01.2023 00:54 0,6 C 0,6 C 88 % 1027,3 hPa 0,0 l/m 2,3 km/h (1 Bft) N-NO 31 0 min 0,0 UV-I 0 W/m -1,2 C 12,0 km/h (2 Bft)
28.01.2023 00:53 0,6 C 0,8 C 88 % 1027,2 hPa 0,0 l/m 6,0 km/h (2 Bft) NO 36 0 min 0,0 UV-I 0 W/m -1,2 C 12,0 km/h (2 Bft)
28.01.2023 00:52 0,6 C 0,7 C 88 % 1027,0 hPa 0,0 l/m 6,0 km/h (2 Bft) N-NO 20 0 min 0,0 UV-I 0 W/m -1,2 C 13,0 km/h (3 Bft)
28.01.2023 00:51 0,6 C 0,9 C 88 % 1027,1 hPa 0,0 l/m 5,6 km/h (1 Bft) N 8 0 min 0,0 UV-I 0 W/m -1,2 C 14,0 km/h (3 Bft)
28.01.2023 00:50 0,6 C 0,8 C 88 % 1027,3 hPa 0,0 l/m 5,6 km/h (1 Bft) N-NO 18 0 min 0,0 UV-I 0 W/m -1,2 C 14,0 km/h (3 Bft)
28.01.2023 00:49 0,6 C 0,8 C 88 % 1027,1 hPa 0,0 l/m 2,7 km/h (1 Bft) N 5 0 min 0,0 UV-I 0 W/m -1,2 C 14,0 km/h (3 Bft)
28.01.2023 00:48 0,6 C 0,8 C 88 % 1027,1 hPa 0,0 l/m 3,9 km/h (1 Bft) N 8 0 min 0,0 UV-I 0 W/m -1,2 C 13,0 km/h (3 Bft)
28.01.2023 00:47 0,6 C 0,8 C 88 % 1027,1 hPa 0,0 l/m 4,7 km/h (1 Bft) N-NO 12 0 min 0,0 UV-I 0 W/m -1,2 C 17,0 km/h (3 Bft)
28.01.2023 00:46 0,7 C 0,7 C 88 % 1027,2 hPa 0,0 l/m 8,8 km/h (2 Bft) N-NO 21 0 min 0,0 UV-I 0 W/m -1,1 C 17,0 km/h (3 Bft)
28.01.2023 00:45 0,7 C 0,8 C 88 % 1027,2 hPa 0,0 l/m 6,7 km/h (2 Bft) N 350 0 min 0,0 UV-I 0 W/m -1,1 C 17,0 km/h (3 Bft)
28.01.2023 00:44 0,7 C 0,9 C 88 % 1026,9 hPa 0,0 l/m 6,8 km/h (2 Bft) N-NO 17 0 min 0,0 UV-I 0 W/m -1,1 C 21,0 km/h (4 Bft)
28.01.2023 00:43 0,7 C 0,8 C 88 % 1027,2 hPa 0,0 l/m 4,9 km/h (1 Bft) N 350 0 min 0,0 UV-I 0 W/m -1,1 C 21,0 km/h (4 Bft)
28.01.2023 00:42 0,7 C 0,9 C 88 % 1027,2 hPa 0,0 l/m 6,0 km/h (2 Bft) N-NW 346 0 min 0,0 UV-I 0 W/m -1,1 C 12,0 km/h (2 Bft)
28.01.2023 00:41 0,7 C 0,8 C 88 % 1027,1 hPa 0,0 l/m 4,0 km/h (1 Bft) N-NO 27 0 min 0,0 UV-I 0 W/m -1,1 C 12,0 km/h (2 Bft)
28.01.2023 00:40 0,7 C 0,9 C 88 % 1027,1 hPa 0,0 l/m 4,8 km/h (1 Bft) N-NO 12 0 min 0,0 UV-I 0 W/m -1,1 C 11,0 km/h (2 Bft)
28.01.2023 00:39 0,7 C 0,9 C 88 % 1027,1 hPa 0,0 l/m 4,8 km/h (1 Bft) N 9 0 min 0,0 UV-I 0 W/m -1,1 C 11,0 km/h (2 Bft)
28.01.2023 00:38 0,7 C 1,0 C 88 % 1027,2 hPa 0,0 l/m 4,7 km/h (1 Bft) N 10 0 min 0,0 UV-I 0 W/m -1,1 C 11,0 km/h (2 Bft)
28.01.2023 00:37 0,7 C 0,9 C 88 % 1027,0 hPa 0,0 l/m 4,2 km/h (1 Bft) N-NO 32 0 min 0,0 UV-I 0 W/m -1,1 C 9,0 km/h (2 Bft)
28.01.2023 00:36 0,7 C 1,0 C 88 % 1027,2 hPa 0,0 l/m 3,1 km/h (1 Bft) N-NO 14 0 min 0,0 UV-I 0 W/m -1,1 C 12,0 km/h (2 Bft)
28.01.2023 00:35 0,7 C 1,0 C 88 % 1026,9 hPa 0,0 l/m 7,6 km/h (2 Bft) N 1 0 min 0,0 UV-I 0 W/m -1,1 C 12,0 km/h (2 Bft)
28.01.2023 00:34 0,7 C 1,0 C 88 % 1027,1 hPa 0,0 l/m 6,1 km/h (2 Bft) N-NO 18 0 min 0,0 UV-I 0 W/m -1,1 C 16,0 km/h (3 Bft)
28.01.2023 00:33 0,7 C 1,0 C 88 % 1027,1 hPa 0,0 l/m 2,2 km/h (1 Bft) N-NW 346 0 min 0,0 UV-I 0 W/m -1,1 C 16,0 km/h (3 Bft)
28.01.2023 00:32 0,7 C 1,0 C 88 % 1027,0 hPa 0,0 l/m 7,6 km/h (2 Bft) N 354 0 min 0,0 UV-I 0 W/m -1,1 C 16,0 km/h (3 Bft)
28.01.2023 00:31 0,7 C 1,0 C 88 % 1027,0 hPa 0,0 l/m 7,9 km/h (2 Bft) N 357 0 min 0,0 UV-I 0 W/m -1,1 C 12,0 km/h (2 Bft)
28.01.2023 00:30 0,7 C 1,0 C 88 % 1027,1 hPa 0,0 l/m 6,4 km/h (2 Bft) N-NO 24 0 min 0,0 UV-I 0 W/m -1,1 C 12,0 km/h (2 Bft)
28.01.2023 00:29 0,7 C 1,0 C 88 % 1027,2 hPa 0,0 l/m 6,7 km/h (2 Bft) N-NO 12 0 min 0,0 UV-I 0 W/m -1,1 C 12,0 km/h (2 Bft)
28.01.2023 00:28 0,7 C 1,0 C 88 % 1027,1 hPa 0,0 l/m 3,2 km/h (1 Bft) NO 41 0 min 0,0 UV-I 0 W/m -1,1 C 11,0 km/h (2 Bft)
28.01.2023 00:27 0,7 C 1,1 C 88 % 1027,0 hPa 0,0 l/m 5,2 km/h (1 Bft) N-NO 15 0 min 0,0 UV-I 0 W/m -1,1 C 17,0 km/h (3 Bft)
28.01.2023 00:26 0,7 C 1,1 C 88 % 1027,1 hPa 0,0 l/m 6,7 km/h (2 Bft) N-NO 26 0 min 0,0 UV-I 0 W/m -1,1 C 17,0 km/h (3 Bft)
28.01.2023 00:25 0,7 C 1,0 C 88 % 1027,3 hPa 0,0 l/m 7,9 km/h (2 Bft) NO 36 0 min 0,0 UV-I 0 W/m -1,1 C 17,0 km/h (3 Bft)
28.01.2023 00:24 0,8 C 1,0 C 88 % 1027,2 hPa 0,0 l/m 7,6 km/h (2 Bft) N 6 0 min 0,0 UV-I 0 W/m -1,0 C 14,0 km/h (3 Bft)
28.01.2023 00:23 0,8 C 1,0 C 88 % 1027,2 hPa 0,0 l/m 5,6 km/h (1 Bft) N 4 0 min 0,0 UV-I 0 W/m -1,0 C 14,0 km/h (3 Bft)
28.01.2023 00:22 0,8 C 1,0 C 88 % 1027,0 hPa 0,0 l/m 4,2 km/h (1 Bft) N 355 0 min 0,0 UV-I 0 W/m -1,0 C 11,0 km/h (2 Bft)
28.01.2023 00:21 0,7 C 1,1 C 88 % 1027,1 hPa 0,0 l/m 6,8 km/h (2 Bft) N 359 0 min 0,0 UV-I 0 W/m -1,1 C 16,0 km/h (3 Bft)
28.01.2023 00:20 0,8 C 1,0 C 88 % 1027,3 hPa 0,0 l/m 6,8 km/h (2 Bft) N 3 0 min 0,0 UV-I 0 W/m -1,0 C 16,0 km/h (3 Bft)
28.01.2023 00:19 0,8 C 1,0 C 88 % 1027,1 hPa 0,0 l/m 5,6 km/h (1 Bft) N 11 0 min 0,0 UV-I 0 W/m -1,0 C 13,0 km/h (3 Bft)
28.01.2023 00:18 0,8 C 1,0 C 88 % 1027,3 hPa 0,0 l/m 3,2 km/h (1 Bft) NO 38 0 min 0,0 UV-I 0 W/m -1,0 C 13,0 km/h (3 Bft)
28.01.2023 00:17 0,8 C 1,1 C 88 % 1027,3 hPa 0,0 l/m 6,1 km/h (2 Bft) N-NO 14 0 min 0,0 UV-I 0 W/m -1,0 C 14,0 km/h (3 Bft)
28.01.2023 00:16 0,8 C 1,1 C 88 % 1027,3 hPa 0,0 l/m 6,1 km/h (2 Bft) N-NO 24 0 min 0,0 UV-I 0 W/m -1,0 C 19,0 km/h (3 Bft)
28.01.2023 00:15 0,8 C 1,1 C 88 % 1027,3 hPa 0,0 l/m 7,9 km/h (2 Bft) N-NO 14 0 min 0,0 UV-I 0 W/m -1,0 C 19,0 km/h (3 Bft)
28.01.2023 00:14 0,8 C 1,1 C 88 % 1027,1 hPa 0,0 l/m 8,3 km/h (2 Bft) N-NO 29 0 min 0,0 UV-I 0 W/m -1,0 C 24,0 km/h (4 Bft)
28.01.2023 00:13 0,8 C 1,1 C 88 % 1027,3 hPa 0,0 l/m 8,0 km/h (2 Bft) N 359 0 min 0,0 UV-I 0 W/m -1,0 C 24,0 km/h (4 Bft)
28.01.2023 00:12 0,8 C 1,1 C 88 % 1026,9 hPa 0,0 l/m 14,1 km/h (3 Bft) N 349 0 min 0,0 UV-I 0 W/m -1,0 C 24,0 km/h (4 Bft)
28.01.2023 00:11 0,8 C 1,1 C 88 % 1027,2 hPa 0,0 l/m 6,7 km/h (2 Bft) N-NW 334 0 min 0,0 UV-I 0 W/m -1,0 C 14,0 km/h (3 Bft)
28.01.2023 00:10 0,8 C 1,1 C 88 % 1027,2 hPa 0,0 l/m 6,1 km/h (2 Bft) N-NW 348 0 min 0,0 UV-I 0 W/m -1,0 C 12,0 km/h (2 Bft)
28.01.2023 00:09 0,8 C 1,1 C 88 % 1027,0 hPa 0,0 l/m 4,9 km/h (1 Bft) N 360 0 min 0,0 UV-I 0 W/m -1,0 C 12,0 km/h (2 Bft)
28.01.2023 00:08 0,8 C 1,2 C 88 % 1027,2 hPa 0,0 l/m 9,0 km/h (2 Bft) N-NO 12 0 min 0,0 UV-I 0 W/m -1,0 C 12,0 km/h (2 Bft)
28.01.2023 00:07 0,8 C 1,2 C 88 % 1027,2 hPa 0,0 l/m 6,7 km/h (2 Bft) N-NW 336 0 min 0,0 UV-I 0 W/m -1,0 C 9,0 km/h (2 Bft)
28.01.2023 00:06 0,8 C 1,1 C 88 % 1027,1 hPa 0,0 l/m 3,8 km/h (1 Bft) N 5 0 min 0,0 UV-I 0 W/m -1,0 C 12,0 km/h (2 Bft)
28.01.2023 00:05 0,8 C 1,1 C 88 % 1027,2 hPa 0,0 l/m 5,1 km/h (1 Bft) N-NO 17 0 min 0,0 UV-I 0 W/m -1,0 C 14,0 km/h (3 Bft)
28.01.2023 00:04 0,8 C 1,2 C 88 % 1027,2 hPa 0,0 l/m 6,9 km/h (2 Bft) N-NW 336 0 min 0,0 UV-I 0 W/m -1,0 C 14,0 km/h (3 Bft)
28.01.2023 00:03 0,8 C 1,1 C 88 % 1027,2 hPa 0,0 l/m 1,4 km/h (1 Bft) N-NO 17 0 min 0,0 UV-I 0 W/m -1,0 C 14,0 km/h (3 Bft)
28.01.2023 00:02 0,8 C 1,2 C 88 % 1027,3 hPa 0,0 l/m 7,6 km/h (2 Bft) N 3 0 min 0,0 UV-I 0 W/m -1,0 C 14,0 km/h (3 Bft)
28.01.2023 00:01 0,8 C 1,1 C 88 % 1027,4 hPa 0,0 l/m 2,9 km/h (1 Bft) NW 324 0 min 0,0 UV-I 0 W/m -1,0 C 9,0 km/h (2 Bft)
28.01.2023 00:00 0,8 C 1,1 C 88 % 1027,4 hPa 0,0 l/m 2,9 km/h (1 Bft) NO 56 0 min 0,0 UV-I 0 W/m -1,0 C 12,0 km/h (2 Bft)
27.01.2023 23:59 0,8 C 1,2 C 88 % 1027,2 hPa 0,0 l/m 3,6 km/h (1 Bft) N-NO 23 0 min 0,0 UV-I 0 W/m -1,0 C 13,0 km/h (3 Bft)
27.01.2023 23:58 0,8 C 1,1 C 88 % 1027,3 hPa 0,0 l/m 6,0 km/h (2 Bft) N 3 0 min 0,0 UV-I 0 W/m -1,0 C 13,0 km/h (3 Bft)
27.01.2023 23:57 0,8 C 1,1 C 88 % 1027,1 hPa 0,0 l/m 9,0 km/h (2 Bft) N-NO 17 0 min 0,0 UV-I 0 W/m -1,0 C 13,0 km/h (3 Bft)
27.01.2023 23:56 0,8 C 1,1 C 88 % 1027,1 hPa 0,0 l/m 5,1 km/h (1 Bft) N-NW 348 0 min 0,0 UV-I 0 W/m -1,0 C 11,0 km/h (2 Bft)
27.01.2023 23:55 0,8 C 1,1 C 88 % 1027,2 hPa 0,0 l/m 0,0 km/h (0 Bft) NO 47 0 min 0,0 UV-I 0 W/m -1,0 C 12,0 km/h (2 Bft)
27.01.2023 23:54 0,8 C 1,1 C 88 % 1027,4 hPa 0,0 l/m 4,7 km/h (1 Bft) NW 324 0 min 0,0 UV-I 0 W/m -1,0 C 12,0 km/h (2 Bft)
27.01.2023 23:53 0,8 C 1,1 C 88 % 1027,0 hPa 0,0 l/m 1,0 km/h (0 Bft) NO 52 0 min 0,0 UV-I 0 W/m -1,0 C 7,0 km/h (2 Bft)
27.01.2023 23:52 0,8 C 1,1 C 88 % 1027,2 hPa 0,0 l/m 2,3 km/h (1 Bft) W 279 0 min 0,0 UV-I 0 W/m -1,0 C 7,0 km/h (2 Bft)
27.01.2023 23:51 0,8 C 1,1 C 88 % 1027,2 hPa 0,0 l/m 2,3 km/h (1 Bft) W 273 0 min 0,0 UV-I 0 W/m -1,0 C 7,0 km/h (2 Bft)
27.01.2023 23:50 0,8 C 1,1 C 88 % 1027,5 hPa 0,0 l/m 1,3 km/h (1 Bft) N-NO 22 0 min 0,0 UV-I 0 W/m -1,0 C 8,0 km/h (2 Bft)
27.01.2023 23:49 0,8 C 1,1 C 88 % 1027,5 hPa 0,0 l/m 2,5 km/h (1 Bft) N-NO 14 0 min 0,0 UV-I 0 W/m -1,0 C 11,0 km/h (2 Bft)
27.01.2023 23:48 0,8 C 1,1 C 88 % 1027,4 hPa 0,0 l/m 3,9 km/h (1 Bft) N 357 0 min 0,0 UV-I 0 W/m -1,0 C 13,0 km/h (3 Bft)
27.01.2023 23:47 0,8 C 1,2 C 88 % 1027,2 hPa 0,0 l/m 7,0 km/h (2 Bft) N-NW 344 0 min 0,0 UV-I 0 W/m -1,0 C 17,0 km/h (3 Bft)
27.01.2023 23:46 0,8 C 1,1 C 88 % 1027,2 hPa 0,0 l/m 7,7 km/h (2 Bft) N-NW 343 0 min 0,0 UV-I 0 W/m -1,0 C 17,0 km/h (3 Bft)
27.01.2023 23:45 0,8 C 1,1 C 88 % 1027,3 hPa 0,0 l/m 9,4 km/h (2 Bft) N 355 0 min 0,0 UV-I 0 W/m -1,0 C 15,0 km/h (3 Bft)
27.01.2023 23:44 0,9 C 1,2 C 88 % 1027,2 hPa 0,0 l/m 6,1 km/h (2 Bft) N 352 0 min 0,0 UV-I 0 W/m -0,9 C 12,0 km/h (2 Bft)
27.01.2023 23:43 0,8 C 1,2 C 88 % 1027,2 hPa 0,0 l/m 8,0 km/h (2 Bft) N 356 0 min 0,0 UV-I 0 W/m -1,0 C 12,0 km/h (2 Bft)
27.01.2023 23:42 0,8 C 1,2 C 88 % 1027,3 hPa 0,0 l/m 3,8 km/h (1 Bft) N-NO 16 0 min 0,0 UV-I 0 W/m -1,0 C 9,0 km/h (2 Bft)
27.01.2023 23:41 0,9 C 1,1 C 88 % 1027,2 hPa 0,0 l/m 5,5 km/h (1 Bft) N-NW 346 0 min 0,0 UV-I 0 W/m -0,9 C 9,0 km/h (2 Bft)
27.01.2023 23:40 0,8 C 1,2 C 88 % 1027,0 hPa 0,0 l/m 2,3 km/h (1 Bft) N-NW 339 0 min 0,0 UV-I 0 W/m -1,0 C 11,0 km/h (2 Bft)
27.01.2023 23:39 0,9 C 1,2 C 88 % 1027,2 hPa 0,0 l/m 5,6 km/h (1 Bft) N-NW 330 0 min 0,0 UV-I 0 W/m -0,9 C 13,0 km/h (3 Bft)
27.01.2023 23:38 0,9 C 1,1 C 88 % 1027,2 hPa 0,0 l/m 7,9 km/h (2 Bft) NW 309 0 min 0,0 UV-I 0 W/m -0,9 C 13,0 km/h (3 Bft)
27.01.2023 23:37 0,9 C 1,1 C 88 % 1027,2 hPa 0,0 l/m 2,0 km/h (1 Bft) S-SO 156 0 min 0,0 UV-I 0 W/m -0,9 C 6,0 km/h (2 Bft)
27.01.2023 23:36 0,9 C 1,1 C 88 % 1027,1 hPa 0,0 l/m 2,0 km/h (1 Bft) NO 36 0 min 0,0 UV-I 0 W/m -0,9 C 5,0 km/h (1 Bft)
27.01.2023 23:35 0,9 C 1,2 C 88 % 1027,1 hPa 0,0 l/m 0,0 km/h (0 Bft) N-NO 22 0 min 0,0 UV-I 0 W/m -0,9 C 6,0 km/h (2 Bft)
27.01.2023 23:34 0,9 C 1,2 C 88 % 1027,3 hPa 0,0 l/m 0,0 km/h (0 Bft) N-NO 26 0 min 0,0 UV-I 0 W/m -0,9 C 8,0 km/h (2 Bft)
27.01.2023 23:33 0,9 C 1,1 C 88 % 1027,0 hPa 0,0 l/m 2,6 km/h (1 Bft) O-NO 68 0 min 0,0 UV-I 0 W/m -0,9 C 8,0 km/h (2 Bft)
27.01.2023 23:32 0,9 C 1,1 C 88 % 1027,1 hPa 0,0 l/m 2,2 km/h (1 Bft) N 1 0 min 0,0 UV-I 0 W/m -0,9 C 8,0 km/h (2 Bft)
27.01.2023 23:31 0,9 C 1,2 C 88 % 1027,1 hPa 0,0 l/m 3,6 km/h (1 Bft) N-NO 15 0 min 0,0 UV-I 0 W/m -0,9 C 13,0 km/h (3 Bft)
27.01.2023 23:30 0,9 C 1,2 C 88 % 1027,4 hPa 0,0 l/m 5,8 km/h (2 Bft) N 354 0 min 0,0 UV-I 0 W/m -0,9 C 13,0 km/h (3 Bft)
27.01.2023 23:29 0,9 C 1,2 C 88 % 1027,2 hPa 0,0 l/m 2,0 km/h (1 Bft) N 1 0 min 0,0 UV-I 0 W/m -0,9 C 10,0 km/h (2 Bft)
27.01.2023 23:28 0,9 C 1,2 C 88 % 1027,1 hPa 0,0 l/m 2,3 km/h (1 Bft) N 4 0 min 0,0 UV-I 0 W/m -0,9 C 15,0 km/h (3 Bft)
27.01.2023 23:27 0,9 C 1,2 C 88 % 1027,1 hPa 0,0 l/m 1,3 km/h (1 Bft) N-NO 24 0 min 0,0 UV-I 0 W/m -0,9 C 15,0 km/h (3 Bft)
27.01.2023 23:26 0,9 C 1,2 C 88 % 1027,3 hPa 0,0 l/m 8,3 km/h (2 Bft) NO 44 0 min 0,0 UV-I 0 W/m -0,9 C 15,0 km/h (3 Bft)
27.01.2023 23:25 0,9 C 1,2 C 88 % 1027,4 hPa 0,0 l/m 3,8 km/h (1 Bft) N-NO 12 0 min 0,0 UV-I 0 W/m -0,9 C 7,0 km/h (2 Bft)
27.01.2023 23:24 0,9 C 1,2 C 88 % 1027,2 hPa 0,0 l/m 1,6 km/h (1 Bft) SW 227 0 min 0,0 UV-I 0 W/m -0,9 C 6,0 km/h (2 Bft)
27.01.2023 23:23 0,9 C 1,2 C 88 % 1027,0 hPa 0,0 l/m 1,6 km/h (1 Bft) N 353 0 min 0,0 UV-I 0 W/m -0,9 C 5,0 km/h (1 Bft)
27.01.2023 23:22 0,9 C 1,2 C 88 % 1027,2 hPa 0,0 l/m 1,3 km/h (1 Bft) N-NO 22 0 min 0,0 UV-I 0 W/m -0,9 C 7,0 km/h (2 Bft)
27.01.2023 23:21 0,9 C 1,3 C 88 % 1027,3 hPa 0,0 l/m 2,2 km/h (1 Bft) N 6 0 min 0,0 UV-I 0 W/m -0,9 C 13,0 km/h (3 Bft)
27.01.2023 23:20 0,9 C 1,2 C 88 % 1027,3 hPa 0,0 l/m 4,5 km/h (1 Bft) N-NO 13 0 min 0,0 UV-I 0 W/m -0,9 C 13,0 km/h (3 Bft)
27.01.2023 23:19 0,9 C 1,3 C 88 % 1027,3 hPa 0,0 l/m 7,6 km/h (2 Bft) N-NO 14 0 min 0,0 UV-I 0 W/m -0,9 C 13,0 km/h (3 Bft)
27.01.2023 23:18 0,9 C 1,2 C 88 % 1027,1 hPa 0,0 l/m 4,5 km/h (1 Bft) N-NO 17 0 min 0,0 UV-I 0 W/m -0,9 C 8,0 km/h (2 Bft)
27.01.2023 23:17 0,9 C 1,2 C 88 % 1027,2 hPa 0,0 l/m 3,8 km/h (1 Bft) NW 326 0 min 0,0 UV-I 0 W/m -0,9 C 8,0 km/h (2 Bft)
27.01.2023 23:16 0,9 C 1,2 C 88 % 1027,3 hPa 0,0 l/m 3,5 km/h (1 Bft) N-NO 17 0 min 0,0 UV-I 0 W/m -0,9 C 10,0 km/h (2 Bft)
27.01.2023 23:15 1,0 C 1,2 C 88 % 1027,1 hPa 0,0 l/m 3,3 km/h (1 Bft) N-NW 348 0 min 0,0 UV-I 0 W/m -0,8 C 10,0 km/h (2 Bft)
27.01.2023 23:14 1,0 C 1,2 C 88 % 1027,3 hPa 0,0 l/m 1,6 km/h (1 Bft) O-NO 60 0 min 0,0 UV-I 0 W/m -0,8 C 18,0 km/h (3 Bft)
27.01.2023 23:13 1,0 C 1,3 C 88 % 1027,2 hPa 0,0 l/m 3,4 km/h (1 Bft) NO 35 0 min 0,0 UV-I 0 W/m -0,8 C 18,0 km/h (3 Bft)
27.01.2023 23:12 1,0 C 1,3 C 88 % 1027,3 hPa 0,0 l/m 6,4 km/h (2 Bft) N-NO 22 0 min 0,0 UV-I 0 W/m -0,8 C 18,0 km/h (3 Bft)
27.01.2023 23:11 1,0 C 1,2 C 88 % 1027,3 hPa 0,0 l/m 3,8 km/h (1 Bft) N 360 0 min 0,0 UV-I 0 W/m -0,8 C 7,0 km/h (2 Bft)
27.01.2023 23:10 1,0 C 1,3 C 88 % 1027,2 hPa 0,0 l/m 3,4 km/h (1 Bft) NO 39 0 min 0,0 UV-I 0 W/m -0,8 C 9,0 km/h (2 Bft)
27.01.2023 23:09 1,0 C 1,3 C 88 % 1027,3 hPa 0,0 l/m 3,5 km/h (1 Bft) NW 321 0 min 0,0 UV-I 0 W/m -0,8 C 9,0 km/h (2 Bft)
27.01.2023 23:08 1,0 C 1,3 C 88 % 1027,3 hPa 0,0 l/m 3,4 km/h (1 Bft) N 6 0 min 0,0 UV-I 0 W/m -0,8 C 9,0 km/h (2 Bft)
27.01.2023 23:07 1,0 C 1,3 C 88 % 1027,3 hPa 0,0 l/m 3,1 km/h (1 Bft) N 355 0 min 0,0 UV-I 0 W/m -0,8 C 9,0 km/h (2 Bft)
27.01.2023 23:06 1,0 C 1,3 C 88 % 1027,4 hPa 0,0 l/m 1,6 km/h (1 Bft) N 8 0 min 0,0 UV-I 0 W/m -0,8 C 9,0 km/h (2 Bft)
27.01.2023 23:05 1,0 C 1,3 C 88 % 1027,2 hPa 0,0 l/m 2,6 km/h (1 Bft) S 180 0 min 0,0 UV-I 0 W/m -0,8 C 13,0 km/h (3 Bft)
27.01.2023 23:04 1,0 C 1,3 C 88 % 1027,2 hPa 0,0 l/m 1,3 km/h (1 Bft) O-NO 60 0 min 0,0 UV-I 0 W/m -0,8 C 13,0 km/h (3 Bft)
27.01.2023 23:03 1,0 C 1,3 C 88 % 1027,2 hPa 0,0 l/m 3,8 km/h (1 Bft) NO 56 0 min 0,0 UV-I 0 W/m -0,8 C 13,0 km/h (3 Bft)
27.01.2023 23:02 1,0 C 1,3 C 88 % 1027,3 hPa 0,0 l/m 4,0 km/h (1 Bft) N-NW 339 0 min 0,0 UV-I 0 W/m -0,8 C 9,0 km/h (2 Bft)
27.01.2023 23:01 1,0 C 1,3 C 88 % 1027,2 hPa 0,0 l/m 3,6 km/h (1 Bft) N-NO 14 0 min 0,0 UV-I 0 W/m -0,8 C 13,0 km/h (3 Bft)
27.01.2023 23:00 1,0 C 1,3 C 88 % 1027,3 hPa 0,0 l/m 5,1 km/h (1 Bft) N-NW 340 0 min 0,0 UV-I 0 W/m -0,8 C 14,0 km/h (3 Bft)
27.01.2023 22:59 1,0 C 1,3 C 88 % 1027,3 hPa 0,0 l/m 6,4 km/h (2 Bft) N 355 0 min 0,0 UV-I 0 W/m -0,8 C 14,0 km/h (3 Bft)
27.01.2023 22:58 1,0 C 1,3 C 88 % 1027,2 hPa 0,0 l/m 3,8 km/h (1 Bft) N 355 0 min 0,0 UV-I 0 W/m -0,8 C 7,0 km/h (2 Bft)
27.01.2023 22:57 1,1 C 1,3 C 88 % 1027,4 hPa 0,0 l/m 1,4 km/h (1 Bft) W 280 0 min 0,0 UV-I 0 W/m -0,7 C 9,0 km/h (2 Bft)
27.01.2023 22:56 1,1 C 1,3 C 88 % 1027,3 hPa 0,0 l/m 2,0 km/h (1 Bft) N-NO 28 0 min 0,0 UV-I 0 W/m -0,7 C 9,0 km/h (2 Bft)
27.01.2023 22:55 1,1 C 1,3 C 88 % 1027,3 hPa 0,0 l/m 4,7 km/h (1 Bft) N-NO 13 0 min 0,0 UV-I 0 W/m -0,7 C 9,0 km/h (2 Bft)
27.01.2023 22:54 1,1 C 1,3 C 88 % 1027,4 hPa 0,0 l/m 1,4 km/h (1 Bft) N-NO 14 0 min 0,0 UV-I 0 W/m -0,7 C 6,0 km/h (2 Bft)
27.01.2023 22:53 1,1 C 1,4 C 88 % 1027,1 hPa 0,0 l/m 2,5 km/h (1 Bft) N-NO 24 0 min 0,0 UV-I 0 W/m -0,7 C 11,0 km/h (2 Bft)
27.01.2023 22:52 1,1 C 1,4 C 88 % 1027,3 hPa 0,0 l/m 1,0 km/h (0 Bft) O-NO 60 0 min 0,0 UV-I 0 W/m -0,7 C 11,0 km/h (2 Bft)
27.01.2023 22:51 1,1 C 1,4 C 88 % 1027,3 hPa 0,0 l/m 6,1 km/h (2 Bft) NW 319 0 min 0,0 UV-I 0 W/m -0,7 C 11,0 km/h (2 Bft)
27.01.2023 22:50 1,1 C 1,4 C 88 % 1027,4 hPa 0,0 l/m 5,8 km/h (2 Bft) N-NW 328 0 min 0,0 UV-I 0 W/m -0,7 C 9,0 km/h (2 Bft)
27.01.2023 22:49 1,1 C 1,4 C 88 % 1027,5 hPa 0,0 l/m 2,9 km/h (1 Bft) N 356 0 min 0,0 UV-I 0 W/m -0,7 C 15,0 km/h (3 Bft)
27.01.2023 22:48 1,1 C 1,4 C 88 % 1027,5 hPa 0,0 l/m 2,5 km/h (1 Bft) N 4 0 min 0,0 UV-I 0 W/m -0,7 C 15,0 km/h (3 Bft)
27.01.2023 22:47 1,1 C 1,4 C 88 % 1027,5 hPa 0,0 l/m 5,4 km/h (1 Bft) N-NW 339 0 min 0,0 UV-I 0 W/m -0,7 C 15,0 km/h (3 Bft)
27.01.2023 22:46 1,1 C 1,4 C 88 % 1027,2 hPa 0,0 l/m 3,6 km/h (1 Bft) N-NW 329 0 min 0,0 UV-I 0 W/m -0,7 C 12,0 km/h (2 Bft)
27.01.2023 22:45 1,1 C 1,4 C 88 % 1027,4 hPa 0,0 l/m 4,3 km/h (1 Bft) N-NW 330 0 min 0,0 UV-I 0 W/m -0,7 C 15,0 km/h (3 Bft)
27.01.2023 22:44 1,1 C 1,5 C 88 % 1027,3 hPa 0,0 l/m 9,6 km/h (2 Bft) N-NW 334 0 min 0,0 UV-I 0 W/m -0,7 C 15,0 km/h (3 Bft)
27.01.2023 22:43 1,1 C 1,5 C 88 % 1027,6 hPa 0,0 l/m 6,0 km/h (2 Bft) N-NW 346 0 min 0,0 UV-I 0 W/m -0,7 C 13,0 km/h (3 Bft)
27.01.2023 22:42 1,1 C 1,5 C 88 % 1027,6 hPa 0,0 l/m 6,4 km/h (2 Bft) NW 310 0 min 0,0 UV-I 0 W/m -0,7 C 14,0 km/h (3 Bft)
27.01.2023 22:41 1,1 C 1,5 C 88 % 1027,4 hPa 0,0 l/m 4,2 km/h (1 Bft) N-NW 332 0 min 0,0 UV-I 0 W/m -0,7 C 14,0 km/h (3 Bft)
27.01.2023 22:40 1,1 C 1,6 C 88 % 1027,2 hPa 0,0 l/m 7,3 km/h (2 Bft) N 356 0 min 0,0 UV-I 0 W/m -0,7 C 14,0 km/h (3 Bft)
27.01.2023 22:39 1,1 C 1,6 C 88 % 1027,2 hPa 0,0 l/m 3,9 km/h (1 Bft) N 351 0 min 0,0 UV-I 0 W/m -0,7 C 12,0 km/h (2 Bft)
27.01.2023 22:38 1,1 C 1,5 C 88 % 1027,5 hPa 0,0 l/m 8,0 km/h (2 Bft) W 276 0 min 0,0 UV-I 0 W/m -0,7 C 16,0 km/h (3 Bft)
27.01.2023 22:37 1,2 C 1,5 C 88 % 1027,4 hPa 0,0 l/m 7,1 km/h (2 Bft) W-NW 288 0 min 0,0 UV-I 0 W/m -0,6 C 16,0 km/h (3 Bft)
27.01.2023 22:36 1,2 C 1,5 C 88 % 1027,4 hPa 0,0 l/m 4,0 km/h (1 Bft) O-NO 77 0 min 0,0 UV-I 0 W/m -0,6 C 12,0 km/h (2 Bft)
27.01.2023 22:35 1,2 C 1,5 C 88 % 1027,4 hPa 0,0 l/m 2,6 km/h (1 Bft) W-SW 255 0 min 0,0 UV-I 0 W/m -0,6 C 9,0 km/h (2 Bft)
27.01.2023 22:34 1,2 C 1,5 C 88 % 1027,2 hPa 0,0 l/m 7,1 km/h (2 Bft) N 4 0 min 0,0 UV-I 0 W/m -0,6 C 11,0 km/h (2 Bft)
27.01.2023 22:33 1,2 C 1,5 C 88 % 1027,5 hPa 0,0 l/m 3,3 km/h (1 Bft) N-NW 344 0 min 0,0 UV-I 0 W/m -0,6 C 17,0 km/h (3 Bft)
27.01.2023 22:32 1,2 C 1,5 C 88 % 1027,3 hPa 0,0 l/m 4,7 km/h (1 Bft) N 2 0 min 0,0 UV-I 0 W/m -0,6 C 21,0 km/h (4 Bft)
27.01.2023 22:31 1,2 C 1,5 C 88 % 1027,3 hPa 0,0 l/m 5,2 km/h (1 Bft) N 1 0 min 0,0 UV-I 0 W/m -0,6 C 21,0 km/h (4 Bft)
27.01.2023 22:30 1,1 C 1,5 C 88 % 1027,6 hPa 0,0 l/m 10,3 km/h (2 Bft) N-NW 333 0 min 0,0 UV-I 0 W/m -0,7 C 21,0 km/h (4 Bft)
27.01.2023 22:29 1,2 C 1,5 C 88 % 1027,3 hPa 0,0 l/m 2,0 km/h (1 Bft) N 352 0 min 0,0 UV-I 0 W/m -0,6 C 21,0 km/h (4 Bft)
27.01.2023 22:28 1,2 C 1,5 C 88 % 1027,4 hPa 0,0 l/m 7,7 km/h (2 Bft) N-NW 329 0 min 0,0 UV-I 0 W/m -0,6 C 17,0 km/h (3 Bft)
27.01.2023 22:27 1,2 C 1,5 C 88 % 1027,3 hPa 0,0 l/m 6,9 km/h (2 Bft) N-NW 348 0 min 0,0 UV-I 0 W/m -0,6 C 17,0 km/h (3 Bft)
27.01.2023 22:26 1,2 C 1,5 C 88 % 1027,2 hPa 0,0 l/m 7,2 km/h (2 Bft) N 7 0 min 0,0 UV-I 0 W/m -0,6 C 16,0 km/h (3 Bft)
27.01.2023 22:25 1,2 C 1,5 C 88 % 1027,2 hPa 0,0 l/m 3,8 km/h (1 Bft) N-NO 13 0 min 0,0 UV-I 0 W/m -0,6 C 16,0 km/h (3 Bft)
27.01.2023 22:24 1,2 C 1,5 C 88 % 1027,3 hPa 0,0 l/m 5,5 km/h (1 Bft) N-NW 344 0 min 0,0 UV-I 0 W/m -0,6 C 16,0 km/h (3 Bft)
27.01.2023 22:23 1,2 C 1,5 C 88 % 1027,3 hPa 0,0 l/m 4,9 km/h (1 Bft) N 352 0 min 0,0 UV-I 0 W/m -0,6 C 16,0 km/h (3 Bft)
27.01.2023 22:22 1,2 C 1,6 C 88 % 1027,2 hPa 0,0 l/m 11,5 km/h (2 Bft) N 351 0 min 0,0 UV-I 0 W/m -0,6 C 14,0 km/h (3 Bft)
27.01.2023 22:21 1,2 C 1,5 C 88 % 1027,2 hPa 0,0 l/m 6,3 km/h (2 Bft) W-NW 303 0 min 0,0 UV-I 0 W/m -0,6 C 14,0 km/h (3 Bft)
27.01.2023 22:20 1,2 C 1,5 C 88 % 1027,3 hPa 0,0 l/m 7,0 km/h (2 Bft) N-NW 338 0 min 0,0 UV-I 0 W/m -0,6 C 14,0 km/h (3 Bft)
27.01.2023 22:19 1,2 C 1,5 C 88 % 1027,2 hPa 0,0 l/m 4,5 km/h (1 Bft) N 353 0 min 0,0 UV-I 0 W/m -0,6 C 14,0 km/h (3 Bft)
27.01.2023 22:18 1,2 C 1,5 C 88 % 1027,0 hPa 0,0 l/m 7,1 km/h (2 Bft) N 9 0 min 0,0 UV-I 0 W/m -0,6 C 19,0 km/h (3 Bft)
27.01.2023 22:17 1,2 C 1,6 C 88 % 1027,0 hPa 0,0 l/m 9,0 km/h (2 Bft) N 358 0 min 0,0 UV-I 0 W/m -0,6 C 19,0 km/h (3 Bft)
27.01.2023 22:16 1,2 C 1,6 C 88 % 1027,0 hPa 0,0 l/m 7,9 km/h (2 Bft) N-NW 336 0 min 0,0 UV-I 0 W/m -0,6 C 19,0 km/h (3 Bft)
27.01.2023 22:15 1,2 C 1,5 C 88 % 1027,0 hPa 0,0 l/m 13,4 km/h (3 Bft) N-NW 336 0 min 0,0 UV-I 0 W/m -0,6 C 19,0 km/h (3 Bft)
27.01.2023 22:14 1,2 C 1,6 C 88 % 1027,1 hPa 0,0 l/m 3,8 km/h (1 Bft) N 355 0 min 0,0 UV-I 0 W/m -0,6 C 13,0 km/h (3 Bft)
27.01.2023 22:13 1,2 C 1,6 C 88 % 1027,2 hPa 0,0 l/m 5,2 km/h (1 Bft) N-NW 342 0 min 0,0 UV-I 0 W/m -0,6 C 13,0 km/h (3 Bft)
27.01.2023 22:12 1,2 C 1,6 C 88 % 1027,1 hPa 0,0 l/m 2,7 km/h (1 Bft) W-NW 291 0 min 0,0 UV-I 0 W/m -0,6 C 21,0 km/h (4 Bft)
27.01.2023 22:11 1,2 C 1,6 C 88 % 1026,8 hPa 0,0 l/m 6,3 km/h (2 Bft) N 358 0 min 0,0 UV-I 0 W/m -0,6 C 21,0 km/h (4 Bft)
27.01.2023 22:10 1,2 C 1,6 C 88 % 1027,1 hPa 0,0 l/m 6,9 km/h (2 Bft) N 3 0 min 0,0 UV-I 0 W/m -0,6 C 18,0 km/h (3 Bft)
27.01.2023 22:09 1,2 C 1,6 C 88 % 1027,1 hPa 0,0 l/m 9,3 km/h (2 Bft) N-NW 336 0 min 0,0 UV-I 0 W/m -0,6 C 21,0 km/h (4 Bft)
27.01.2023 22:08 1,2 C 1,6 C 88 % 1027,1 hPa 0,0 l/m 10,8 km/h (2 Bft) N-NW 346 0 min 0,0 UV-I 0 W/m -0,6 C 21,0 km/h (4 Bft)
27.01.2023 22:07 1,2 C 1,6 C 88 % 1027,1 hPa 0,0 l/m 9,0 km/h (2 Bft) N-NW 343 0 min 0,0 UV-I 0 W/m -0,6 C 21,0 km/h (4 Bft)
27.01.2023 22:06 1,2 C 1,6 C 88 % 1027,1 hPa 0,0 l/m 6,0 km/h (2 Bft) N-NW 337 0 min 0,0 UV-I 0 W/m -0,6 C 19,0 km/h (3 Bft)
27.01.2023 22:05 1,2 C 1,6 C 88 % 1027,0 hPa 0,0 l/m 6,5 km/h (2 Bft) N-NW 339 0 min 0,0 UV-I 0 W/m -0,6 C 19,0 km/h (3 Bft)
27.01.2023 22:04 1,2 C 1,6 C 88 % 1027,0 hPa 0,0 l/m 7,6 km/h (2 Bft) W-NW 300 0 min 0,0 UV-I 0 W/m -0,6 C 19,0 km/h (3 Bft)
27.01.2023 22:03 1,2 C 1,6 C 88 % 1027,1 hPa 0,0 l/m 5,6 km/h (1 Bft) N-NW 335 0 min 0,0 UV-I 0 W/m -0,6 C 13,0 km/h (3 Bft)
27.01.2023 22:02 1,2 C 1,6 C 88 % 1026,9 hPa 0,0 l/m 6,0 km/h (2 Bft) NW 317 0 min 0,0 UV-I 0 W/m -0,6 C 15,0 km/h (3 Bft)
27.01.2023 22:01 1,3 C 1,6 C 88 % 1027,1 hPa 0,0 l/m 5,1 km/h (1 Bft) N 358 0 min 0,0 UV-I 0 W/m -0,5 C 15,0 km/h (3 Bft)
27.01.2023 22:00 1,2 C 1,6 C 88 % 1027,2 hPa 0,0 l/m 6,8 km/h (2 Bft) N-NW 342 0 min 0,0 UV-I 0 W/m -0,6 C 15,0 km/h (3 Bft)
27.01.2023 21:59 1,2 C 1,6 C 88 % 1027,2 hPa 0,0 l/m 3,9 km/h (1 Bft) N-NW 348 0 min 0,0 UV-I 0 W/m -0,6 C 19,0 km/h (3 Bft)
27.01.2023 21:58 1,3 C 1,6 C 88 % 1027,0 hPa 0,0 l/m 4,7 km/h (1 Bft) N-NO 20 0 min 0,0 UV-I 0 W/m -0,5 C 19,0 km/h (3 Bft)
27.01.2023 21:57 1,2 C 1,5 C 88 % 1026,9 hPa 0,0 l/m 12,1 km/h (2 Bft) N 355 0 min 0,0 UV-I 0 W/m -0,6 C 19,0 km/h (3 Bft)
27.01.2023 21:56 1,2 C 1,6 C 88 % 1027,2 hPa 0,0 l/m 8,4 km/h (2 Bft) NW 304 0 min 0,0 UV-I 0 W/m -0,6 C 13,0 km/h (3 Bft)
27.01.2023 21:55 1,2 C 1,6 C 88 % 1026,9 hPa 0,0 l/m 3,1 km/h (1 Bft) NW 307 0 min 0,0 UV-I 0 W/m -0,6 C 17,0 km/h (3 Bft)
27.01.2023 21:54 1,2 C 1,6 C 88 % 1027,0 hPa 0,0 l/m 8,3 km/h (2 Bft) N 349 0 min 0,0 UV-I 0 W/m -0,6 C 17,0 km/h (3 Bft)
27.01.2023 21:53 1,2 C 1,6 C 88 % 1026,8 hPa 0,0 l/m 12,2 km/h (2 Bft) N-NW 338 0 min 0,0 UV-I 0 W/m -0,6 C 17,0 km/h (3 Bft)
27.01.2023 21:52 1,2 C 1,6 C 88 % 1026,8 hPa 0,0 l/m 5,6 km/h (1 Bft) N-NW 343 0 min 0,0 UV-I 0 W/m -0,6 C 17,0 km/h (3 Bft)
27.01.2023 21:51 1,2 C 1,6 C 88 % 1027,0 hPa 0,0 l/m 9,9 km/h (2 Bft) N 351 0 min 0,0 UV-I 0 W/m -0,6 C 17,0 km/h (3 Bft)
27.01.2023 21:50 1,2 C 1,6 C 88 % 1026,7 hPa 0,0 l/m 6,7 km/h (2 Bft) N-NW 338 0 min 0,0 UV-I 0 W/m -0,6 C 19,0 km/h (3 Bft)
27.01.2023 21:49 1,2 C 1,6 C 88 % 1026,8 hPa 0,0 l/m 6,2 km/h (2 Bft) N 358 0 min 0,0 UV-I 0 W/m -0,6 C 27,0 km/h (4 Bft)
27.01.2023 21:48 1,2 C 1,6 C 88 % 1026,8 hPa 0,0 l/m 13,0 km/h (3 Bft) N-NW 332 0 min 0,0 UV-I 0 W/m -0,6 C 27,0 km/h (4 Bft)
27.01.2023 21:47 1,2 C 1,6 C 88 % 1026,9 hPa 0,0 l/m 9,9 km/h (2 Bft) W-NW 293 0 min 0,0 UV-I 0 W/m -0,6 C 23,0 km/h (4 Bft)
27.01.2023 21:46 1,3 C 1,6 C 88 % 1026,9 hPa 0,0 l/m 5,6 km/h (1 Bft) N 356 0 min 0,0 UV-I 0 W/m -0,5 C 24,0 km/h (4 Bft)
27.01.2023 21:45 1,3 C 1,6 C 88 % 1026,8 hPa 0,0 l/m 8,6 km/h (2 Bft) N-NW 344 0 min 0,0 UV-I 0 W/m -0,5 C 24,0 km/h (4 Bft)
27.01.2023 21:44 1,2 C 1,5 C 88 % 1026,9 hPa 0,0 l/m 11,9 km/h (2 Bft) N-NW 336 0 min 0,0 UV-I 0 W/m -0,6 C 24,0 km/h (4 Bft)
27.01.2023 21:43 1,2 C 1,5 C 88 % 1026,9 hPa 0,0 l/m 9,6 km/h (2 Bft) N-NW 344 0 min 0,0 UV-I 0 W/m -0,6 C 24,0 km/h (4 Bft)
27.01.2023 21:42 1,2 C 1,6 C 88 % 1026,8 hPa 0,0 l/m 4,3 km/h (1 Bft) N 352 0 min 0,0 UV-I 0 W/m -0,6 C 13,0 km/h (3 Bft)
27.01.2023 21:41 1,2 C 1,5 C 88 % 1026,9 hPa 0,0 l/m 9,7 km/h (2 Bft) N 351 0 min 0,0 UV-I 0 W/m -0,6 C 13,0 km/h (3 Bft)
27.01.2023 21:40 1,3 C 1,6 C 89 % 1026,6 hPa 0,0 l/m 5,2 km/h (1 Bft) N-NO 15 0 min 0,0 UV-I 0 W/m -0,3 C 12,0 km/h (2 Bft)
27.01.2023 21:39 1,3 C 1,5 C 89 % 1026,8 hPa 0,0 l/m 2,0 km/h (1 Bft) N-NW 331 0 min 0,0 UV-I 0 W/m -0,3 C 9,0 km/h (2 Bft)
27.01.2023 21:38 1,2 C 1,5 C 89 % 1026,9 hPa 0,0 l/m 2,0 km/h (1 Bft) N 5 0 min 0,0 UV-I 0 W/m -0,4 C 9,0 km/h (2 Bft)
27.01.2023 21:37 1,3 C 1,5 C 88 % 1026,7 hPa 0,0 l/m 3,3 km/h (1 Bft) N 5 0 min 0,0 UV-I 0 W/m -0,5 C 9,0 km/h (2 Bft)
27.01.2023 21:36 1,3 C 1,6 C 88 % 1026,7 hPa 0,0 l/m 3,4 km/h (1 Bft) N-NO 21 0 min 0,0 UV-I 0 W/m -0,5 C 17,0 km/h (3 Bft)
27.01.2023 21:35 1,3 C 1,6 C 88 % 1026,7 hPa 0,0 l/m 3,8 km/h (1 Bft) O-NO 65 0 min 0,0 UV-I 0 W/m -0,5 C 17,0 km/h (3 Bft)
27.01.2023 21:34 1,3 C 1,6 C 88 % 1026,9 hPa 0,0 l/m 7,1 km/h (2 Bft) N-NW 340 0 min 0,0 UV-I 0 W/m -0,5 C 17,0 km/h (3 Bft)
27.01.2023 21:33 1,3 C 1,5 C 89 % 1026,7 hPa 0,0 l/m 7,6 km/h (2 Bft) N 351 0 min 0,0 UV-I 0 W/m -0,3 C 17,0 km/h (3 Bft)
27.01.2023 21:32 1,3 C 1,5 C 89 % 1026,8 hPa 0,0 l/m 9,9 km/h (2 Bft) N 7 0 min 0,0 UV-I 0 W/m -0,3 C 14,0 km/h (3 Bft)
27.01.2023 21:31 1,3 C 1,5 C 89 % 1026,5 hPa 0,0 l/m 5,8 km/h (2 Bft) N-NW 337 0 min 0,0 UV-I 0 W/m -0,3 C 14,0 km/h (3 Bft)
27.01.2023 21:30 1,3 C 1,5 C 89 % 1026,8 hPa 0,0 l/m 2,0 km/h (1 Bft) NO 50 0 min 0,0 UV-I 0 W/m -0,3 C 11,0 km/h (2 Bft)
27.01.2023 21:29 1,3 C 1,5 C 89 % 1026,7 hPa 0,0 l/m 3,1 km/h (1 Bft) N 7 0 min 0,0 UV-I 0 W/m -0,3 C 11,0 km/h (2 Bft)
27.01.2023 21:28 1,3 C 1,5 C 89 % 1026,7 hPa 0,0 l/m 4,7 km/h (1 Bft) N 355 0 min 0,0 UV-I 0 W/m -0,3 C 11,0 km/h (2 Bft)
27.01.2023 21:27 1,3 C 1,5 C 89 % 1026,7 hPa 0,0 l/m 3,5 km/h (1 Bft) N-NO 12 0 min 0,0 UV-I 0 W/m -0,3 C 11,0 km/h (2 Bft)
27.01.2023 21:26 1,3 C 1,4 C 89 % 1026,6 hPa 0,0 l/m 2,5 km/h (1 Bft) N-NO 27 0 min 0,0 UV-I 0 W/m -0,3 C 10,0 km/h (2 Bft)
27.01.2023 21:25 1,3 C 1,5 C 89 % 1026,7 hPa 0,0 l/m 3,1 km/h (1 Bft) NO 42 0 min 0,0 UV-I 0 W/m -0,3 C 14,0 km/h (3 Bft)
27.01.2023 21:24 1,3 C 1,5 C 89 % 1026,6 hPa 0,0 l/m 2,5 km/h (1 Bft) N-NO 29 0 min 0,0 UV-I 0 W/m -0,3 C 14,0 km/h (3 Bft)
27.01.2023 21:23 1,3 C 1,5 C 89 % 1026,8 hPa 0,0 l/m 6,2 km/h (2 Bft) N-NO 29 0 min 0,0 UV-I 0 W/m -0,3 C 14,0 km/h (3 Bft)
27.01.2023 21:22 1,3 C 1,4 C 89 % 1026,8 hPa 0,0 l/m 7,2 km/h (2 Bft) N-NW 341 0 min 0,0 UV-I 0 W/m -0,3 C 19,0 km/h (3 Bft)
27.01.2023 21:21 1,3 C 1,5 C 89 % 1026,8 hPa 0,0 l/m 5,1 km/h (1 Bft) NO 43 0 min 0,0 UV-I 0 W/m -0,3 C 19,0 km/h (3 Bft)
27.01.2023 21:20 1,3 C 1,6 C 89 % 1026,7 hPa 0,0 l/m 8,1 km/h (2 Bft) N 1 0 min 0,0 UV-I 0 W/m -0,3 C 19,0 km/h (3 Bft)
27.01.2023 21:19 1,3 C 1,6 C 89 % 1026,7 hPa 0,0 l/m 4,0 km/h (1 Bft) N-NO 24 0 min 0,0 UV-I 0 W/m -0,3 C 12,0 km/h (2 Bft)
27.01.2023 21:18 1,3 C 1,6 C 89 % 1026,9 hPa 0,0 l/m 5,4 km/h (1 Bft) N-NW 337 0 min 0,0 UV-I 0 W/m -0,3 C 16,0 km/h (3 Bft)
27.01.2023 21:17 1,3 C 1,7 C 89 % 1026,6 hPa 0,0 l/m 6,5 km/h (2 Bft) N 350 0 min 0,0 UV-I 0 W/m -0,3 C 16,0 km/h (3 Bft)
27.01.2023 21:16 1,3 C 1,7 C 89 % 1026,6 hPa 0,0 l/m 7,0 km/h (2 Bft) N-NW 348 0 min 0,0 UV-I 0 W/m -0,3 C 16,0 km/h (3 Bft)
27.01.2023 21:15 1,3 C 1,7 C 89 % 1026,8 hPa 0,0 l/m 6,8 km/h (2 Bft) N-NW 340 0 min 0,0 UV-I 0 W/m -0,3 C 17,0 km/h (3 Bft)
27.01.2023 21:14 1,3 C 1,7 C 89 % 1026,8 hPa 0,0 l/m 6,7 km/h (2 Bft) N-NW 335 0 min 0,0 UV-I 0 W/m -0,3 C 17,0 km/h (3 Bft)
27.01.2023 21:13 1,3 C 1,7 C 89 % 1026,7 hPa 0,0 l/m 6,1 km/h (2 Bft) N 359 0 min 0,0 UV-I 0 W/m -0,3 C 14,0 km/h (3 Bft)
27.01.2023 21:12 1,3 C 1,7 C 89 % 1026,7 hPa 0,0 l/m 4,9 km/h (1 Bft) N 9 0 min 0,0 UV-I 0 W/m -0,3 C 14,0 km/h (3 Bft)
27.01.2023 21:11 1,3 C 1,7 C 89 % 1026,7 hPa 0,0 l/m 4,7 km/h (1 Bft) N 7 0 min 0,0 UV-I 0 W/m -0,3 C 14,0 km/h (3 Bft)
27.01.2023 21:10 1,3 C 1,6 C 89 % 1026,7 hPa 0,0 l/m 7,2 km/h (2 Bft) N-NW 335 0 min 0,0 UV-I 0 W/m -0,3 C 14,0 km/h (3 Bft)
27.01.2023 21:09 1,3 C 1,7 C 89 % 1026,9 hPa 0,0 l/m 4,2 km/h (1 Bft) N 5 0 min 0,0 UV-I 0 W/m -0,3 C 16,0 km/h (3 Bft)
27.01.2023 21:08 1,4 C 1,7 C 89 % 1026,8 hPa 0,0 l/m 3,2 km/h (1 Bft) O-SO 108 0 min 0,0 UV-I 0 W/m -0,2 C 16,0 km/h (3 Bft)
27.01.2023 21:07 1,3 C 1,7 C 89 % 1026,8 hPa 0,0 l/m 3,5 km/h (1 Bft) N 350 0 min 0,0 UV-I 0 W/m -0,3 C 16,0 km/h (3 Bft)
27.01.2023 21:06 1,3 C 1,7 C 89 % 1026,7 hPa 0,0 l/m 12,6 km/h (3 Bft) N 360 0 min 0,0 UV-I 0 W/m -0,3 C 14,0 km/h (3 Bft)
27.01.2023 21:05 1,3 C 1,7 C 89 % 1026,8 hPa 0,0 l/m 5,2 km/h (1 Bft) N-NO 14 0 min 0,0 UV-I 0 W/m -0,3 C 11,0 km/h (2 Bft)
27.01.2023 21:04 1,3 C 1,7 C 89 % 1026,8 hPa 0,0 l/m 6,4 km/h (2 Bft) N 353 0 min 0,0 UV-I 0 W/m -0,3 C 11,0 km/h (2 Bft)
27.01.2023 21:03 1,3 C 1,7 C 89 % 1026,8 hPa 0,0 l/m 4,2 km/h (1 Bft) N 351 0 min 0,0 UV-I 0 W/m -0,3 C 14,0 km/h (3 Bft)
27.01.2023 21:02 1,3 C 1,7 C 88 % 1026,8 hPa 0,0 l/m 2,5 km/h (1 Bft) N 10 0 min 0,0 UV-I 0 W/m -0,5 C 26,0 km/h (4 Bft)
27.01.2023 21:01 1,4 C 1,7 C 88 % 1026,7 hPa 0,0 l/m 7,4 km/h (2 Bft) N 6 0 min 0,0 UV-I 0 W/m -0,4 C 26,0 km/h (4 Bft)
27.01.2023 21:00 1,4 C 1,6 C 88 % 1026,7 hPa 0,0 l/m 4,3 km/h (1 Bft) N-NW 346 0 min 0,0 UV-I 0 W/m -0,4 C 15,0 km/h (3 Bft)
27.01.2023 20:59 1,3 C 1,7 C 89 % 1026,6 hPa 0,0 l/m 5,6 km/h (1 Bft) N-NW 342 0 min 0,0 UV-I 0 W/m -0,3 C 15,0 km/h (3 Bft)
27.01.2023 20:58 1,3 C 1,8 C 89 % 1026,8 hPa 0,0 l/m 2,5 km/h (1 Bft) N-NO 14 0 min 0,0 UV-I 0 W/m -0,3 C 9,0 km/h (2 Bft)
27.01.2023 20:57 1,3 C 1,7 C 89 % 1026,7 hPa 0,0 l/m 3,5 km/h (1 Bft) N-NO 33 0 min 0,0 UV-I 0 W/m -0,3 C 9,0 km/h (2 Bft)
27.01.2023 20:56 1,4 C 1,7 C 89 % 1026,6 hPa 0,0 l/m 2,5 km/h (1 Bft) NO 38 0 min 0,0 UV-I 0 W/m -0,2 C 9,0 km/h (2 Bft)
27.01.2023 20:55 1,4 C 1,7 C 89 % 1026,6 hPa 0,0 l/m 2,5 km/h (1 Bft) N 4 0 min 0,0 UV-I 0 W/m -0,2 C 9,0 km/h (2 Bft)
27.01.2023 20:54 1,3 C 1,7 C 89 % 1026,8 hPa 0,0 l/m 3,1 km/h (1 Bft) N-NW 337 0 min 0,0 UV-I 0 W/m -0,3 C 12,0 km/h (2 Bft)
27.01.2023 20:53 1,3 C 1,8 C 88 % 1026,9 hPa 0,0 l/m 6,8 km/h (2 Bft) N-NW 333 0 min 0,0 UV-I 0 W/m -0,5 C 12,0 km/h (2 Bft)
27.01.2023 20:52 1,4 C 1,7 C 88 % 1026,8 hPa 0,0 l/m 5,2 km/h (1 Bft) N-NW 342 0 min 0,0 UV-I 0 W/m -0,4 C 12,0 km/h (2 Bft)
27.01.2023 20:51 1,4 C 1,8 C 88 % 1026,6 hPa 0,0 l/m 4,7 km/h (1 Bft) NW 320 0 min 0,0 UV-I 0 W/m -0,4 C 12,0 km/h (2 Bft)
27.01.2023 20:50 1,4 C 1,7 C 88 % 1026,7 hPa 0,0 l/m 4,9 km/h (1 Bft) N 359 0 min 0,0 UV-I 0 W/m -0,4 C 17,0 km/h (3 Bft)
27.01.2023 20:49 1,3 C 1,7 C 88 % 1026,8 hPa 0,0 l/m 4,3 km/h (1 Bft) N 10 0 min 0,0 UV-I 0 W/m -0,5 C 17,0 km/h (3 Bft)
27.01.2023 20:48 1,3 C 1,7 C 88 % 1026,7 hPa 0,0 l/m 12,4 km/h (3 Bft) N-NW 344 0 min 0,0 UV-I 0 W/m -0,5 C 17,0 km/h (3 Bft)
27.01.2023 20:47 1,3 C 1,7 C 89 % 1026,7 hPa 0,0 l/m 8,0 km/h (2 Bft) N-NW 344 0 min 0,0 UV-I 0 W/m -0,3 C 12,0 km/h (2 Bft)
27.01.2023 20:46 1,4 C 1,7 C 88 % 1026,6 hPa 0,0 l/m 3,6 km/h (1 Bft) NO 37 0 min 0,0 UV-I 0 W/m -0,4 C 11,0 km/h (2 Bft)
27.01.2023 20:45 1,4 C 1,6 C 88 % 1026,7 hPa 0,0 l/m 4,1 km/h (1 Bft) N-NO 23 0 min 0,0 UV-I 0 W/m -0,4 C 15,0 km/h (3 Bft)
27.01.2023 20:44 1,4 C 1,7 C 88 % 1026,9 hPa 0,0 l/m 7,3 km/h (2 Bft) N 349 0 min 0,0 UV-I 0 W/m -0,4 C 15,0 km/h (3 Bft)
27.01.2023 20:43 1,3 C 1,7 C 88 % 1026,6 hPa 0,0 l/m 6,9 km/h (2 Bft) NW 315 0 min 0,0 UV-I 0 W/m -0,5 C 12,0 km/h (2 Bft)
27.01.2023 20:42 1,4 C 1,6 C 88 % 1026,8 hPa 0,0 l/m 4,8 km/h (1 Bft) N-NW 340 0 min 0,0 UV-I 0 W/m -0,4 C 10,0 km/h (2 Bft)
27.01.2023 20:41 1,4 C 1,6 C 88 % 1026,7 hPa 0,0 l/m 5,6 km/h (1 Bft) N-NW 346 0 min 0,0 UV-I 0 W/m -0,4 C 10,0 km/h (2 Bft)
27.01.2023 20:40 1,4 C 1,6 C 88 % 1026,7 hPa 0,0 l/m 7,6 km/h (2 Bft) N-NW 347 0 min 0,0 UV-I 0 W/m -0,4 C 12,0 km/h (2 Bft)
27.01.2023 20:39 1,4 C 1,6 C 88 % 1026,6 hPa 0,0 l/m 2,3 km/h (1 Bft) N-NO 33 0 min 0,0 UV-I 0 W/m -0,4 C 16,0 km/h (3 Bft)
27.01.2023 20:38 1,4 C 1,7 C 88 % 1026,6 hPa 0,0 l/m 4,7 km/h (1 Bft) NO 36 0 min 0,0 UV-I 0 W/m -0,4 C 18,0 km/h (3 Bft)
27.01.2023 20:37 1,4 C 1,7 C 88 % 1026,5 hPa 0,0 l/m 7,6 km/h (2 Bft) N-NW 346 0 min 0,0 UV-I 0 W/m -0,4 C 18,0 km/h (3 Bft)
27.01.2023 20:36 1,4 C 1,7 C 88 % 1026,6 hPa 0,0 l/m 11,7 km/h (2 Bft) N-NW 335 0 min 0,0 UV-I 0 W/m -0,4 C 18,0 km/h (3 Bft)
27.01.2023 20:35 1,4 C 1,7 C 88 % 1026,8 hPa 0,0 l/m 4,7 km/h (1 Bft) N-NW 347 0 min 0,0 UV-I 0 W/m -0,4 C 14,0 km/h (3 Bft)
27.01.2023 20:34 1,4 C 1,7 C 88 % 1026,8 hPa 0,0 l/m 6,3 km/h (2 Bft) N-NO 28 0 min 0,0 UV-I 0 W/m -0,4 C 23,0 km/h (4 Bft)
27.01.2023 20:33 1,4 C 1,7 C 88 % 1026,6 hPa 0,0 l/m 5,1 km/h (1 Bft) NO 47 0 min 0,0 UV-I 0 W/m -0,4 C 23,0 km/h (4 Bft)
27.01.2023 20:32 1,4 C 1,7 C 88 % 1026,6 hPa 0,0 l/m 10,5 km/h (2 Bft) O-NO 58 0 min 0,0 UV-I 0 W/m -0,4 C 23,0 km/h (4 Bft)
27.01.2023 20:31 1,4 C 1,7 C 88 % 1026,7 hPa 0,0 l/m 9,3 km/h (2 Bft) N-NO 14 0 min 0,0 UV-I 0 W/m -0,4 C 19,0 km/h (3 Bft)
27.01.2023 20:30 1,4 C 1,7 C 88 % 1026,6 hPa 0,0 l/m 6,3 km/h (2 Bft) N 353 0 min 0,0 UV-I 0 W/m -0,4 C 15,0 km/h (3 Bft)
27.01.2023 20:29 1,4 C 1,7 C 88 % 1026,6 hPa 0,0 l/m 4,3 km/h (1 Bft) N-NW 336 0 min 0,0 UV-I 0 W/m -0,4 C 15,0 km/h (3 Bft)
27.01.2023 20:28 1,4 C 1,6 C 89 % 1026,4 hPa 0,0 l/m 3,1 km/h (1 Bft) NO 45 0 min 0,0 UV-I 0 W/m -0,2 C 12,0 km/h (2 Bft)
27.01.2023 20:27 1,4 C 1,6 C 88 % 1026,5 hPa 0,0 l/m 5,2 km/h (1 Bft) N 359 0 min 0,0 UV-I 0 W/m -0,4 C 12,0 km/h (2 Bft)
27.01.2023 20:26 1,4 C 1,7 C 88 % 1026,5 hPa 0,0 l/m 6,4 km/h (2 Bft) N 353 0 min 0,0 UV-I 0 W/m -0,4 C 12,0 km/h (2 Bft)
27.01.2023 20:25 1,4 C 1,7 C 88 % 1026,6 hPa 0,0 l/m 2,3 km/h (1 Bft) N-NO 16 0 min 0,0 UV-I 0 W/m -0,4 C 12,0 km/h (2 Bft)
27.01.2023 20:24 1,4 C 1,7 C 88 % 1026,7 hPa 0,0 l/m 6,5 km/h (2 Bft) N 3 0 min 0,0 UV-I 0 W/m -0,4 C 12,0 km/h (2 Bft)
27.01.2023 20:23 1,4 C 1,7 C 88 % 1026,7 hPa 0,0 l/m 5,2 km/h (1 Bft) N-NW 330 0 min 0,0 UV-I 0 W/m -0,4 C 14,0 km/h (3 Bft)
27.01.2023 20:22 1,4 C 1,7 C 88 % 1026,6 hPa 0,0 l/m 5,2 km/h (1 Bft) N-NO 18 0 min 0,0 UV-I 0 W/m -0,4 C 16,0 km/h (3 Bft)
27.01.2023 20:21 1,4 C 1,7 C 88 % 1026,7 hPa 0,0 l/m 9,6 km/h (2 Bft) N 356 0 min 0,0 UV-I 0 W/m -0,4 C 16,0 km/h (3 Bft)
27.01.2023 20:20 1,4 C 1,7 C 88 % 1026,6 hPa 0,0 l/m 5,4 km/h (1 Bft) N-NW 340 0 min 0,0 UV-I 0 W/m -0,4 C 12,0 km/h (2 Bft)
27.01.2023 20:19 1,4 C 1,7 C 89 % 1026,6 hPa 0,0 l/m 6,7 km/h (2 Bft) N-NO 31 0 min 0,0 UV-I 0 W/m -0,2 C 12,0 km/h (2 Bft)
27.01.2023 20:18 1,4 C 1,7 C 88 % 1026,6 hPa 0,0 l/m 4,3 km/h (1 Bft) N-NO 25 0 min 0,0 UV-I 0 W/m -0,4 C 11,0 km/h (2 Bft)
27.01.2023 20:17 1,4 C 1,7 C 88 % 1026,6 hPa 0,0 l/m 5,2 km/h (1 Bft) N-NW 342 0 min 0,0 UV-I 0 W/m -0,4 C 15,0 km/h (3 Bft)
27.01.2023 20:16 1,4 C 1,7 C 88 % 1026,7 hPa 0,0 l/m 6,5 km/h (2 Bft) NW 326 0 min 0,0 UV-I 0 W/m -0,4 C 15,0 km/h (3 Bft)
27.01.2023 20:15 1,4 C 1,7 C 88 % 1026,7 hPa 0,0 l/m 8,1 km/h (2 Bft) N-NO 12 0 min 0,0 UV-I 0 W/m -0,4 C 15,0 km/h (3 Bft)
27.01.2023 20:14 1,5 C 1,7 C 88 % 1026,7 hPa 0,0 l/m 3,2 km/h (1 Bft) NO 38 0 min 0,0 UV-I 0 W/m -0,3 C 11,0 km/h (2 Bft)
27.01.2023 20:13 1,5 C 1,7 C 88 % 1026,7 hPa 0,0 l/m 7,0 km/h (2 Bft) N-NO 28 0 min 0,0 UV-I 0 W/m -0,3 C 14,0 km/h (3 Bft)
27.01.2023 20:12 1,4 C 1,7 C 88 % 1026,4 hPa 0,0 l/m 3,3 km/h (1 Bft) N 4 0 min 0,0 UV-I 0 W/m -0,4 C 14,0 km/h (3 Bft)
27.01.2023 20:11 1,5 C 1,7 C 88 % 1026,6 hPa 0,0 l/m 6,5 km/h (2 Bft) N-NW 344 0 min 0,0 UV-I 0 W/m -0,3 C 14,0 km/h (3 Bft)
27.01.2023 20:10 1,4 C 1,7 C 88 % 1026,7 hPa 0,0 l/m 4,8 km/h (1 Bft) N 353 0 min 0,0 UV-I 0 W/m -0,4 C 14,0 km/h (3 Bft)
27.01.2023 20:09 1,5 C 1,8 C 88 % 1026,7 hPa 0,0 l/m 5,6 km/h (1 Bft) N-NW 332 0 min 0,0 UV-I 0 W/m -0,3 C 14,0 km/h (3 Bft)
27.01.2023 20:08 1,5 C 1,7 C 88 % 1026,5 hPa 0,0 l/m 3,8 km/h (1 Bft) NO 41 0 min 0,0 UV-I 0 W/m -0,3 C 14,0 km/h (3 Bft)
27.01.2023 20:07 1,5 C 1,7 C 88 % 1026,5 hPa 0,0 l/m 4,7 km/h (1 Bft) N 349 0 min 0,0 UV-I 0 W/m -0,3 C 11,0 km/h (2 Bft)
27.01.2023 20:06 1,5 C 1,8 C 88 % 1026,5 hPa 0,0 l/m 4,3 km/h (1 Bft) N 8 0 min 0,0 UV-I 0 W/m -0,3 C 12,0 km/h (2 Bft)
27.01.2023 20:05 1,4 C 1,8 C 88 % 1026,8 hPa 0,0 l/m 5,2 km/h (1 Bft) N 5 0 min 0,0 UV-I 0 W/m -0,4 C 12,0 km/h (2 Bft)
27.01.2023 20:04 1,5 C 1,7 C 88 % 1026,6 hPa 0,0 l/m 4,8 km/h (1 Bft) N-NW 342 0 min 0,0 UV-I 0 W/m -0,3 C 14,0 km/h (3 Bft)
27.01.2023 20:03 1,5 C 1,7 C 88 % 1026,7 hPa 0,0 l/m 6,5 km/h (2 Bft) NW 320 0 min 0,0 UV-I 0 W/m -0,3 C 14,0 km/h (3 Bft)
27.01.2023 20:02 1,5 C 1,7 C 88 % 1026,4 hPa 0,0 l/m 4,5 km/h (1 Bft) N-NO 15 0 min 0,0 UV-I 0 W/m -0,3 C 14,0 km/h (3 Bft)
27.01.2023 20:01 1,5 C 1,8 C 88 % 1026,5 hPa 0,0 l/m 6,0 km/h (2 Bft) N 3 0 min 0,0 UV-I 0 W/m -0,3 C 16,0 km/h (3 Bft)
27.01.2023 20:00 1,5 C 1,7 C 88 % 1026,7 hPa 0,0 l/m 10,1 km/h (2 Bft) N 352 0 min 0,0 UV-I 0 W/m -0,3 C 16,0 km/h (3 Bft)
27.01.2023 19:59 1,5 C 1,7 C 88 % 1026,7 hPa 0,0 l/m 7,2 km/h (2 Bft) N 353 0 min 0,0 UV-I 0 W/m -0,3 C 16,0 km/h (3 Bft)
27.01.2023 19:58 1,5 C 1,8 C 88 % 1026,4 hPa 0,0 l/m 2,5 km/h (1 Bft) N-NW 346 0 min 0,0 UV-I 0 W/m -0,3 C 18,0 km/h (3 Bft)
27.01.2023 19:57 1,5 C 1,8 C 88 % 1026,6 hPa 0,0 l/m 12,4 km/h (3 Bft) N-NW 344 0 min 0,0 UV-I 0 W/m -0,3 C 18,0 km/h (3 Bft)
27.01.2023 19:56 1,5 C 1,7 C 89 % 1026,5 hPa 0,0 l/m 10,1 km/h (2 Bft) NW 320 0 min 0,0 UV-I 0 W/m -0,1 C 19,0 km/h (3 Bft)
27.01.2023 19:55 1,5 C 1,7 C 89 % 1026,6 hPa 0,0 l/m 8,0 km/h (2 Bft) N 7 0 min 0,0 UV-I 0 W/m -0,1 C 19,0 km/h (3 Bft)
27.01.2023 19:54 1,5 C 1,5 C 89 % 1026,6 hPa 0,0 l/m 8,1 km/h (2 Bft) N 351 0 min 0,0 UV-I 0 W/m -0,1 C 19,0 km/h (3 Bft)
27.01.2023 19:53 1,5 C 1,5 C 89 % 1026,5 hPa 0,0 l/m 3,6 km/h (1 Bft) N-NW 347 0 min 0,0 UV-I 0 W/m -0,1 C 14,0 km/h (3 Bft)
27.01.2023 19:52 1,5 C 1,6 C 89 % 1026,5 hPa 0,0 l/m 1,3 km/h (1 Bft) N-NO 18 0 min 0,0 UV-I 0 W/m -0,1 C 6,0 km/h (2 Bft)
27.01.2023 19:51 1,5 C 1,6 C 89 % 1026,5 hPa 0,0 l/m 3,3 km/h (1 Bft) NO 40 0 min 0,0 UV-I 0 W/m -0,1 C 6,0 km/h (2 Bft)
27.01.2023 19:50 1,5 C 1,7 C 89 % 1026,6 hPa 0,0 l/m 2,3 km/h (1 Bft) N-NO 20 0 min 0,0 UV-I 0 W/m -0,1 C 6,0 km/h (2 Bft)
27.01.2023 19:49 1,5 C 1,6 C 89 % 1026,6 hPa 0,0 l/m 1,0 km/h (0 Bft) N 7 0 min 0,0 UV-I 0 W/m -0,1 C 6,0 km/h (2 Bft)
27.01.2023 19:48 1,5 C 1,8 C 89 % 1026,5 hPa 0,0 l/m 3,1 km/h (1 Bft) N-NO 29 0 min 0,0 UV-I 0 W/m -0,1 C 14,0 km/h (3 Bft)
27.01.2023 19:47 1,5 C 1,8 C 89 % 1026,4 hPa 0,0 l/m 4,3 km/h (1 Bft) N 11 0 min 0,0 UV-I 0 W/m -0,1 C 14,0 km/h (3 Bft)
27.01.2023 19:46 1,5 C 1,7 C 89 % 1026,6 hPa 0,0 l/m 5,7 km/h (1 Bft) N-NW 336 0 min 0,0 UV-I 0 W/m -0,1 C 11,0 km/h (2 Bft)
27.01.2023 19:45 1,5 C 1,8 C 89 % 1026,2 hPa 0,0 l/m 2,9 km/h (1 Bft) N 6 0 min 0,0 UV-I 0 W/m -0,1 C 7,0 km/h (2 Bft)
27.01.2023 19:44 1,5 C 1,7 C 89 % 1026,2 hPa 0,0 l/m 4,3 km/h (1 Bft) N 357 0 min 0,0 UV-I 0 W/m -0,1 C 7,0 km/h (2 Bft)
27.01.2023 19:43 1,5 C 1,8 C 89 % 1026,5 hPa 0,0 l/m 1,4 km/h (1 Bft) N 5 0 min 0,0 UV-I 0 W/m -0,1 C 8,0 km/h (2 Bft)
27.01.2023 19:42 1,6 C 1,8 C 89 % 1026,3 hPa 0,0 l/m 1,3 km/h (1 Bft) N-NO 24 0 min 0,0 UV-I 0 W/m -0,0 C 8,0 km/h (2 Bft)
27.01.2023 19:41 1,5 C 1,7 C 89 % 1026,5 hPa 0,0 l/m 4,2 km/h (1 Bft) NO 37 0 min 0,0 UV-I 0 W/m -0,1 C 8,0 km/h (2 Bft)
27.01.2023 19:40 1,5 C 1,7 C 89 % 1026,5 hPa 0,0 l/m 2,3 km/h (1 Bft) NO 53 0 min 0,0 UV-I 0 W/m -0,1 C 5,0 km/h (1 Bft)
27.01.2023 19:39 1,6 C 1,7 C 89 % 1026,4 hPa 0,0 l/m 2,3 km/h (1 Bft) O 89 0 min 0,0 UV-I 0 W/m -0,0 C 5,0 km/h (1 Bft)
27.01.2023 19:38 1,6 C 1,8 C 89 % 1026,5 hPa 0,0 l/m 2,5 km/h (1 Bft) O-NO 69 0 min 0,0 UV-I 0 W/m -0,0 C 5,0 km/h (1 Bft)
27.01.2023 19:37 1,6 C 1,8 C 89 % 1026,6 hPa 0,0 l/m 1,3 km/h (1 Bft) O-NO 74 0 min 0,0 UV-I 0 W/m -0,0 C 12,0 km/h (2 Bft)
27.01.2023 19:36 1,6 C 1,8 C 89 % 1026,6 hPa 0,0 l/m 1,0 km/h (0 Bft) O-NO 64 0 min 0,0 UV-I 0 W/m -0,0 C 12,0 km/h (2 Bft)
27.01.2023 19:35 1,6 C 1,8 C 89 % 1026,5 hPa 0,0 l/m 6,2 km/h (2 Bft) N-NW 340 0 min 0,0 UV-I 0 W/m -0,0 C 12,0 km/h (2 Bft)
27.01.2023 19:34 1,6 C 1,8 C 89 % 1026,5 hPa 0,0 l/m 3,6 km/h (1 Bft) N-NO 18 0 min 0,0 UV-I 0 W/m -0,0 C 6,0 km/h (2 Bft)
27.01.2023 19:33 1,6 C 1,7 C 89 % 1026,3 hPa 0,0 l/m 1,0 km/h (0 Bft) N 10 0 min 0,0 UV-I 0 W/m -0,0 C 9,0 km/h (2 Bft)
27.01.2023 19:32 1,6 C 1,8 C 89 % 1026,6 hPa 0,0 l/m 2,3 km/h (1 Bft) N 0 0 min 0,0 UV-I 0 W/m -0,0 C 9,0 km/h (2 Bft)
27.01.2023 19:31 1,6 C 1,8 C 89 % 1026,5 hPa 0,0 l/m 3,4 km/h (1 Bft) N 3 0 min 0,0 UV-I 0 W/m -0,0 C 7,0 km/h (2 Bft)
27.01.2023 19:30 1,6 C 1,8 C 89 % 1026,4 hPa 0,0 l/m 1,4 km/h (1 Bft) NO 35 0 min 0,0 UV-I 0 W/m -0,0 C 7,0 km/h (2 Bft)
27.01.2023 19:29 1,6 C 1,8 C 89 % 1026,4 hPa 0,0 l/m 0,0 km/h (0 Bft) NW 309 0 min 0,0 UV-I 0 W/m -0,0 C 9,0 km/h (2 Bft)
27.01.2023 19:28 1,6 C 1,9 C 89 % 1026,4 hPa 0,0 l/m 1,0 km/h (0 Bft) N-NO 20 0 min 0,0 UV-I 0 W/m -0,0 C 9,0 km/h (2 Bft)
27.01.2023 19:27 1,6 C 1,9 C 89 % 1026,3 hPa 0,0 l/m 4,1 km/h (1 Bft) N 10 0 min 0,0 UV-I 0 W/m -0,0 C 17,0 km/h (3 Bft)
27.01.2023 19:26 1,6 C 1,9 C 89 % 1026,5 hPa 0,0 l/m 3,2 km/h (1 Bft) O 92 0 min 0,0 UV-I 0 W/m -0,0 C 17,0 km/h (3 Bft)
27.01.2023 19:25 1,6 C 2,0 C 89 % 1026,3 hPa 0,0 l/m 11,9 km/h (2 Bft) NW 317 0 min 0,0 UV-I 0 W/m -0,0 C 17,0 km/h (3 Bft)
27.01.2023 19:24 1,6 C 1,9 C 89 % 1026,3 hPa 0,0 l/m 4,7 km/h (1 Bft) W-SW 238 0 min 0,0 UV-I 0 W/m -0,0 C 13,0 km/h (3 Bft)
27.01.2023 19:23 1,6 C 1,9 C 89 % 1026,3 hPa 0,0 l/m 2,0 km/h (1 Bft) N-NO 13 0 min 0,0 UV-I 0 W/m -0,0 C 14,0 km/h (3 Bft)
27.01.2023 19:22 1,6 C 1,9 C 89 % 1026,6 hPa 0,0 l/m 5,2 km/h (1 Bft) N 358 0 min 0,0 UV-I 0 W/m -0,0 C 14,0 km/h (3 Bft)
27.01.2023 19:21 1,6 C 1,9 C 89 % 1026,3 hPa 0,0 l/m 4,8 km/h (1 Bft) N 353 0 min 0,0 UV-I 0 W/m -0,0 C 14,0 km/h (3 Bft)
27.01.2023 19:20 1,6 C 2,0 C 89 % 1026,3 hPa 0,0 l/m 5,8 km/h (2 Bft) N-NW 341 0 min 0,0 UV-I 0 W/m -0,0 C 10,0 km/h (2 Bft)
27.01.2023 19:19 1,6 C 2,0 C 89 % 1026,3 hPa 0,0 l/m 6,7 km/h (2 Bft) N 351 0 min 0,0 UV-I 0 W/m -0,0 C 10,0 km/h (2 Bft)
27.01.2023 19:18 1,7 C 1,9 C 89 % 1026,4 hPa 0,0 l/m 7,2 km/h (2 Bft) N-NW 348 0 min 0,0 UV-I 0 W/m 0,1 C 10,0 km/h (2 Bft)
27.01.2023 19:17 1,6 C 2,0 C 89 % 1026,4 hPa 0,0 l/m 5,1 km/h (1 Bft) N-NW 337 0 min 0,0 UV-I 0 W/m -0,0 C 14,0 km/h (3 Bft)
27.01.2023 19:16 1,7 C 1,9 C 89 % 1026,3 hPa 0,0 l/m 5,7 km/h (1 Bft) N-NO 14 0 min 0,0 UV-I 0 W/m 0,1 C 14,0 km/h (3 Bft)
27.01.2023 19:15 1,7 C 1,9 C 89 % 1026,2 hPa 0,0 l/m 4,8 km/h (1 Bft) N 6 0 min 0,0 UV-I 0 W/m 0,1 C 18,0 km/h (3 Bft)
27.01.2023 19:14 1,7 C 2,0 C 89 % 1026,2 hPa 0,0 l/m 4,5 km/h (1 Bft) N-NW 348 0 min 0,0 UV-I 0 W/m 0,1 C 18,0 km/h (3 Bft)
27.01.2023 19:13 1,7 C 2,0 C 89 % 1026,3 hPa 0,0 l/m 5,8 km/h (2 Bft) N-NW 337 0 min 0,0 UV-I 0 W/m 0,1 C 13,0 km/h (3 Bft)
27.01.2023 19:12 1,7 C 2,0 C 89 % 1026,3 hPa 0,0 l/m 4,7 km/h (1 Bft) NW 326 0 min 0,0 UV-I 0 W/m 0,1 C 13,0 km/h (3 Bft)
27.01.2023 19:11 1,7 C 2,0 C 89 % 1026,2 hPa 0,0 l/m 4,1 km/h (1 Bft) N-NW 347 0 min 0,0 UV-I 0 W/m 0,1 C 13,0 km/h (3 Bft)
27.01.2023 19:10 1,7 C 1,9 C 89 % 1026,1 hPa 0,0 l/m 9,3 km/h (2 Bft) N 4 0 min 0,0 UV-I 0 W/m 0,1 C 18,0 km/h (3 Bft)
27.01.2023 19:09 1,7 C 2,0 C 89 % 1026,2 hPa 0,0 l/m 7,2 km/h (2 Bft) N-NW 342 0 min 0,0 UV-I 0 W/m 0,1 C 18,0 km/h (3 Bft)
27.01.2023 19:08 1,7 C 2,0 C 89 % 1026,3 hPa 0,0 l/m 8,1 km/h (2 Bft) N-NW 331 0 min 0,0 UV-I 0 W/m 0,1 C 18,0 km/h (3 Bft)
27.01.2023 19:07 1,7 C 2,0 C 89 % 1026,5 hPa 0,0 l/m 7,0 km/h (2 Bft) N 355 0 min 0,0 UV-I 0 W/m 0,1 C 17,0 km/h (3 Bft)
27.01.2023 19:06 1,7 C 2,0 C 89 % 1026,3 hPa 0,0 l/m 8,4 km/h (2 Bft) N 356 0 min 0,0 UV-I 0 W/m 0,1 C 17,0 km/h (3 Bft)
27.01.2023 19:05 1,7 C 2,0 C 89 % 1026,6 hPa 0,0 l/m 8,8 km/h (2 Bft) N-NW 344 0 min 0,0 UV-I 0 W/m 0,1 C 17,0 km/h (3 Bft)
27.01.2023 19:04 1,7 C 2,0 C 89 % 1026,6 hPa 0,0 l/m 7,4 km/h (2 Bft) N 357 0 min 0,0 UV-I 0 W/m 0,1 C 17,0 km/h (3 Bft)
27.01.2023 19:03 1,7 C 2,0 C 89 % 1026,1 hPa 0,0 l/m 6,4 km/h (2 Bft) N 357 0 min 0,0 UV-I 0 W/m 0,1 C 15,0 km/h (3 Bft)
27.01.2023 19:02 1,7 C 2,0 C 89 % 1026,1 hPa 0,0 l/m 3,2 km/h (1 Bft) N 357 0 min 0,0 UV-I 0 W/m 0,1 C 19,0 km/h (3 Bft)
27.01.2023 19:01 1,7 C 2,0 C 89 % 1026,1 hPa 0,0 l/m 12,0 km/h (2 Bft) N 353 0 min 0,0 UV-I 0 W/m 0,1 C 19,0 km/h (3 Bft)
27.01.2023 19:00 1,7 C 2,0 C 89 % 1026,2 hPa 0,0 l/m 5,6 km/h (1 Bft) N 350 0 min 0,0 UV-I 0 W/m 0,1 C 12,0 km/h (2 Bft)
_ Min-Zeit 18:39 18:34 13:23 19:01 - 19:29 - - - - - 18:39 05:36
Minimum _ -2,0 C -3,2 C 76 % 1026,1 hPa - 0,0 km/h (0 Bft) - - - - - -4,7 C 3,0 km/h (1 Bft)
_ Max-Zeit 19:00 19:00 03:14 18:25 19:00 00:12 - - 15:34 19:00 11:53 19:00 21:48
Maximum _ 1,7 C 2,0 C 90 % 1030,1 hPa 0,0 l/m 14,1 km/h
N (3 Bft)
- - 1 min 0,0 UV-I 119 W/m 0,1 C 27,0 km/h
N-NW (4 Bft)
Durchschnitt _ 0,2 C 0,5 C 84 % 1027,9 hPa #0,0 l/m 3,7 km/h (1 Bft) N - #5 min. 0,0 UV-I 46 W/m -2,1 C 9,8 km/h (2 Bft)